[[{"header":{"parameterUnit":"m.s-1","parameterCategory":1,"la1":30.6,"la2":29.2853,"lo1":-89.7004,"lo2":-87.6739,"dy":0.0162,"dx":0.0183,"nx":112,"ny":82,"refTime":"2026-04-06T00:00:00:Z","depth":0,"parameterNumber":2,"parameterNumberName":"U-component_of_WINDS"},"data":[0.0,0.0,0.0,0.0,0.0,0.0,0.0,0.0,0.0,0.0,0.0,0.0,0.0,0.0,0.0,0.0,0.0,0.0,0.0,0.0,0.0,0.0,0.0,0.0,0.0,0.0,0.0,0.0,0.0,0.0,0.0,0.0,0.0,0.0,0.0,0.0,0.0,0.0,0.0,0.0,0.0,0.0,0.0,0.0,0.0,0.0,0.0,0.0,0.0,0.0,0.0,0.0,0.0,0.0,0.0,0.0,0.0,0.0,0.0,0.0,0.0,0.0,0.0,0.0,0.0,0.0,0.0,0.0,0.0,0.0,0.0,0.0,0.0,0.0,0.0,0.0,0.0,0.0,0.0,0.0,0.0,0.0,0.0,0.0,0.0,0.0,0.0,0.0,0.0,0.0,3.0998,3.1414,3.1565,3.1611,3.1611,2.9203,2.7135,2.5771,0.0,0.0,0.0,0.0,0.0,0.0,0.0,0.0,0.0,0.0,0.0,0.0,0.0,0.0,0.0,0.0,0.0,0.0,0.0,0.0,0.0,0.0,0.0,0.0,0.0,0.0,0.0,0.0,0.0,0.0,0.0,0.0,0.0,0.0,0.0,0.0,0.0,0.0,0.0,0.0,0.0,0.0,0.0,0.0,0.0,0.0,0.0,0.0,0.0,0.0,0.0,0.0,0.0,0.0,0.0,0.0,0.0,0.0,0.0,0.0,0.0,0.0,0.0,0.0,0.0,0.0,0.0,0.0,0.0,0.0,0.0,0.0,0.0,0.0,0.0,0.0,0.0,0.0,0.0,0.0,0.0,0.0,0.0,0.0,0.0,0.0,0.0,0.0,0.0,0.0,0.0,0.0,0.0,0.0,0.0,0.0,0.0,0.0,0.0,0.0,0.0,0.0,0.0,0.0,3.0716,3.3267,3.239,3.1611,3.1611,2.9203,2.7135,2.5771,0.0,0.0,0.0,0.0,0.0,0.0,0.0,0.0,0.0,0.0,0.0,0.0,0.0,0.0,0.0,0.0,0.0,0.0,0.0,0.0,0.0,0.0,0.0,0.0,0.0,0.0,0.0,0.0,0.0,0.0,0.0,0.0,0.0,0.0,0.0,0.0,0.0,0.0,0.0,0.0,0.0,0.0,0.0,0.0,0.0,0.0,0.0,0.0,0.0,0.0,0.0,0.0,0.0,0.0,0.0,0.0,0.0,0.0,0.0,0.0,0.0,0.0,0.0,0.0,0.0,0.0,0.0,0.0,0.0,0.0,0.0,0.0,0.0,0.0,0.0,0.0,0.0,0.0,0.0,0.0,0.0,0.0,0.0,0.0,0.0,0.0,0.0,0.0,0.0,0.0,0.0,0.0,0.0,0.0,0.0,0.0,0.0,0.0,0.0,0.0,0.0,0.0,0.0,3.0514,3.1693,3.4174,3.2739,3.1611,3.1611,2.9203,2.7135,2.5771,2.5508,0.0,0.0,0.0,0.0,0.0,0.0,0.0,0.0,0.0,0.0,0.0,0.0,0.0,0.0,0.0,0.0,0.0,0.0,0.0,0.0,0.0,0.0,0.0,0.0,0.0,0.0,0.0,0.0,0.0,0.0,0.0,0.0,0.0,0.0,0.0,0.0,0.0,0.0,0.0,0.0,0.0,0.0,0.0,0.0,0.0,0.0,0.0,0.0,0.0,0.0,0.0,0.0,0.0,0.0,0.0,0.0,0.0,0.0,0.0,0.0,0.0,0.0,0.0,0.0,0.0,0.0,0.0,0.0,0.0,0.0,0.0,0.0,0.0,0.0,0.0,0.0,0.0,0.0,0.0,0.0,0.0,0.0,0.0,0.0,0.0,0.0,0.0,0.0,0.0,0.0,0.0,0.0,0.0,0.0,0.0,0.0,0.0,0.0,0.0,0.0,0.0,0.0,3.2315,3.2737,3.4265,3.2476,3.118,3.118,2.8946,2.7012,2.5796,2.5215,0.0,0.0,0.0,0.0,0.0,0.0,0.0,0.0,0.0,0.0,0.0,0.0,0.0,0.0,0.0,0.0,0.0,0.0,0.0,0.0,0.0,0.0,0.0,0.0,0.0,0.0,0.0,0.0,0.0,0.0,0.0,0.0,0.0,0.0,0.0,0.0,0.0,0.0,0.0,0.0,0.0,0.0,0.0,0.0,0.0,0.0,0.0,0.0,0.0,0.0,0.0,0.0,0.0,0.0,0.0,0.0,0.0,0.0,0.0,0.0,0.0,0.0,0.0,0.0,0.0,0.0,0.0,0.0,0.0,0.0,0.0,0.0,0.0,0.0,0.0,0.0,0.0,0.0,0.0,0.0,0.0,0.0,0.0,0.0,0.0,0.0,0.0,0.0,0.0,0.0,0.0,0.0,0.0,0.0,0.0,0.0,0.0,0.0,0.0,0.0,0.0,0.0,3.2861,3.3157,3.33,3.1334,3.0016,3.0016,2.8173,2.6654,2.5776,2.4918,0.0,0.0,0.0,0.0,0.0,0.0,0.0,0.0,0.0,0.0,0.0,0.0,0.0,0.0,0.0,0.0,0.0,0.0,0.0,0.0,0.0,0.0,0.0,0.0,0.0,0.0,0.0,0.0,0.0,0.0,0.0,0.0,0.0,0.0,0.0,0.0,0.0,0.0,0.0,0.0,0.0,0.0,0.0,0.0,0.0,0.0,0.0,0.0,0.0,0.0,0.0,0.0,0.0,0.0,0.0,0.0,0.0,0.0,0.0,0.0,0.0,0.0,0.0,0.0,0.0,0.0,0.0,0.0,0.0,0.0,0.0,0.0,0.0,0.0,0.0,0.0,0.0,0.0,0.0,0.0,0.0,0.0,0.0,0.0,0.0,0.0,0.0,0.0,0.0,0.0,0.0,0.0,0.0,0.0,0.0,0.0,0.0,0.0,0.0,0.0,0.0,0.0,3.2525,3.3288,0.0,3.1663,3.0216,2.9927,2.8627,2.7344,2.6211,0.0,0.0,0.0,0.0,0.0,0.0,0.0,0.0,0.0,0.0,0.0,0.0,0.0,0.0,0.0,0.0,0.0,0.0,0.0,0.0,0.0,0.0,0.0,0.0,0.0,0.0,0.0,0.0,0.0,0.0,0.0,0.0,0.0,0.0,0.0,0.0,0.0,0.0,0.0,0.0,0.0,0.0,0.0,0.0,0.0,0.0,0.0,0.0,0.0,0.0,0.0,0.0,0.0,0.0,0.0,0.0,0.0,0.0,0.0,0.0,0.0,0.0,0.0,0.0,0.0,0.0,0.0,0.0,0.0,0.0,0.0,0.0,0.0,0.0,0.0,0.0,0.0,0.0,0.0,0.0,0.0,0.0,0.0,0.0,0.0,0.0,0.0,0.0,0.0,0.0,0.0,0.0,0.0,0.0,0.0,0.0,0.0,0.0,0.0,0.0,0.0,0.0,3.1801,3.2469,3.3073,0.0,3.1838,3.0357,3.0025,2.8952,2.7754,2.6465,0.0,0.0,0.0,0.0,0.0,0.0,0.0,0.0,0.0,0.0,0.0,0.0,0.0,0.0,0.0,0.0,0.0,0.0,0.0,0.0,0.0,0.0,0.0,0.0,0.0,0.0,0.0,0.0,0.0,0.0,0.0,0.0,0.0,0.0,0.0,0.0,0.0,0.0,0.0,0.0,0.0,0.0,0.0,0.0,0.0,0.0,0.0,0.0,0.0,0.0,0.0,0.0,0.0,0.0,0.0,0.0,0.0,0.0,0.0,0.0,0.0,0.0,0.0,0.0,0.0,0.0,0.0,0.0,0.0,0.0,0.0,0.0,0.0,0.0,0.0,0.0,0.0,0.0,0.0,0.0,0.0,0.0,0.0,0.0,0.0,0.0,0.0,0.0,0.0,0.0,0.0,0.0,0.0,0.0,0.0,0.0,0.0,0.0,0.0,0.0,0.0,0.0,3.3529,3.2937,3.2572,3.3486,3.1569,3.0215,3.0195,2.9023,2.7754,0.0,0.0,0.0,0.0,0.0,0.0,0.0,0.0,0.0,0.0,0.0,0.0,0.0,0.0,0.0,0.0,0.0,0.0,0.0,0.0,0.0,0.0,0.0,0.0,0.0,0.0,0.0,0.0,0.0,0.0,0.0,0.0,0.0,0.0,0.0,0.0,0.0,0.0,0.0,0.0,0.0,0.0,0.0,0.0,0.0,0.0,0.0,0.0,0.0,0.0,0.0,0.0,0.0,0.0,0.0,0.0,0.0,0.0,0.0,0.0,0.0,0.0,0.0,0.0,0.0,0.0,0.0,0.0,0.0,0.0,0.0,0.0,0.0,0.0,0.0,0.0,0.0,0.0,0.0,0.0,0.0,0.0,0.0,0.0,0.0,0.0,0.0,0.0,0.0,0.0,0.0,0.0,0.0,0.0,0.0,0.0,0.0,0.0,0.0,0.0,0.0,0.0,0.0,3.195,3.2553,3.2964,3.335,3.2029,3.0762,2.9852,2.9442,2.8516,2.6934,0.0,0.0,0.0,0.0,0.0,0.0,0.0,0.0,0.0,0.0,0.0,0.0,0.0,0.0,0.0,0.0,0.0,0.0,0.0,0.0,0.0,0.0,0.0,0.0,0.0,0.0,0.0,0.0,0.0,0.0,0.0,0.0,0.0,0.0,0.0,0.0,0.0,0.0,0.0,0.0,0.0,0.0,0.0,0.0,0.0,0.0,0.0,0.0,0.0,0.0,0.0,0.0,0.0,0.0,0.0,0.0,0.0,0.0,0.0,0.0,0.0,0.0,0.0,0.0,0.0,0.0,0.0,0.0,0.0,0.0,0.0,0.0,0.0,0.0,0.0,0.0,0.0,0.0,0.0,0.0,0.0,0.0,0.0,0.0,0.0,0.0,0.0,0.0,0.0,0.0,0.0,0.0,0.0,0.0,0.0,0.0,0.0,0.0,0.0,0.0,0.0,0.0,3.2292,3.3029,3.3824,3.4998,3.3407,3.1953,3.1172,3.0644,2.9531,2.7637,0.0,0.0,0.0,0.0,0.0,0.0,0.0,0.0,0.0,0.0,0.0,0.0,0.0,0.0,0.0,0.0,0.0,0.0,0.0,0.0,0.0,0.0,0.0,0.0,0.0,0.0,0.0,0.0,0.0,0.0,0.0,0.0,0.0,0.0,0.0,0.0,0.0,0.0,0.0,0.0,0.0,0.0,0.0,0.0,0.0,0.0,0.0,0.0,0.0,0.0,0.0,0.0,0.0,0.0,0.0,0.0,0.0,0.0,0.0,0.0,0.0,0.0,0.0,0.0,0.0,0.0,0.0,0.0,0.0,0.0,0.0,0.0,0.0,0.0,0.0,0.0,0.0,0.0,0.0,0.0,0.0,0.0,0.0,0.0,0.0,0.0,0.0,0.0,0.0,0.0,0.0,0.0,0.0,0.0,0.0,0.0,0.0,0.0,0.0,0.0,0.0,0.0,3.3455,3.3812,3.4722,3.7271,3.5093,3.3425,3.3347,3.2305,3.0703,2.8496,0.0,0.0,0.0,0.0,0.0,0.0,0.0,0.0,0.0,0.0,0.0,0.0,0.0,0.0,0.0,0.0,0.0,0.0,0.0,0.0,0.0,0.0,0.0,0.0,0.0,0.0,0.0,0.0,0.0,0.0,0.0,0.0,0.0,0.0,0.0,0.0,0.0,0.0,0.0,0.0,0.0,0.0,0.0,0.0,0.0,0.0,0.0,0.0,0.0,0.0,0.0,0.0,0.0,0.0,0.0,0.0,0.0,0.0,0.0,0.0,2.6435,2.5609,0.0,0.0,0.0,0.0,0.0,0.0,0.0,0.0,0.0,0.0,0.0,0.0,0.0,0.0,0.0,0.0,0.0,0.0,0.0,0.0,0.0,0.0,0.0,0.0,0.0,0.0,0.0,0.0,0.0,0.0,0.0,0.0,0.0,0.0,0.0,0.0,0.0,0.0,0.0,0.0,3.0883,3.2485,3.3851,3.4816,3.4337,3.3672,3.2988,3.2676,3.1445,2.8918,2.791,0.0,0.0,0.0,0.0,0.0,0.0,0.0,0.0,0.0,0.0,0.0,0.0,0.0,0.0,0.0,0.0,0.0,0.0,0.0,0.0,0.0,0.0,0.0,0.0,0.0,0.0,0.0,0.0,0.0,0.0,0.0,0.0,0.0,0.0,0.0,0.0,0.0,0.0,0.0,0.0,0.0,0.0,0.0,0.0,0.0,0.0,0.0,0.0,0.0,0.0,0.0,0.0,0.0,0.0,0.0,0.0,0.0,0.0,0.0,2.8234,2.7426,0.0,0.0,0.0,0.0,0.0,0.0,0.0,0.0,0.0,0.0,0.0,0.0,0.0,0.0,0.0,0.0,0.0,0.0,0.0,0.0,0.0,0.0,0.0,0.0,0.0,0.0,0.0,0.0,0.0,0.0,0.0,0.0,0.0,0.0,0.0,0.0,0.0,0.0,0.0,0.0,3.1039,3.285,3.4379,3.5284,3.4776,3.4199,3.375,3.334,3.2266,3.0264,2.8965,0.0,0.0,0.0,0.0,0.0,0.0,0.0,0.0,0.0,0.0,0.0,0.0,0.0,0.0,0.0,0.0,0.0,0.0,0.0,0.0,0.0,0.0,0.0,0.0,0.0,0.0,0.0,0.0,0.0,0.0,0.0,0.0,0.0,0.0,0.0,0.0,0.0,0.0,0.0,0.0,0.0,0.0,0.0,0.0,0.0,0.0,0.0,0.0,0.0,0.0,0.0,0.0,0.0,3.1286,3.1543,3.1913,3.1913,3.1964,3.1946,3.0712,3.007,2.9868,2.9104,0.0,0.0,0.0,0.0,0.0,0.0,0.0,0.0,0.0,0.0,0.0,0.0,0.0,0.0,0.0,0.0,0.0,0.0,0.0,0.0,0.0,0.0,3.1064,3.1298,3.1659,3.1387,2.9266,0.0,0.0,0.0,0.0,0.0,0.0,0.0,0.0,0.0,0.0,0.0,3.1958,3.3653,3.5145,3.6304,3.5466,3.4785,3.4707,3.4121,3.3152,3.1816,3.0332,2.873,0.0,0.0,0.0,0.0,0.0,0.0,0.0,0.0,0.0,0.0,0.0,0.0,0.0,0.0,0.0,0.0,0.0,0.0,0.0,0.0,0.0,0.0,0.0,0.0,0.0,0.0,0.0,0.0,0.0,0.0,0.0,0.0,2.7321,2.8084,0.0,0.0,0.0,0.0,0.0,0.0,0.0,0.0,0.0,0.0,0.0,0.0,0.0,3.0644,3.1176,3.1854,3.2441,3.2866,3.3248,3.3633,3.4,3.4,3.4202,3.4515,3.4661,0.0,3.1134,3.0662,0.0,0.0,0.0,0.0,0.0,0.0,0.0,0.0,0.0,0.0,0.0,0.0,0.0,0.0,0.0,0.0,0.0,0.0,0.0,0.0,0.0,0.0,3.4021,3.3328,3.3468,3.3684,3.3332,3.0957,2.8703,2.8086,2.778,2.7174,0.0,0.0,0.0,0.0,0.0,0.0,3.1496,3.3426,3.4753,3.4949,3.5191,3.5137,3.4726,3.4961,3.4414,3.2734,3.2101,3.0986,2.9246,2.8262,0.0,0.0,0.0,0.0,0.0,0.0,0.0,0.0,0.0,0.0,0.0,0.0,0.0,0.0,0.0,0.0,0.0,0.0,0.0,0.0,0.0,0.0,0.0,0.0,0.0,0.0,0.0,0.0,0.0,2.7123,2.8062,2.8115,2.8544,2.8578,0.0,0.0,0.0,0.0,0.0,0.0,0.0,0.0,0.0,3.1524,3.1946,3.257,3.3415,3.4018,3.4588,3.5229,3.5394,3.5687,3.6109,3.6109,3.6163,3.6347,3.653,3.5925,3.466,3.312,3.2258,3.1781,0.0,0.0,0.0,0.0,3.0534,3.0772,3.1469,3.1689,3.1616,3.1102,0.0,0.0,0.0,0.0,0.0,0.0,0.0,3.1096,3.1947,3.3317,3.4541,3.4884,3.5267,3.5496,3.5264,3.3836,3.2148,3.0771,3.0146,2.9336,2.7767,2.7891,0.0,0.0,0.0,3.1973,3.2851,3.4414,3.5449,3.5449,3.584,3.5937,3.5488,3.5625,3.5215,3.3945,3.3242,3.2324,3.1103,2.9961,2.8785,0.0,0.0,0.0,0.0,0.0,0.0,0.0,0.0,0.0,0.0,0.0,0.0,0.0,0.0,0.0,0.0,0.0,0.0,0.0,0.0,0.0,0.0,0.0,0.0,0.0,0.0,0.0,0.0,2.7791,2.8782,2.8289,2.9442,2.9816,0.0,0.0,0.0,0.0,0.0,0.0,3.1543,3.2129,3.279,3.3505,3.3892,3.4643,3.5742,3.6054,3.6603,3.7409,3.7318,3.7464,3.7849,3.7849,3.7849,3.7849,3.7998,3.7979,3.7666,3.5375,3.4202,3.369,3.2588,3.2166,3.2188,3.2514,3.268,3.2918,3.3892,3.4167,3.3965,3.3303,3.2808,3.2166,3.0552,0.0,0.0,0.0,0.0,3.1805,3.3397,3.4318,3.5079,3.606,3.6625,3.6939,3.663,3.6103,3.517,3.3234,3.2383,3.1523,3.0,3.0019,0.0,3.0263,3.1797,3.3262,3.4153,3.5273,3.5982,3.5982,3.6406,3.6577,3.6211,3.6289,3.5976,3.5098,3.4401,3.3589,3.2572,3.1579,3.0393,2.9011,0.0,0.0,0.0,0.0,0.0,0.0,0.0,0.0,0.0,0.0,0.0,0.0,0.0,0.0,0.0,0.0,0.0,0.0,0.0,0.0,0.0,0.0,0.0,0.0,0.0,0.0,0.0,0.0,0.0,2.9177,3.075,0.0,0.0,0.0,0.0,3.1226,3.2386,3.3214,3.3633,3.477,3.5595,3.6017,3.6402,3.7006,3.7851,3.7888,3.827,3.9058,3.8692,3.8728,3.9095,3.9095,3.9095,3.9113,3.9597,3.9502,3.8948,3.6934,3.5852,3.5412,3.4568,3.4257,3.4257,3.4275,3.4532,3.4899,3.5339,3.5247,3.5046,3.5779,3.4954,3.3633,3.3122,3.2478,0.0,0.0,3.2735,3.3651,3.3762,3.5226,3.67,3.6757,3.7316,3.7819,3.7835,3.7207,3.6245,3.4844,3.3906,3.3047,3.2198,0.0,3.2061,3.2061,3.2812,3.3659,3.4551,3.5449,3.5982,3.5982,3.6406,3.6695,3.6675,3.7012,3.6875,3.5982,3.5884,3.5145,3.3489,3.3373,3.2396,3.0332,2.9871,0.0,0.0,0.0,0.0,0.0,0.0,0.0,0.0,0.0,0.0,0.0,0.0,0.0,0.0,0.0,0.0,0.0,0.0,0.0,0.0,0.0,0.0,0.0,0.0,0.0,0.0,0.0,0.0,3.1117,3.2815,0.0,3.2642,3.2575,3.29,3.3654,3.4605,3.543,3.6072,3.675,3.7356,3.7721,3.8124,3.8472,3.8765,3.9061,3.9377,3.9652,3.9524,3.9524,3.9671,3.9671,3.9671,3.9671,3.9817,3.9799,3.9615,3.8881,3.7998,3.7099,3.653,3.6347,3.6347,3.6347,3.6402,3.6548,3.6695,3.6658,3.653,3.6566,3.5999,3.5284,3.488,3.4533,3.4385,3.4642,3.5027,3.5467,3.5962,3.6644,3.7258,3.754,3.8027,3.8511,3.8735,3.8333,3.7789,3.7285,3.584,3.4492,3.3906,3.3789,3.3711,3.3469,3.4141,3.5,3.5859,3.625,3.6543,3.6816,3.6973,3.6903,3.6367,3.6449,3.617,3.5337,3.5299,3.4905,3.4046,3.4008,3.3198,3.1421,3.0709,2.9285,0.0,0.0,0.0,0.0,0.0,0.0,0.0,0.0,0.0,0.0,0.0,0.0,0.0,0.0,0.0,0.0,0.0,0.0,0.0,0.0,0.0,0.0,0.0,0.0,0.0,3.1236,3.3287,3.2826,3.463,3.5558,3.4738,3.4903,3.534,3.5962,3.6787,3.7428,3.7959,3.842,3.875,3.9043,3.93,3.9502,3.9648,4.0093,4.0368,4.0515,4.0644,4.0699,4.0699,4.0699,4.0699,4.0699,4.057,4.0423,4.0276,4.0148,3.9524,3.8603,3.8346,3.8163,3.8014,3.8199,3.8236,3.8236,3.8236,3.8053,3.7757,3.7501,3.7024,3.6567,3.6273,3.62,3.6237,3.6549,3.6585,3.6751,3.7244,3.7506,3.7659,3.7984,3.8462,3.8956,3.9221,3.9153,3.9023,3.9023,3.7402,3.5937,3.5625,3.5586,3.543,3.5053,3.5566,3.6191,3.6656,3.6832,3.7051,3.7461,3.7383,3.7105,3.6563,3.6258,3.5796,3.5183,3.4865,3.4512,3.4146,3.3996,3.3302,3.1958,3.0878,2.9361,2.7408,0.0,0.0,0.0,0.0,0.0,0.0,0.0,0.0,0.0,0.0,0.0,0.0,0.0,0.0,0.0,0.0,0.0,0.0,0.0,0.0,0.0,0.0,0.0,2.9277,3.2383,3.4639,3.4269,3.6164,3.7184,3.6497,3.7073,3.7629,3.8034,3.8765,3.9241,3.9241,3.9726,3.9946,3.9964,3.9964,4.0148,4.057,4.0937,4.1341,4.1702,4.2087,4.2314,4.2314,4.2314,4.2314,4.2296,4.1867,4.1525,4.1121,4.0735,4.0331,3.9946,3.9909,3.9634,3.93,3.9744,3.9891,3.9891,3.9891,3.9336,3.8637,3.8637,3.8105,3.7464,3.7464,3.7446,3.7446,3.7446,3.7446,3.7446,3.7428,3.7753,3.8021,3.806,3.8652,3.9222,3.9222,3.9563,3.9884,3.9884,3.8499,3.7363,3.7344,3.7324,3.7168,3.6792,3.7031,0.0,3.6773,3.7051,3.7441,3.7816,3.7484,3.7264,3.7314,3.6547,3.5911,3.5562,3.4732,3.4109,3.3774,3.3416,3.284,3.2038,3.0473,2.906,2.7867,0.0,0.0,0.0,0.0,0.0,0.0,0.0,0.0,0.0,0.0,0.0,0.0,0.0,0.0,0.0,0.0,0.0,0.0,0.0,0.0,0.0,3.1579,3.3103,3.1221,3.4486,3.6972,3.6605,3.8122,3.9135,3.8945,3.9076,3.9267,3.9377,3.9832,4.0253,4.0547,4.0992,4.1359,4.1635,4.1653,4.1708,4.1818,4.1886,4.2039,4.2167,4.2259,4.2314,4.2314,4.2314,4.2314,4.2271,4.2161,4.2094,4.1984,4.1873,4.1745,4.1525,4.035,3.9817,3.9726,3.9836,3.9891,3.9891,3.9891,3.9744,3.956,3.956,3.9395,3.9212,3.9212,3.897,3.8692,3.8692,3.8692,3.8637,3.8343,3.8551,3.8856,3.8914,3.9132,3.9348,3.9639,3.9566,3.9472,3.9472,3.903,3.8577,3.8284,3.7715,3.7266,3.7148,3.7226,3.7266,3.7148,3.698,3.6784,3.6611,3.623,3.5876,3.5692,3.5186,3.4711,3.433,3.3814,3.345,3.3366,3.3255,3.2964,3.2441,3.1121,3.0149,0.0,0.0,0.0,0.0,0.0,0.0,0.0,0.0,0.0,0.0,0.0,0.0,0.0,0.0,0.0,0.0,0.0,0.0,0.0,0.0,0.0,0.0,3.3972,3.5767,3.4741,3.6848,3.8579,3.8726,3.9732,4.046,4.0644,4.0809,4.0901,4.0901,4.1139,4.1378,4.1598,4.1794,4.2051,4.2271,4.2314,4.2314,4.2314,4.2479,4.2571,4.2571,4.2692,4.2784,4.2784,4.2784,4.2784,4.2766,4.2601,4.2571,4.2553,4.2387,4.2314,4.2222,0.0,0.0,0.0,0.0,4.0901,4.0882,4.0717,4.0533,4.0368,4.0203,4.0019,3.9891,3.9891,3.9707,3.9483,3.9483,3.9483,3.9428,3.9208,3.9318,3.9509,3.9551,3.9656,3.9874,4.0114,3.9992,3.9807,3.9807,3.9489,0.0,3.8912,3.8461,3.8047,3.7873,3.7709,3.7523,3.735,3.7151,3.6911,3.6663,3.6278,3.5955,3.5767,3.5095,0.0,0.0,0.0,3.3104,3.2973,3.2955,0.0,0.0,0.0,0.0,0.0,3.1396,0.0,0.0,3.0497,3.0534,0.0,0.0,0.0,0.0,0.0,0.0,0.0,0.0,0.0,0.0,0.0,0.0,0.0,0.0,0.0,0.0,3.6368,3.8521,3.8944,3.9345,3.9832,4.057,4.0992,4.1396,4.1721,4.2069,4.2314,4.2314,4.2326,4.2387,4.2387,4.2381,0.0,0.0,0.0,4.2461,4.2461,4.281,4.2975,4.2975,4.3316,4.3499,4.3499,4.3499,4.3499,4.3481,4.3096,4.2975,4.2957,4.2564,4.2461,4.2443,4.2351,4.2314,4.2314,4.2314,4.2314,4.2234,4.1867,0.0,0.0,4.0772,4.0405,4.0074,4.0038,3.9983,3.9964,3.9964,3.9964,3.9946,3.9891,3.9909,3.9946,3.9891,4.0177,4.0421,4.0421,4.0446,4.0424,4.0424,3.9841,3.937,3.937,3.9223,3.9011,3.8647,3.829,3.7933,3.7555,3.7517,3.7461,3.7404,3.7046,0.0,3.6812,3.5771,3.5256,3.5577,3.4202,3.3211,3.2881,3.2918,3.2936,3.2936,3.3303,3.3635,3.4018,3.4367,3.4788,3.5119,3.2184,3.1781,0.0,0.0,0.0,0.0,0.0,0.0,0.0,0.0,0.0,0.0,0.0,0.0,0.0,0.0,0.0,3.6166,3.8459,4.0393,4.1433,4.1653,4.1629,4.1464,4.1794,4.2112,4.2204,4.2234,4.2314,4.2314,4.2608,4.2791,4.2791,4.3078,4.3261,4.3261,4.3261,4.3261,4.3261,4.3334,4.3371,4.3371,4.3463,0.0,4.3499,4.3499,4.3499,4.3499,4.3408,4.3371,4.3371,4.3298,4.3261,4.3188,4.2527,4.2314,4.2314,4.2314,4.2314,4.2314,4.2197,4.2106,4.202,4.1574,4.139,4.1304,4.0974,4.0644,0.0,4.0387,4.0387,4.0313,3.9964,4.0129,4.0295,3.9964,3.9973,4.0013,4.0013,4.0021,4.0007,4.0007,3.9879,3.9783,3.9783,3.9197,3.8671,3.8595,3.8538,3.8444,3.8406,3.8084,3.7745,3.7446,3.7053,3.6791,3.6789,3.6294,3.5871,3.5632,3.4715,3.4293,3.4515,3.4862,3.5027,3.5027,3.5119,3.5156,3.5229,3.5321,3.5724,3.642,3.5138,3.4734,0.0,0.0,0.0,0.0,0.0,0.0,0.0,0.0,0.0,0.0,0.0,3.1531,3.2772,0.0,3.7366,3.8602,4.0271,4.169,4.2498,4.2608,4.2461,4.2032,4.2369,4.2608,4.2608,4.2766,4.2894,4.2894,4.3078,4.3188,4.3188,4.3371,4.3499,4.3499,4.3683,4.3793,4.3793,4.3995,4.4086,4.4086,4.4086,4.4086,4.4086,4.4086,4.4086,4.4086,4.4086,4.4086,4.4068,4.3866,4.3793,4.3738,4.3133,4.2894,4.2894,4.2894,4.2894,4.2858,4.2681,4.2608,4.2553,4.2106,4.1977,4.1941,4.1782,4.158,4.1415,4.1415,4.1415,4.1359,4.1158,4.1268,4.1359,4.1158,4.0956,4.0809,4.0809,4.0497,4.0203,4.0203,4.0036,3.9921,3.9921,3.9356,3.89,3.8966,3.8605,3.8302,3.8302,3.7942,3.7624,3.7402,3.7232,3.7171,3.7373,3.7228,3.6861,3.6237,3.5815,3.5577,3.5577,3.5797,3.598,3.6182,3.6182,3.6493,3.7098,3.7098,3.7558,3.8328,3.7924,3.7521,0.0,0.0,0.0,0.0,0.0,0.0,0.0,2.9472,2.9896,3.1668,3.3073,3.432,3.558,3.781,3.974,4.0565,4.169,4.2571,4.2975,4.3103,4.2993,4.2564,4.2901,4.314,4.314,4.3481,4.3701,4.3609,4.3683,4.3683,4.3609,4.3683,4.3719,4.3719,4.4031,4.4242,4.4242,4.4554,4.4719,4.4719,4.4719,4.4719,4.4719,4.4719,4.4719,4.4719,4.4719,4.4719,4.4682,4.4325,4.4242,4.416,4.3756,4.3609,4.3609,4.3518,4.3499,4.3444,4.3158,4.303,4.2975,4.2571,4.2443,4.2424,4.2307,4.2314,4.2314,4.2314,4.2314,4.2314,4.2314,4.2314,4.2314,4.2314,4.2032,4.1794,4.1794,4.1268,4.0754,4.0754,4.035,4.0001,4.0001,3.963,3.9329,3.9281,3.8637,3.8126,3.8126,3.7812,3.7629,3.7629,3.7684,3.7943,3.8328,3.8291,3.7904,3.7189,3.7079,3.6878,3.6567,3.6549,3.6787,3.7263,3.7263,3.7776,3.8838,3.8838,3.9208,3.9891,4.0038,3.9689,2.45,2.5569,2.6804,2.7439,2.7834,2.8745,0.0,3.1542,3.1949,3.4195,3.5364,3.6326,3.749,3.915,4.0602,4.1427,4.2296,4.2993,4.3371,4.3719,4.3793,4.3408,4.3701,4.3985,4.3985,4.4306,4.4444,4.405,4.4343,4.438,4.4031,4.4343,4.459,4.459,4.4627,4.4645,4.4645,4.4701,4.4719,4.4719,4.4719,4.4719,4.4719,4.4719,4.4719,4.4719,4.4719,4.4719,4.4719,4.4664,4.4645,4.4609,4.4178,4.4013,4.3976,4.3628,4.3499,4.3481,4.3444,4.3426,4.3353,4.2975,4.2846,4.2773,4.2424,4.2314,4.2314,4.2314,4.2314,4.2314,4.2314,4.2314,4.2314,4.2314,4.2296,4.2216,4.2216,4.1867,4.1555,4.1555,4.0974,4.0442,4.0442,4.0093,3.9671,3.9267,3.8823,3.8527,3.8527,3.849,3.8472,3.8472,3.8783,3.919,3.9652,3.93,3.8875,3.8435,3.805,3.7851,3.7814,3.7814,3.8181,3.8911,3.893,3.9208,3.9744,3.9744,3.9799,3.9932,4.0625,4.0533,2.643,2.7124,2.7905,2.9055,3.0477,3.2047,3.3843,3.4473,3.5232,3.7096,3.7946,3.8624,3.9626,4.0772,4.1745,4.2332,4.3041,4.3646,4.3811,4.3976,4.4105,4.4178,4.4123,4.4086,4.4086,4.4435,4.4645,4.448,4.4581,4.4645,4.448,4.4627,4.4719,4.4719,4.4911,4.504,4.504,4.526,4.5388,4.5388,4.5388,4.5388,4.5388,4.5388,4.5388,4.5388,4.5388,4.5388,4.537,4.5132,4.504,4.5003,4.4627,4.448,4.4343,4.3719,4.3499,4.3499,4.3499,4.3499,4.3463,4.3298,4.3224,4.3206,4.3041,4.2986,4.2986,4.2986,4.2986,4.2986,4.2986,4.2986,4.2986,4.2986,4.2803,4.2663,4.2663,4.2307,4.2032,4.2032,4.1574,4.1189,4.1189,4.068,4.0185,3.9978,3.9612,3.9336,3.9336,3.9336,3.9336,3.9336,3.9483,3.9689,3.9872,3.9726,3.956,3.9355,3.9212,3.912,3.912,3.912,3.9285,3.9575,3.9634,3.9946,4.0588,4.0588,4.0845,4.1304,4.1653,4.1635,2.7208,2.8388,2.9683,3.0962,3.2797,3.4675,3.6171,3.6967,3.7832,3.9394,4.0052,4.0529,4.1158,4.1947,4.2608,4.3012,4.3628,4.4123,4.4233,4.4343,4.4435,4.4554,4.4453,4.4325,4.4105,4.4545,4.4884,4.4884,4.4994,4.4966,4.4856,4.4994,4.5049,4.5049,4.5297,4.5462,4.5462,4.5737,4.5883,4.5883,4.5883,4.5883,4.5883,4.5883,4.5883,4.5883,4.5883,4.5883,4.5865,4.5572,4.5462,4.5425,4.5003,4.4884,4.4765,4.4068,4.3756,4.3664,4.3664,4.3591,4.3499,4.3499,4.3499,4.3499,4.3499,4.3499,4.3518,4.3628,4.3664,4.3664,4.3664,4.3664,4.3628,4.3518,4.3261,4.3085,4.3085,4.2773,4.2479,4.2479,4.2124,4.1849,4.1849,4.1354,4.1011,4.1011,4.0754,4.0387,3.9946,3.9891,3.9928,4.0038,4.0056,4.0093,4.0203,4.0221,4.0166,4.0056,4.0166,4.0166,4.0056,4.0166,4.0276,4.0387,4.0387,4.0735,4.1433,4.1433,4.1745,4.2314,4.2381,4.2491,2.5662,2.879,3.2275,3.3102,3.4201,3.5669,3.7993,3.8512,3.9009,4.0696,4.1335,4.1647,4.1666,4.2351,4.303,4.3408,4.3811,4.4215,4.4645,4.5003,4.4966,4.4196,4.4783,4.4948,4.416,4.4801,4.5278,4.5278,4.5645,4.5682,4.5297,4.5645,4.5847,4.5847,4.5865,4.5865,4.5865,4.5883,4.5883,4.5883,4.5883,4.5883,4.5883,4.5883,4.5883,4.5883,4.5883,4.5883,4.5883,4.5883,4.5865,4.5828,4.5443,4.5278,4.5223,4.4801,4.4444,4.4068,4.4068,4.3811,4.3499,4.3499,4.3499,4.3499,4.3499,4.3499,4.3573,4.3958,4.4068,4.4068,4.4068,4.4068,4.3976,4.3591,4.3481,4.3481,4.3481,4.3195,4.2901,4.2901,4.2571,4.2252,4.2252,4.2234,4.2259,4.2259,4.2216,4.1672,4.0093,3.9891,4.0038,4.0442,4.0497,4.0644,4.1029,4.1066,4.0901,4.0515,4.0845,4.0901,4.0515,4.0864,4.1268,4.1629,4.1629,4.1831,4.2234,4.2234,4.2296,4.2332,4.2718,4.3103,2.9324,3.1663,3.3748,3.5003,3.6993,3.8873,3.9605,4.0451,4.1148,4.144,4.1415,4.1304,4.1304,4.1721,4.2216,4.2619,4.3683,4.4572,4.4701,4.504,4.5205,4.493,4.4655,4.449,4.4517,4.4728,4.5003,4.5278,4.5425,4.5553,4.5682,4.5828,4.5883,4.5883,4.5883,4.5883,4.5883,4.5883,4.5883,4.5883,4.5883,4.5883,4.5883,4.5883,4.5883,4.5883,4.5883,4.5883,4.5902,4.6177,4.6122,4.5902,4.603,4.592,4.5682,4.5535,4.5223,4.4856,4.4581,4.438,4.4315,4.4315,4.4315,4.4315,4.4315,4.4315,4.4306,4.448,4.4517,4.4517,4.4517,4.4517,4.4435,4.4306,4.4315,4.4196,4.394,4.3774,4.3636,4.3334,4.2993,4.2718,4.2718,4.2498,4.2314,4.2314,4.2314,4.2087,4.158,4.1506,4.1561,4.169,4.1666,4.1763,4.1892,4.191,4.1855,4.1727,4.1837,4.1855,4.1727,4.1837,4.1984,4.2112,4.2087,4.2314,4.2718,4.2718,4.2993,4.3481,4.3609,4.3884,3.2077,3.3698,3.485,3.619,3.7622,3.8704,3.8933,4.0148,4.1198,4.1091,4.1068,4.1102,4.1102,4.1213,4.1482,4.2204,4.3389,4.4398,4.4838,4.5132,4.5242,4.5095,4.4618,4.4288,4.4251,4.438,4.4691,4.526,4.5297,4.548,4.5865,4.5883,4.5883,4.5883,4.5883,4.5883,4.5883,4.5883,4.5883,4.5883,4.5883,4.5883,4.5902,4.603,4.6103,4.6103,4.6269,4.6324,4.6342,4.6599,4.6562,4.6342,4.6599,4.6544,4.6324,4.6324,4.6158,4.5847,4.5132,4.4801,4.4719,4.4719,4.4719,4.4719,4.4719,4.4719,4.4756,4.4856,4.4893,4.4893,4.4893,4.4893,4.4856,4.471,4.4719,4.4645,4.4343,4.4288,4.4215,4.3958,4.3746,4.3544,4.3544,4.3342,4.3177,4.3177,4.3177,4.2975,4.2344,4.2314,4.2314,4.2314,4.2314,4.2314,4.2314,4.2314,4.2314,4.2314,4.2417,4.2534,4.2534,4.281,4.2913,4.2913,4.3059,4.3305,4.3544,4.3544,4.3819,4.4288,4.4288,4.4599,3.3879,3.4846,3.5685,3.6896,3.6365,3.576,3.6651,3.8208,3.9593,3.9902,4.0545,4.1029,4.0992,4.0699,4.0864,4.2075,4.2949,4.394,4.5132,4.5315,4.5168,4.4792,4.4756,4.4398,4.3628,4.3903,4.4453,4.5242,4.5278,4.5443,4.5865,4.5883,4.5902,4.592,4.5902,4.5902,4.592,4.592,4.5938,4.5957,4.5957,4.5957,4.5957,4.6342,4.6507,4.6525,4.6929,4.7112,4.7112,4.713,4.713,4.7112,4.713,4.713,4.7112,4.7112,4.7112,4.6947,4.5792,4.5132,4.4847,4.4811,4.4811,4.4811,4.4792,4.4774,4.482,4.5223,4.5333,4.5333,4.5333,4.5333,4.5223,4.4838,4.4774,4.4774,4.4756,4.4756,4.4737,4.4719,4.4719,4.4719,4.4719,4.4719,4.4719,4.4719,4.4719,4.4168,4.2644,4.2399,4.2399,4.2399,4.2399,4.2399,4.2399,4.2399,4.2399,4.2399,4.2791,4.2993,4.2993,4.3746,4.4123,4.4123,4.4517,4.4719,4.4719,4.4719,4.4719,4.4756,4.4774,4.5271,3.6523,3.7065,3.7587,3.9562,3.9235,3.8923,4.0817,4.162,4.1846,4.1316,4.0692,4.0019,3.9373,3.9667,4.035,4.1268,4.2865,4.4251,4.5168,4.5553,4.559,4.5187,4.5132,4.493,4.4416,4.4517,4.4746,4.526,4.5003,4.515,4.5847,4.5883,4.603,4.6324,4.6048,4.603,4.6324,4.6324,4.6489,4.68,4.68,4.68,4.68,4.691,4.6947,4.6947,4.7057,4.7112,4.713,4.7424,4.7369,4.713,4.7424,4.7369,4.7112,4.7112,4.7112,4.7057,4.6745,4.658,4.6434,4.6122,4.6059,4.6004,4.5663,4.5572,4.5608,4.57,4.5737,4.5737,4.5737,4.5737,4.5718,4.5608,4.5572,4.5498,4.5205,4.5132,4.5058,4.4774,4.4719,4.4719,4.4719,4.4719,4.4719,4.4719,4.4719,4.4572,4.415,4.4113,4.4113,4.4113,4.4113,4.4113,4.4113,4.4113,4.4113,4.4113,4.4205,4.426,4.426,4.4462,4.4572,4.4572,4.4664,4.4719,4.4719,4.4719,4.5022,4.5705,4.6048,4.6654,3.7644,3.7499,3.7241,3.8709,3.7964,3.7403,3.916,4.007,4.0296,3.9514,3.8915,3.8438,3.8124,3.8621,3.9469,4.0644,4.2491,4.4178,4.5168,4.5498,4.5553,4.5333,4.5297,4.5132,4.4756,4.4838,4.504,4.5278,4.5077,4.5297,4.6103,4.614,4.6324,4.6745,4.6544,4.6525,4.6745,4.6764,4.6874,4.7112,4.7112,4.7112,4.7112,4.7295,4.7369,4.7369,4.7552,4.7626,4.7644,4.7864,4.7827,4.7644,4.7864,4.7827,4.7626,4.7626,4.7626,4.7626,4.7626,4.7626,4.7534,4.6947,4.6764,4.6709,4.6489,4.6434,4.6434,4.6434,4.6434,4.6434,4.6434,4.6434,4.6434,4.6434,4.6287,4.6085,4.5865,4.5682,4.5498,4.526,4.5205,4.5205,4.5205,4.5205,4.5205,4.5205,4.5205,4.5205,4.5205,4.4939,4.4719,4.4719,4.4719,4.4719,4.4719,4.4719,4.4719,4.4719,4.4719,4.4719,4.4719,4.4856,4.4948,4.4948,4.5159,4.5297,4.5508,4.5508,4.5822,4.6463,4.6969,4.7572,3.8194,3.7297,3.619,3.712,3.5841,3.4682,3.5891,3.7027,3.7566,3.6716,3.6628,3.6841,3.7244,3.7666,3.8585,4.0387,4.2252,4.394,4.5205,4.5388,4.5388,4.5388,4.5388,4.526,4.4994,4.5242,4.548,4.5535,4.5254,4.551,4.6434,4.6525,4.6727,4.7094,4.7149,4.7185,4.7185,4.7185,4.7222,4.7259,4.7259,4.7259,4.7277,4.7607,4.7772,4.7791,4.8139,4.8286,4.8286,4.8286,4.8286,4.8286,4.8286,4.8286,4.8286,4.8286,4.8286,4.8286,4.8286,4.8286,4.8157,4.7424,4.7185,4.7185,4.713,4.7112,4.7112,4.7112,4.7112,4.7112,4.7112,4.7112,4.7112,4.7112,4.6837,4.6562,4.6562,4.6287,4.6048,4.6048,4.6048,4.6048,4.6048,4.6048,4.603,4.5975,4.5975,4.5957,4.5902,4.5278,4.4884,4.4884,4.4884,4.4902,4.4958,4.4958,4.4976,4.5031,4.5049,4.5049,4.5049,4.5352,4.5535,4.5535,4.5883,4.6261,4.6705,4.6705,4.6937,4.745,4.7969,4.8487,4.0051,3.879,3.727,4.0887,4.0111,3.8825,4.0274,4.0,3.9146,3.7924,3.6962,3.6439,3.6823,3.7482,3.8768,4.1097,4.2619,4.4031,4.5572,4.5792,4.5792,4.5792,4.5792,4.5883,4.614,4.6232,4.6415,4.6764,4.5089,4.4742,4.6393,4.68,4.7039,4.7112,4.7424,4.7589,4.7589,4.7589,4.7754,4.8084,4.8084,4.8084,4.8084,4.8157,4.8176,4.8194,4.8249,4.8286,4.8286,4.8286,4.8286,4.8286,4.8286,4.8286,4.8286,4.8286,4.8286,4.8286,4.8286,4.8286,4.8212,4.7736,4.7589,4.7534,4.7204,4.7112,4.7112,4.7112,4.7112,4.7112,4.7112,4.7112,4.7112,4.7112,4.7057,4.7002,4.7002,4.6947,4.6892,4.6892,4.6892,4.6892,4.6892,4.6892,4.6782,4.6434,4.6379,4.625,4.5938,4.5773,4.5682,4.5682,4.5682,4.581,4.614,4.6206,4.6305,4.6654,4.669,4.669,4.669,4.6764,4.68,4.68,4.6855,4.7169,4.7657,4.7657,4.8126,4.9015,4.9474,5.0156,3.733,3.7672,3.7598,3.8615,3.8424,3.82,3.8751,3.8046,3.7084,3.6562,3.5962,3.5614,3.5815,3.6841,3.8197,3.985,4.1299,4.2975,4.4966,4.5306,4.5572,4.6415,4.5532,4.5346,4.6686,4.4719,4.3944,4.5275,4.3517,4.3798,4.6967,4.7497,4.7717,4.7717,4.7901,4.745,4.6325,4.7432,4.7541,4.659,4.7772,4.8286,4.8286,4.8286,4.8286,4.8286,4.8286,4.8286,4.8286,4.8286,4.8286,4.8286,4.8286,4.8286,4.8286,4.8286,4.8286,4.8286,4.8286,4.8286,4.8249,4.8066,4.7992,4.7974,4.7772,4.7717,4.7717,4.7717,4.7717,4.7717,4.7717,4.7717,4.7717,4.7717,4.7552,4.7351,4.7149,4.7112,4.7112,4.7112,4.7112,4.7112,4.7112,4.7112,4.7039,4.6837,4.68,4.6745,4.6544,4.6525,4.6434,4.6213,4.6397,4.6599,4.6782,4.68,4.6892,4.7094,4.7112,4.7112,4.7112,4.7112,4.7112,4.7112,4.7112,4.7446,4.823,4.8435,4.9049,5.0007,5.0722,5.1275,3.4968,3.6729,3.7851,3.616,3.6205,3.6595,3.6366,3.5196,3.4329,3.4903,3.4666,3.4559,3.5156,3.6347,3.7495,3.8196,3.948,4.107,4.3023,4.3748,4.4399,4.5369,4.4418,4.4194,4.5585,4.2625,4.1382,4.3221,4.2022,4.2738,4.6246,4.6697,4.6908,4.6908,4.6908,4.604,4.4296,4.649,4.6708,4.5019,4.7256,4.8286,4.8286,4.8286,4.8286,4.8286,4.8286,4.8286,4.8286,4.8286,4.8286,4.8286,4.8286,4.8286,4.8286,4.8286,4.8341,4.8414,4.8414,4.8469,4.8543,4.8543,4.8432,4.8286,4.8286,4.8286,4.8286,4.8286,4.8286,4.8286,4.8286,4.8286,4.8286,4.8286,4.8047,4.7736,4.7424,4.7351,4.7351,4.7351,4.7351,4.7351,4.7351,4.7351,4.7332,4.724,4.724,4.7204,4.7112,4.7185,4.713,4.6892,4.7002,4.713,4.7222,4.724,4.7277,4.7351,4.7351,4.7351,4.7351,4.7351,4.7406,4.7497,4.7595,4.812,4.9068,4.9484,5.015,5.0988,5.1712,5.2124,3.7071,3.8103,3.8434,3.7898,3.7107,3.6491,3.6324,3.4156,3.2704,3.4612,3.3607,3.312,3.5631,3.6493,3.6963,3.7281,3.7743,3.8304,3.8833,4.0596,4.1437,4.0465,4.2104,4.2731,4.142,4.1126,4.1293,4.1831,4.1741,4.1808,4.2217,4.23,4.2316,4.2316,4.2316,4.2214,4.201,4.4195,4.522,4.5019,4.7256,4.8286,4.8286,4.8286,4.8286,4.8286,4.8286,4.8286,4.8286,4.8286,4.8286,4.8286,4.8286,4.8286,4.8286,4.8286,4.8524,4.8854,4.8854,4.9093,4.9386,4.9386,4.8891,4.8286,4.8286,4.8286,4.8286,4.8286,4.8286,4.8286,4.8286,4.8286,4.8286,4.8286,4.8249,4.8212,4.8176,4.8176,4.8176,4.8176,4.8176,4.8176,4.8176,4.8176,4.8047,4.7699,4.7644,4.7516,4.7149,4.7424,4.7772,4.8084,4.7516,4.7259,4.7607,4.7644,4.7791,4.8157,4.8176,4.8176,4.8176,4.8176,4.8359,4.8744,4.9225,4.991,5.0893,5.1381,5.192,5.2507,5.2596,5.286,3.4221,3.592,3.6709,3.515,3.4978,3.4756,3.3133,3.1604,3.0769,3.1632,3.1496,3.1815,3.3693,3.4551,3.5012,3.514,3.5469,3.6027,3.6696,3.7525,3.8588,3.9931,3.9742,3.9986,4.1211,3.9016,3.7627,3.7809,3.7809,3.7809,3.7809,4.0265,4.1703,4.1703,4.1703,4.1088,3.9801,4.3283,4.4346,4.308,4.659,4.8286,4.8286,4.8286,4.8286,4.8286,4.8286,4.8286,4.8286,4.8286,4.8286,4.8286,4.8286,4.8286,4.8286,4.8286,4.8396,4.8579,4.8818,4.9019,4.9184,4.9423,4.9276,4.8964,4.8726,4.8836,4.8964,4.8726,4.8836,4.8964,4.8726,4.8469,4.8286,4.8286,4.8286,4.8286,4.8286,4.8487,4.8653,4.8653,4.8854,4.9019,4.9019,4.9019,4.8964,4.8799,4.8781,4.8726,4.8579,4.8689,4.8836,4.9001,4.8524,4.8359,4.8744,4.8781,4.8854,4.9001,4.9019,4.9019,4.9019,4.9019,4.9093,4.9258,4.946,5.0088,5.1113,5.1612,5.2301,5.3105,5.3379,5.3594,3.2203,3.4297,3.5641,3.3211,3.2924,3.2758,3.0848,2.9549,2.8989,2.9737,2.9874,3.0369,3.1944,3.2596,3.2835,3.2501,3.2867,3.3299,3.3748,3.4455,3.5625,3.7368,3.687,3.713,3.8968,3.6772,3.5191,3.5191,3.5191,3.5191,3.5191,3.8121,3.9765,3.9765,4.042,4.0008,3.8522,4.2809,4.4195,4.2724,4.649,4.8286,4.8286,4.8286,4.8286,4.8286,4.8286,4.8286,4.8286,4.8286,4.8286,4.8286,4.8286,4.8286,4.8286,4.8286,4.8359,4.8524,4.8946,4.9166,4.9331,4.9735,4.9863,4.979,4.9386,4.9386,4.9441,4.9166,4.9294,4.9441,4.9166,4.8873,4.8634,4.8634,4.8634,4.8634,4.8634,4.8873,4.9093,4.9093,4.9313,4.9496,4.9496,4.9496,4.9496,4.9496,4.9496,4.9496,4.9496,4.9496,4.9551,4.968,4.9441,4.9331,4.9496,4.9496,4.9496,4.9496,4.9496,4.9496,4.9496,4.9648,4.9805,4.9934,5.0239,5.0853,5.1726,5.2183,5.2903,5.3801,5.4082,5.4297,3.2259,3.4234,3.5866,3.3266,3.1711,3.0768,3.0452,2.8535,2.7473,2.9816,2.9091,2.8686,3.0905,3.109,3.0557,2.9537,2.9866,2.9979,2.9171,3.1362,3.2508,3.1064,3.3204,3.4368,3.3202,3.4387,3.5191,3.5191,3.5191,3.5191,3.5191,3.5243,3.5243,3.5243,3.7391,3.8522,3.8522,4.2809,4.4968,4.5019,4.7207,4.8286,4.8286,4.8286,4.8286,4.8286,4.8286,4.8286,4.8286,4.8286,4.8286,4.8286,4.8286,4.8286,4.8286,4.8286,4.8543,4.8964,4.9349,4.9771,5.0123,5.0578,5.0706,5.0633,5.0178,4.9826,4.9496,4.9496,4.9496,4.9496,4.9496,4.9496,4.9496,4.9496,4.9496,4.9496,4.9496,4.9496,4.9496,4.9496,4.9496,4.9496,4.9496,4.9496,4.9496,4.9496,4.9496,4.9496,4.9496,4.9496,4.9661,5.0032,5.0068,4.9955,4.9533,4.9496,4.9496,4.9496,4.9496,4.9496,4.9496,5.0022,5.0461,5.0852,5.1993,5.2762,5.3166,5.3697,5.4238,5.4668,5.4668,5.4902,3.0501,3.1452,3.231,3.1074,3.0474,2.9914,2.8809,2.7946,2.7392,2.7372,2.7108,2.7809,3.0753,3.0137,2.9639,3.1047,3.0311,2.9365,2.8791,2.9801,3.0729,3.1062,3.3075,3.441,3.4251,3.4803,3.5191,3.5191,3.5191,3.5191,3.5191,3.5191,3.5191,3.5191,3.7339,3.8522,3.8522,4.2809,4.5019,4.5019,4.7256,4.8286,4.8286,4.8286,4.8286,4.8286,4.8286,4.8286,4.8286,4.8286,4.8286,4.8286,4.8286,4.8286,4.8286,4.8286,4.8359,4.8543,4.8964,4.9368,4.9771,5.0175,5.0505,5.0706,5.0578,5.0431,5.034,5.034,5.0138,4.9936,4.9936,4.9716,4.9496,4.9496,4.9496,4.9496,4.9496,4.9735,4.9936,4.9936,5.0156,5.034,5.034,5.034,5.034,5.034,5.034,5.034,5.034,5.034,5.0395,5.0523,5.0541,5.0486,5.034,5.034,5.034,5.034,5.034,5.045,5.0725,5.0899,5.1344,5.2189,5.2556,5.3187,5.4103,5.4259,5.4597,5.5117,5.5117,5.5176,3.0866,3.1357,3.1473,3.1146,3.0311,2.9215,2.7989,2.7522,2.7094,2.6198,2.6145,2.7102,2.9859,2.8706,2.813,3.0556,2.9605,2.8448,2.8157,2.8898,2.9913,3.1042,3.2666,3.3855,3.4441,3.4897,3.5191,3.5191,3.5191,3.5191,3.5191,3.5191,3.5191,3.5191,3.7339,3.8885,3.9698,4.3232,4.5421,4.624,4.7623,4.8286,4.8286,4.8286,4.8286,4.8286,4.8286,4.8286,0.0,4.8451,4.8524,4.8543,4.8689,4.8744,4.8726,4.8579,4.8524,4.8561,4.8818,4.9166,4.9569,4.9991,5.0343,5.0725,5.0725,5.0725,5.0725,5.0725,5.0541,5.0306,5.0306,5.0156,4.9955,4.9955,4.9955,4.9955,4.9955,5.0175,5.0306,5.0306,5.056,5.0725,5.0725,5.0725,5.0725,5.0725,5.0725,5.0725,5.0725,5.0725,5.078,5.0927,5.0945,5.1,5.1165,5.089,5.078,5.0927,5.0945,5.1233,5.1849,5.206,5.2559,5.3402,5.3613,5.4087,5.4822,5.4924,5.5212,5.5547,5.5723,5.5781,0.0,3.3146,3.242,3.2658,3.0779,2.8641,2.7802,2.7201,0.0,2.6261,2.6089,2.6676,2.8837,2.7193,2.6359,2.889,2.8151,2.7336,2.7486,2.8663,2.9967,3.1162,3.2118,3.3022,3.3841,3.4696,3.5191,3.5164,3.5191,3.5191,3.5164,3.5191,3.5191,3.5191,3.7339,3.9543,4.1703,4.4043,4.6291,4.8286,4.8286,4.8286,4.8286,4.8286,4.8286,4.8286,4.8286,4.8286,4.8322,4.8744,4.8909,4.8946,4.9349,4.9496,4.9459,4.9056,4.8909,4.8909,4.8909,4.9166,4.9569,4.9977,5.0413,5.0725,5.0725,5.0725,5.0725,5.0725,5.0725,5.0725,5.0725,5.0725,5.0725,5.0725,5.0725,5.0725,5.0725,5.0743,5.0761,5.0761,5.078,5.0798,5.0798,5.078,5.078,5.0798,5.078,5.078,5.0798,5.0798,5.0945,5.1312,5.1348,5.1513,5.1952,5.1238,5.0963,5.1383,5.1401,5.1849,5.2857,5.3387,5.3915,5.4585,5.5129,5.539,5.539,5.5781,5.5924,5.5943,5.6406,5.6582,3.3111,0.0,2.8441,2.9454,2.8714,2.7509,0.0,2.676,2.6999,2.7709,2.7003,2.7614,3.1874,2.8735,2.7213,3.2394,2.9699,2.7513,2.9259,2.9678,3.0501,3.2345,3.316,3.3748,3.4175,3.4817,3.5097,3.4936,3.507,3.5097,3.487,3.5084,3.5191,3.5191,3.7339,3.9543,4.1703,4.5572,4.7772,4.8286,4.8286,4.8286,4.8286,4.8286,4.8286,4.8286,4.8286,4.8286,4.8322,4.8744,4.8909,4.8946,4.9349,4.9496,4.9459,4.9056,4.8909,4.8909,4.8909,4.9166,4.9624,5.034,5.0651,5.0725,5.0725,5.0725,5.0725,5.0725,5.0725,5.0725,5.0725,5.0725,5.0725,5.0725,5.0725,5.0725,5.0725,5.0963,5.1165,5.1165,5.144,5.1607,5.1607,5.1385,5.1275,5.1552,5.1385,5.1293,5.1552,5.1607,5.1625,5.1735,5.1735,5.1985,5.2555,5.1964,5.1856,5.2406,5.2478,5.291,5.3908,5.4086,5.4558,5.5417,5.6023,5.6289,5.6289,5.6387,5.6426,5.6445,5.6543,5.6582,3.1035,2.9854,2.8147,2.9033,2.8042,2.6814,2.6627,2.6507,2.6636,2.7332,2.6824,2.7487,3.1609,2.8608,2.7115,3.2013,2.9316,2.7432,2.9732,3.0209,3.1036,3.2959,3.3601,3.4002,3.4295,3.4857,3.5084,3.4842,3.503,3.5124,3.4963,3.511,3.5191,3.5191,3.8329,4.0523,4.1703,4.5069,4.7306,4.8286,4.8286,4.8286,4.8286,4.8286,4.8396,4.8561,4.8359,4.8396,4.8598,4.9019,4.9184,4.9239,4.9826,5.0065,5.001,4.9624,4.9478,4.9441,4.9258,4.9459,4.99,5.0523,5.0725,5.0725,5.0725,5.0725,5.0725,5.0725,5.0725,5.0725,5.0725,5.0725,5.0725,5.0725,5.0725,5.0761,5.0945,5.1165,5.1367,5.1568,5.1735,5.1882,5.1882,5.1699,5.1678,5.1845,5.168,5.1625,5.1845,5.1882,5.1955,5.2138,5.221,5.2391,5.2897,5.2916,5.3056,5.3438,5.3206,5.366,5.4878,5.4951,5.5333,5.61,5.6421,5.6582,5.6582,5.6582,5.6582,5.6582,5.6582,5.6582,2.842,2.8995,2.8979,2.9387,2.7911,2.636,2.652,2.6213,2.6062,2.6485,2.622,2.6923,3.0133,2.7926,2.6753,3.0342,2.8788,2.7824,2.9905,3.0568,3.1517,3.3244,3.3774,3.4068,3.4362,3.4883,3.5084,3.4842,3.503,3.5177,3.5137,3.5177,3.5191,3.5191,3.9455,4.1703,4.1703,4.4245,4.6441,4.8286,4.8286,4.8286,4.8286,4.8359,4.8543,4.8799,4.8506,4.8543,4.8854,4.9239,4.9441,4.9569,5.034,5.067,5.067,5.0233,5.0087,5.0032,4.9716,4.9863,5.0233,5.0615,5.0725,5.0725,5.0725,5.0725,5.0725,5.0725,5.0725,5.0743,5.0798,5.0817,5.0835,5.089,5.0908,5.1,5.133,5.1458,5.1605,5.19,5.2028,5.2065,5.2065,5.201,5.1992,5.2047,5.201,5.1992,5.2065,5.2065,5.2193,5.2577,5.2668,5.2923,5.3363,5.3909,5.4355,5.4619,5.4065,5.4377,5.5759,5.5832,5.61,5.6582,5.6582,5.6582,5.6582,5.664,5.668,5.668,5.6758,5.6777,2.8317,2.7937,2.6987,2.7615,2.6934,2.5944,2.5451,2.5464,2.59,2.7087,2.6398,2.6673,3.02,2.8153,2.7251,3.1324,3.1055,3.0608,3.1335,3.1263,3.1824,3.3601,3.4082,3.4376,3.467,3.5004,3.5084,3.4842,3.503,3.5084,3.4895,3.5057,3.5191,3.5191,3.9455,4.1703,4.1703,4.5722,4.797,4.8286,4.8286,4.8286,4.8286,4.8653,4.8653,4.8396,4.8689,4.8653,4.8414,4.8836,4.9203,4.9551,5.0028,5.0431,5.067,5.0233,5.0087,5.0068,5.0013,5.0251,5.0633,5.0706,5.0725,5.0725,5.0725,5.0725,5.0725,5.0725,5.0725,5.0798,5.1128,5.122,5.1312,5.1607,5.1699,5.1717,5.1772,5.21,5.2357,5.243,5.2705,5.2925,5.2925,5.265,5.254,5.2889,5.265,5.2505,5.2889,5.2925,5.2962,5.3017,5.347,5.3995,5.4593,5.5041,5.5529,5.6203,5.5682,5.5701,5.6421,5.6475,5.6528,5.6582,5.6582,5.6582,5.6582,5.6933,5.7109,5.7129,5.75,5.7711,2.6347,2.6156,2.5844,2.6475,2.6446,2.6158,2.5891,2.5772,2.599,2.6759,2.6298,2.6504,2.8993,2.7955,2.7526,3.0063,3.0623,3.0863,3.1343,3.1583,3.2238,3.3708,3.4148,3.4376,3.4509,3.479,3.4843,3.4549,3.4643,3.4736,3.4815,3.4949,3.503,3.5191,3.8329,4.0523,4.1703,4.4918,4.7107,4.8286,4.8286,4.8286,4.8286,4.8487,4.8598,4.8616,4.8579,4.8598,4.8653,4.9056,4.9331,4.9569,5.0193,5.056,5.0706,5.0523,5.0398,5.0398,5.0398,5.0578,5.0725,5.0725,5.0725,5.0725,5.0725,5.0872,5.1037,5.1037,5.1037,5.1073,5.1257,5.1477,5.1697,5.1845,5.1882,5.1937,5.2157,5.234,5.2541,5.2797,5.2999,5.3109,5.3109,5.2962,5.2907,5.3091,5.2962,5.2907,5.3091,5.3399,5.3563,5.3563,5.4124,5.4612,5.4882,5.5587,5.6215,5.6778,5.6619,5.6762,5.7265,5.7285,5.7285,5.7285,5.7285,5.7285,5.7285,5.7461,5.7558,5.7558,5.7808,5.7926,2.497,2.5064,2.5344,2.6038,2.6265,2.6346,2.6547,2.6412,2.6279,2.6533,2.6346,2.6456,2.7625,2.7726,2.7949,2.9015,3.0047,3.0922,3.145,3.1984,3.2706,3.3761,3.4082,3.4242,3.4309,3.4523,3.4563,3.4336,3.4322,3.4456,3.4802,3.4815,3.4897,3.5191,3.7809,4.0059,4.1703,4.4397,4.659,4.8286,4.8286,4.8286,4.8286,4.8396,4.8561,4.8763,4.8524,4.8561,4.8781,4.9093,4.9276,4.9441,5.0156,5.0541,5.0725,5.0725,5.0725,5.0725,5.0725,5.0725,5.0725,5.0725,5.0725,5.0725,5.0725,5.1,5.1312,5.1312,5.144,5.1587,5.1587,5.1843,5.2047,5.2138,5.2157,5.2302,5.2541,5.2669,5.2742,5.3054,5.3109,5.3109,5.3109,5.3109,5.3109,5.3109,5.3236,5.3291,5.3291,5.3853,5.4233,5.4233,5.472,5.519,5.5447,5.6113,5.675,5.7156,5.7146,5.7305,5.7851,5.7808,5.7808,5.7926,5.7926,5.7926,5.7926,5.7969,5.7969,5.7926,5.8086,5.8102,2.5757,2.5678,2.5692,2.6547,2.6373,2.6238,2.7055,2.6974,2.6841,2.7188,2.6747,2.6479,2.6827,2.7805,2.8804,2.97,3.0822,3.1831,3.242,3.2768,3.316,3.3814,3.3908,3.4028,3.4295,3.4336,3.4349,3.4322,3.4322,3.4456,3.4802,3.4815,3.4897,3.5191,3.93,4.1549,4.1703,4.594,4.8137,4.8286,4.8286,4.8286,4.8304,4.8689,4.8671,4.8341,4.8708,4.8653,4.8341,4.8359,4.8598,4.9001,4.9423,5.0046,5.0725,5.0725,5.0725,5.0725,5.0725,5.0725,5.0725,5.0725,5.0725,5.0725,5.0725,5.1,5.1312,5.1312,5.1862,5.243,5.243,5.2467,5.2577,5.2944,5.3035,5.3035,5.3072,5.3072,5.3091,5.3109,5.3109,5.3109,5.3109,5.3109,5.3109,5.3109,5.3563,5.3961,5.3961,5.4449,5.4828,5.4828,5.5294,5.604,5.6967,5.7079,5.7348,5.7777,5.709,5.7012,5.7867,5.748,5.7441,5.7906,5.7926,5.7926,5.7926,5.8262,5.8262,5.7926,5.8711,5.8652,2.5382,2.5464,2.5718,2.656,2.6934,2.7215,2.7737,2.7869,2.8016,2.831,2.819,2.8123,2.8417,2.8991,2.9646,3.0354,3.1597,3.2554,3.2581,3.2848,3.32,3.3814,3.3881,3.4002,3.4295,3.4162,3.4055,3.4055,3.4055,3.4175,3.4469,3.467,3.4897,3.5191,3.8376,4.0743,4.2072,4.5346,4.7689,4.9038,4.8524,4.8286,4.8286,4.8451,4.8432,4.8286,4.8451,4.8579,4.8671,4.8671,4.9074,4.9716,5.0101,5.045,5.0725,5.0725,5.0725,5.0725,5.0725,5.0725,5.0725,5.0725,5.0725,5.0725,5.0725,5.1183,5.1644,5.1644,5.2284,5.2834,5.2541,5.2705,5.2925,5.3072,5.3109,5.3109,5.3109,5.3109,5.3109,5.3109,5.3109,5.3109,5.3109,5.3109,5.3218,5.3617,5.3853,5.4124,5.4503,5.5326,5.5708,5.544,5.5886,5.6489,5.7114,5.6973,5.7246,5.8203,5.7969,5.7949,5.8262,5.8379,5.8551,5.8727,5.8727,5.8727,5.8727,5.8848,5.8848,5.8727,5.9079,5.8903,2.5104,2.5157,2.5464,2.644,2.7054,2.7642,2.8553,2.8938,2.9245,2.9495,2.9335,2.9245,2.9446,2.9793,3.0194,3.0595,3.1957,3.2929,3.2634,3.2929,3.3267,3.3681,3.3734,3.3814,3.4015,3.3948,3.3881,3.3881,3.3975,3.4148,3.4442,3.4708,3.4897,3.5191,3.8387,4.0823,4.2314,4.56,4.7982,4.9496,4.8928,4.8598,4.8487,4.8341,4.8286,4.8286,4.8286,4.8451,4.8708,4.8708,4.9203,4.9973,5.0325,5.0615,5.0725,5.0725,5.0725,5.0725,5.0725,5.0725,5.0725,5.0725,5.0725,5.0725,5.0725,5.1241,5.1882,5.1882,5.2504,5.3054,5.2779,5.2907,5.3109,5.3109,5.3109,5.3109,5.3109,5.3109,5.3109,5.3109,5.3109,5.3109,5.3109,5.3109,5.3236,5.3671,5.3907,5.427,5.4998,5.5861,5.6352,5.6171,5.6563,5.6894,5.7187,5.707,5.7363,5.8262,5.8594,5.8711,5.8711,5.8887,5.9062,5.918,5.918,5.918,5.918,5.918,5.9121,5.9004,5.9121,5.8887,2.5157,2.4863,2.4893,2.6106,2.6613,2.7347,2.9459,3.0154,3.0493,3.0755,3.0114,2.9499,2.9499,3.0012,3.0413,3.0413,3.1885,3.2929,3.2634,3.3053,3.3414,3.3414,3.3414,3.3414,3.3414,3.3694,3.3881,3.3881,3.4162,3.4456,3.4802,3.4815,3.4949,3.5243,3.9874,4.2434,4.2434,4.7123,4.9514,4.9514,4.9514,4.9294,4.8909,4.8487,4.8286,4.8286,4.8286,4.8286,4.8286,4.8286,4.8763,4.9551,4.9922,5.0376,5.0725,5.0725,5.0725,5.0725,5.0725,5.0725,5.0725,5.0725,5.0725,5.0725,5.0725,5.1241,5.1882,5.1882,5.2504,5.3109,5.3109,5.3109,5.3109,5.3109,5.3109,5.3109,5.3109,5.3109,5.3109,5.3109,5.3109,5.3109,5.3127,5.3127,5.3127,5.3127,5.3636,5.4401,5.5414,5.6052,5.6631,5.7172,5.7226,5.7226,5.7226,5.7617,5.7926,5.7926,5.8727,5.918,5.918,5.8769,5.8714,5.918,5.918,5.918,5.918,5.918,5.8945,5.8535,5.9004,5.873,2.5157,2.5355,2.5745,2.6507,2.7507,2.8721,3.0207,3.0595,3.0915,3.1885,3.1216,3.0474,3.0675,3.0688,3.0728,3.0942,3.2104,3.2946,3.2915,3.3173,3.3414,3.3414,3.3414,3.3414,3.3414,3.3694,3.3881,3.3881,3.4349,3.4721,3.4815,3.4963,3.5819,3.7444,4.0974,4.353,4.505,4.8584,5.0358,5.0358,5.0083,4.9735,4.9331,4.9203,4.8983,4.8726,4.8726,4.8726,4.8744,4.9019,4.9276,4.9551,4.9922,5.0376,5.0725,5.0725,5.0725,5.0725,5.0725,5.0725,5.0725,5.0725,5.0725,5.0725,5.0725,5.1241,5.1882,5.1882,5.2504,5.3109,5.3109,5.3109,5.3109,5.3109,5.3109,5.3109,5.3109,5.3109,5.3109,5.3109,5.3109,5.3219,5.3494,5.3531,5.3751,5.4468,5.5075,5.6014,5.7426,5.7523,5.7629,5.807,5.7851,5.7676,5.7676,5.7793,5.8043,5.8301,5.8538,5.8711,5.8711,5.8887,5.9062,5.918,5.918,5.918,5.918,5.918,5.9121,5.9004,5.9121,5.8887,2.5489,2.581,2.6359,2.7148,2.8203,2.9388,3.0969,3.141,3.1764,3.2594,3.1971,3.137,3.1543,3.153,3.1476,3.141,3.2385,3.3106,3.2986,3.3227,3.3414,3.3414,3.3521,3.3601,3.3601,3.3988,3.4282,3.4402,3.4843,3.5164,3.5324,3.5444,3.6518,3.8608,4.1581,4.4136,4.62,4.9198,5.0725,5.0706,5.0435,5.023,4.9973,4.9643,4.9294,4.8909,4.8726,4.8653,4.8689,4.9111,4.9368,4.9551,4.9922,5.0376,5.0725,5.0725,5.0725,5.0725,5.0725,5.0725,5.0725,5.0725,5.0725,5.0725,5.0725,5.1241,5.1882,5.1882,5.2504,5.3109,5.3109,5.3109,5.3109,5.3109,5.3109,5.3109,5.3109,5.3109,5.3109,5.3109,5.3109,5.3237,5.3731,5.3971,5.4357,5.5186,5.6151,5.7064,5.807,5.8327,5.8437,5.848,5.8301,5.8144,5.8144,5.8144,5.832,5.8769,5.8769,5.8769,5.8769,5.9062,5.918,5.918,5.918,5.918,5.918,5.918,5.918,5.918,5.918,5.9062,2.5957,2.6279,2.68,2.8045,2.8831,2.9802,3.1717,3.2447,3.2755,3.3009,3.2572,3.2185,3.2185,3.2433,3.2433,3.1912,3.2679,3.3293,3.3053,3.324,3.3414,3.3414,3.3694,3.3881,3.3881,3.4494,3.4962,3.5177,3.5485,3.5792,3.6059,3.6072,3.704,3.9111,4.1928,4.4401,4.6475,4.9302,5.0725,5.0725,5.0725,5.0725,5.0688,4.9955,4.9386,4.8946,4.8487,4.8286,4.8322,4.8744,4.9148,4.9551,4.9922,5.0376,5.0725,5.0725,5.0725,5.0725,5.0725,5.0725,5.0725,5.0725,5.0725,5.0725,5.0761,5.1259,5.1882,5.1919,5.254,5.3109,5.3109,5.3109,5.3109,5.3109,5.3109,5.3109,5.3109,5.3109,5.3109,5.3163,5.3163,5.3418,5.4017,5.448,5.498,5.5658,5.6891,5.7798,5.7798,5.8628,5.9023,5.8597,5.8538,5.8538,5.8538,5.8538,5.8714,5.9121,5.918,5.918,5.9121,5.918,5.918,5.918,5.918,5.918,5.918,5.918,5.918,5.918,5.918,5.918,2.6252,2.6841,2.7762,2.9179,3.0675,3.1952,3.2393,3.2853,3.324,3.3307,3.304,3.2786,3.2786,3.2701,3.2621,3.2728,3.2906,3.3133,3.3293,3.3374,3.3414,3.3414,3.3694,3.3881,3.3881,3.4629,3.5124,3.5191,3.5685,3.6006,3.6126,3.6072,3.7775,4.1412,4.2735,4.5135,4.8766,5.0045,5.0725,5.0725,5.0725,5.0725,5.0706,5.0541,5.0065,4.9331,4.8598,4.8286,4.8322,4.8744,4.9148,4.9551,4.9922,5.0376,5.0725,5.0725,5.0725,5.0725,5.0725,5.0725,5.0725,5.0725,5.0725,5.078,5.1092,5.1479,5.1955,5.2267,5.2742,5.3109,5.3109,5.3109,5.3109,5.3109,5.3109,5.3109,5.3109,5.3109,5.3236,5.3744,5.3799,5.4109,5.5026,5.5477,5.6207,5.7521,5.7977,5.8334,5.882,5.9046,5.9177,5.9062,5.9062,5.9062,5.9062,5.9062,5.8945,5.8655,5.9004,5.9004,5.8655,5.9004,5.918,5.918,5.918,5.918,5.918,5.918,5.918,5.918,5.918,5.918,2.6787,2.7562,2.8591,3.0488,3.1864,3.2875,3.3169,3.3427,3.3641,3.3641,3.34,3.3146,3.3,3.3143,3.3196,3.3,3.3227,3.3414,3.3414,3.3414,3.3414,3.3414,3.3814,3.4148,3.4282,3.4963,3.5525,3.5805,3.6112,3.634,3.6473,3.755,3.9543,4.2561,4.4337,4.673,4.9757,5.0413,5.0725,5.0725,5.0725,5.0725,5.0706,5.0523,5.0101,4.9478,4.8854,4.8469,4.8322,4.8744,4.9148,4.9551,4.9922,5.0376,5.0725,5.0725,5.0725,5.0725,5.0725,5.0725,5.0725,5.0725,5.0853,5.1037,5.1238,5.1733,5.2212,5.2467,5.2815,5.3109,5.3109,5.3109,5.3109,5.3109,5.3109,5.3163,5.3454,5.3508,5.3726,5.4287,5.4449,5.4744,5.5739,5.6678,5.7569,5.8579,5.8751,5.8844,5.918,5.918,5.918,5.918,5.918,5.918,5.918,5.9004,5.8887,5.8828,5.8831,5.8887,5.8828,5.9062,5.918,5.918,5.918,5.918,5.918,5.918,5.918,5.918,5.918,5.918,2.7175,2.8283,2.9566,3.165,3.2625,3.3187,3.3694,3.3801,3.3828,3.3881,3.3681,3.34,3.3106,3.3507,3.3721,3.3213,3.3601,3.3868,3.3601,3.3574,3.3574,3.3574,3.4055,3.4509,3.4751,3.5311,3.5925,3.6473,3.654,3.6687,3.6885,3.9144,4.1271,4.3152,4.5895,4.8211,5.0087,5.0398,5.0651,5.0725,5.0725,5.0725,5.0706,5.0376,4.9973,4.9478,4.9074,4.8671,4.8322,4.8818,4.9258,4.9661,5.0065,5.0468,5.0817,5.0743,5.0725,5.0725,5.0725,5.0725,5.0725,5.0725,5.0982,5.133,5.1403,5.1935,5.2486,5.2614,5.287,5.3109,5.3218,5.3291,5.3291,5.3291,5.3345,5.3508,5.3907,5.407,5.4341,5.4936,5.5209,5.5635,5.6603,5.7717,5.8655,5.9121,5.918,5.918,5.918,5.918,5.918,5.918,5.918,5.918,5.918,5.8828,5.8769,5.9062,5.8772,5.8769,5.9062,5.9062,5.9062,5.9062,5.9062,5.9023,5.8965,5.9079,5.9062,5.9062,5.9177,5.918,2.664,2.8828,3.1129,3.226,3.2919,3.3374,3.3454,3.3467,3.3547,3.3828,3.3855,3.3721,3.3414,3.3641,3.3855,3.3774,3.4042,3.4242,3.4202,3.4202,3.4202,3.4202,3.4496,3.4817,3.511,3.5672,3.6153,3.6473,3.6727,3.6845,3.6885,3.9144,4.1271,4.3152,4.5895,4.8211,5.0087,5.0123,5.0376,5.0725,5.0725,5.0725,5.0725,5.067,5.023,4.9478,4.9074,4.8671,4.8341,4.9111,4.9661,5.0083,5.0486,5.089,5.1183,5.0853,5.0725,5.0725,5.0725,5.0725,5.0725,5.0725,5.0982,5.1385,5.168,5.212,5.2595,5.2944,5.3072,5.3236,5.3726,5.3907,5.3907,5.3907,5.4287,5.4558,5.4124,5.4395,5.4936,5.551,5.6283,5.7185,5.8038,5.8402,5.8655,5.9121,5.918,5.918,5.918,5.918,5.918,5.918,5.918,5.918,5.918,5.9121,5.8945,5.8597,5.8945,5.8945,5.8597,5.8594,5.8594,5.8594,5.8594,5.8418,5.8082,5.8418,5.8594,5.8597,5.9004,5.918,2.7094,2.9232,3.1236,3.2326,3.2986,3.3454,3.3641,3.3935,3.4162,3.4135,3.4255,3.4282,3.3975,3.4028,3.4122,3.4122,3.4376,3.4509,3.4349,3.4322,3.4322,3.4322,3.4589,3.4937,3.5391,3.5819,3.6259,3.6672,3.6805,3.7494,3.8788,4.1041,4.3194,4.5071,4.7565,4.9176,4.979,5.001,5.016,5.0343,5.0343,5.0343,5.0343,5.0615,5.0395,4.9845,4.968,4.9239,4.8708,4.9514,4.9826,4.9845,5.0468,5.0835,5.0963,5.078,5.0725,5.0725,5.0725,5.0725,5.0761,5.0982,5.133,5.168,5.2083,5.254,5.2889,5.3072,5.3109,5.3163,5.3454,5.3508,5.3508,5.3508,5.4129,5.4679,5.4406,5.4787,5.5443,5.627,5.6982,5.7682,5.8402,5.8711,5.8945,5.918,5.918,5.918,5.918,5.918,5.918,5.918,5.918,5.918,5.918,5.8945,5.8828,5.8887,5.8828,5.8828,5.8887,5.8887,5.8652,5.8144,5.8144,5.8086,5.7926,5.8301,5.848,5.8535,5.9004,5.918,2.7162,2.8874,3.0327,3.1698,3.2599,3.3267,3.3587,3.4175,3.4603,3.4469,3.4549,3.4629,3.4563,3.4482,3.4429,3.4429,3.4683,3.4803,3.4576,3.4549,3.4549,3.4549,3.4736,3.5097,3.5685,3.5939,3.6313,3.6845,3.6885,3.7881,4.0122,4.2419,4.4609,4.6626,4.8897,4.9973,4.9661,4.9771,4.9826,4.9826,4.9918,4.9973,4.9991,5.0343,5.0361,5.0087,5.0087,4.9716,4.9111,4.9716,4.99,4.9863,5.0376,5.0688,5.0853,5.0761,5.0725,5.0743,5.0835,5.0872,5.0927,5.133,5.1699,5.2083,5.243,5.2797,5.3109,5.3109,5.3109,5.3109,5.3291,5.3345,5.3363,5.3456,5.417,5.4924,5.5127,5.5585,5.6156,5.7181,5.7602,5.8039,5.858,5.8945,5.918,5.918,5.918,5.918,5.918,5.918,5.918,5.918,5.918,5.918,5.918,5.8887,5.8828,5.918,5.8887,5.8828,5.918,5.9062,5.8652,5.7926,5.7808,5.7637,5.7593,5.8086,5.8359,5.8359,5.8945,5.918,2.6066,2.7161,2.8283,3.0079,3.1591,3.2714,3.2959,3.3708,3.4416,3.4683,3.4523,3.4509,3.5044,3.4923,3.4788,3.4788,3.4977,3.5164,3.5151,3.5151,3.5151,3.5151,3.5164,3.5404,3.6046,3.6059,3.6313,3.6845,3.6885,3.7771,3.9732,4.1996,4.428,4.6609,4.8897,5.0068,5.005,4.9349,4.8983,4.8983,4.9349,4.9533,4.9551,4.9973,5.0105,5.0087,5.0087,4.9881,4.9478,4.9514,4.9973,5.0615,5.0233,5.0615,5.1238,5.0853,5.0725,5.078,5.1147,5.1275,5.1348,5.1717,5.212,5.245,5.2468,5.2797,5.3109,5.3109,5.3109,5.3218,5.3799,5.3961,5.4055,5.4446,5.5013,5.5692,5.6695,5.6901,5.7236,5.8252,5.846,5.8597,5.9062,5.918,5.918,5.918,5.918,5.918,5.918,5.918,5.918,5.918,5.918,5.918,5.918,5.918,5.918,5.918,5.918,5.918,5.918,5.8769,5.8359,5.7926,5.7461,5.7051,5.666,5.7554,5.791,5.7965,5.8789,5.918,2.5904,2.6787,2.7844,2.9406,3.0667,3.1644,3.2265,3.3253,3.4122,3.4416,3.4696,3.495,3.5151,3.4963,3.4882,3.5017,3.5284,3.5404,3.5217,3.5351,3.5404,3.5217,3.5191,3.5431,3.6019,3.6072,3.6233,3.662,3.6647,3.8136,4.1514,4.276,4.4939,4.8401,4.9562,5.001,4.9735,4.8909,4.8781,4.9294,4.9441,4.9643,4.9918,5.0321,5.0505,5.0505,5.0505,5.0285,4.9881,4.9606,4.9826,5.027,5.0141,5.0398,5.0908,5.078,5.0725,5.078,5.1165,5.1312,5.1422,5.21,5.2358,5.2577,5.2834,5.2999,5.3109,5.3109,5.3109,5.3163,5.3399,5.3638,5.4081,5.5135,5.5543,5.6119,5.7539,5.7276,5.7144,5.8179,5.8368,5.8538,5.9104,5.918,5.9004,5.8437,5.8828,5.902,5.8437,5.8828,5.918,5.918,5.918,5.918,5.918,5.918,5.918,5.918,5.918,5.918,5.918,5.9023,5.873,5.8301,5.7851,5.7285,5.6582,5.7441,5.7926,5.7926,5.8769,5.918,2.5155,2.5904,2.6921,2.8377,2.9472,3.0541,3.181,3.2946,3.3868,3.4362,3.4857,3.5191,3.5191,3.5044,3.5004,3.5297,3.5498,3.5565,3.5364,3.5511,3.5525,3.5231,3.5191,3.5391,3.5872,3.5925,3.6046,3.634,3.6366,3.8192,4.2382,4.2834,4.4642,4.8238,4.9217,4.9286,4.8391,4.8194,4.8487,4.9313,4.9313,4.9514,4.9936,5.034,5.0523,5.0523,5.0376,5.0321,5.0251,4.9881,4.9955,5.0321,5.0123,5.0376,5.0725,5.0725,5.0725,5.0798,5.133,5.1513,5.1642,5.2467,5.2724,5.2779,5.3035,5.3109,5.3109,5.3109,5.3236,5.3418,5.3565,5.4154,5.5005,5.5936,5.6254,5.6722,5.8037,5.7716,5.7526,5.8393,5.86,5.8751,5.9104,5.918,5.9004,5.8434,5.8844,5.902,5.8434,5.8828,5.918,5.918,5.918,5.918,5.918,5.918,5.918,5.918,5.918,5.918,5.918,5.918,5.9004,5.8535,5.8242,5.7734,5.7012,5.7632,5.7926,5.7926,5.8769,5.918,0.0,0.0,0.0,2.6894,2.8096,2.9455,3.153,3.2666,3.3561,3.4509,3.4937,3.5151,3.5191,3.5191,3.5284,3.5578,3.5631,3.5591,3.5578,3.5631,3.5538,3.5231,3.5204,3.5324,3.5618,3.5591,3.5765,3.61,3.6059,3.7868,4.1967,4.233,4.3578,4.6132,4.7981,4.8014,4.6235,4.7242,4.8139,4.8928,4.8928,4.9129,4.9551,4.9955,5.0087,5.0068,4.9716,4.9991,5.0688,5.0233,5.0358,5.0688,5.0233,5.0376,5.0725,5.0725,5.0725,5.0853,5.1607,5.1882,5.2028,5.287,5.3109,5.3109,5.3109,5.3109,5.3109,5.3127,5.3581,5.4128,5.4556,5.5745,5.6794,5.6849,5.7116,5.7607,5.819,5.8339,5.8507,5.9087,5.918,5.918,5.918,5.918,5.918,5.9196,5.9177,5.9177,5.9177,5.9177,5.9196,5.918,5.918,5.918,5.918,5.918,5.9235,5.9235,5.9238,5.9238,5.9235,5.9235,5.9004,5.8535,5.8535,5.832,5.7926,5.7926,5.7926,5.791,5.8769,5.918,2.4022,0.0,0.0,0.0,0.0,0.0,2.9205,3.0087,3.1116,3.3066,3.3708,3.4137,3.5044,3.5191,3.5284,3.5578,3.5805,3.5872,3.5605,3.5819,3.5765,3.5257,3.5378,3.5618,3.5925,3.5952,3.5979,3.6059,3.5872,3.7543,4.1605,4.5124,4.7613,4.8924,4.9177,4.9082,4.8544,4.8572,4.8836,4.9331,4.9056,4.9423,5.0376,5.016,5.0233,5.0541,5.0431,5.0505,5.067,4.9973,5.0083,5.0688,5.0233,5.0376,5.0725,5.0725,5.0908,5.122,5.1699,5.2065,5.2449,5.2944,5.3109,5.3109,5.3109,5.3399,5.38,5.4097,5.4608,5.525,5.5986,5.6512,5.6981,5.7734,5.7981,5.8207,5.8844,5.8936,5.9012,5.918,5.918,5.918,5.918,5.918,5.902,5.8375,5.8258,5.8258,5.8258,5.8258,5.8496,5.9121,5.918,5.918,5.918,5.9473,5.9629,5.9629,5.9922,5.9924,5.9648,5.9629,5.9414,5.9004,5.8655,5.8476,5.8304,5.8027,5.8027,5.8359,5.8594,5.8711,0.0,0.0,0.0,2.5599,0.0,0.0,2.8567,2.9325,3.0287,3.2519,3.3227,3.3684,3.4656,3.483,3.4963,3.5378,3.5698,3.5832,3.5658,3.5778,3.5712,3.5257,3.5458,3.5698,3.5872,3.6006,3.6072,3.6072,3.5792,3.7364,4.1463,4.6099,4.8548,4.8457,4.8933,4.8857,4.8084,4.8802,4.9276,4.9496,4.9441,4.9881,5.0706,5.0486,5.0505,5.0725,5.0725,5.0725,5.0688,5.0211,5.0285,5.0688,5.0708,5.0815,5.1037,5.1221,5.1424,5.1667,5.2025,5.2285,5.2595,5.298,5.3109,5.3109,5.3109,5.3508,5.409,5.45,5.546,5.6573,5.7328,5.7671,5.7919,5.8542,5.8676,5.8768,5.9104,5.918,5.918,5.918,5.918,5.918,5.918,5.918,5.9004,5.8496,5.8437,5.8437,5.8437,5.8437,5.8669,5.9121,5.918,5.918,5.918,5.957,5.9805,5.9805,6.0215,6.0275,6.0041,5.9865,5.9687,5.9453,5.9004,5.8711,5.848,5.8262,5.8379,5.8772,5.8594,5.8597,2.4192,0.0,0.0,0.0,2.642,0.0,2.9222,2.9984,3.074,3.2516,3.3094,3.3439,3.3908,3.4055,3.4229,3.4723,3.5191,3.5511,3.5618,3.5578,3.5538,3.5271,3.5498,3.5698,3.5725,3.5965,3.6126,3.6126,3.6234,3.7905,4.1561,4.5942,4.7788,4.6596,4.8172,4.8223,4.6561,4.8565,4.9569,4.9569,4.99,5.0285,5.0725,5.067,5.067,5.0725,5.0725,5.0725,5.0725,5.0725,5.0725,5.0777,5.1259,5.1518,5.1574,5.195,5.2137,5.2233,5.2426,5.2559,5.265,5.3053,5.3182,5.3218,5.3272,5.3726,5.4308,5.4755,5.6334,5.7964,5.8389,5.8828,5.918,5.918,5.918,5.918,5.918,5.918,5.918,5.918,5.918,5.918,5.918,5.918,5.918,5.918,5.9121,5.9062,5.918,5.9121,5.9062,5.918,5.918,5.918,5.918,5.9629,5.9863,5.9863,6.0275,6.049,6.0508,6.0156,5.9922,5.9863,5.9473,5.9062,5.8594,5.8594,5.8769,5.9121,5.8711,5.8769,2.5394,2.5731,2.6415,2.7726,2.8552,0.0,3.0604,3.1708,3.2397,3.2164,3.2416,3.2581,3.2272,3.2372,3.2492,3.2372,3.3601,3.4817,3.5471,3.5578,3.5551,3.5551,3.5805,3.6072,3.6313,3.638,3.6433,3.6433,3.9237,4.1261,4.2115,4.6412,4.8946,4.9287,4.9662,4.9662,4.9323,4.9735,4.9958,5.001,4.9753,5.001,5.0706,5.0343,5.0361,5.0725,5.0725,5.0725,5.0725,5.0725,5.0725,5.0777,5.1259,5.1518,5.1574,5.195,5.2323,5.2624,5.2518,5.2742,5.3072,5.3653,5.3799,5.3907,5.4395,5.4917,5.5532,5.6441,5.7756,5.8853,5.8577,5.8828,5.918,5.918,5.918,5.918,5.918,5.918,5.918,5.918,5.918,5.918,5.918,5.918,5.918,5.918,5.861,5.8434,5.9138,5.861,5.8434,5.9121,5.918,5.918,5.918,5.9863,6.0255,6.0255,6.1015,6.1308,6.0976,6.0859,6.0683,6.0275,5.9865,5.9473,5.9062,5.9062,5.8945,5.8652,5.8538,5.8769,2.6176,2.6663,2.7724,2.8909,0.0,0.0,0.0,3.2501,3.2759,3.3364,3.2549,3.212,3.3332,3.2042,3.1207,3.2481,3.4178,3.505,3.4396,3.507,3.5578,3.5578,3.5765,3.5912,3.6059,3.634,3.6433,3.6299,4.0106,4.227,4.2024,4.6169,4.8891,4.9464,4.9716,4.9808,4.9808,5.0211,5.0425,5.0479,5.0204,5.0476,5.1052,5.0608,5.0541,5.0725,5.0966,5.1122,5.1122,5.1452,5.1555,5.1555,5.1847,5.2105,5.242,5.3012,5.339,5.3602,5.3636,5.3829,5.4051,5.4341,5.4449,5.4503,5.4828,5.5447,5.6198,5.6986,5.7851,5.8496,5.8262,5.8535,5.8831,5.8831,5.9004,5.918,5.918,5.918,5.918,5.918,5.918,5.918,5.918,5.918,5.918,5.918,5.8844,5.8727,5.9121,5.8844,5.8727,5.9121,5.918,5.9294,5.9473,6.0041,6.049,6.0742,6.1367,6.1601,6.1426,6.1211,6.0801,6.0099,5.9922,5.959,5.918,5.9414,5.9297,5.8831,5.9062,5.9297,0.0,2.8779,3.0128,3.0822,0.0,3.2484,0.0,0.0,0.0,3.4773,3.3308,3.2484,3.4636,3.2447,3.1074,3.3396,3.523,3.5769,3.4107,3.5212,3.5973,3.539,3.5471,3.5511,3.5565,3.6006,3.6206,3.6086,3.9578,4.1723,4.183,4.5625,4.818,4.9019,4.9423,4.9624,4.9624,5.0443,5.0904,5.1034,5.1026,5.1174,5.1466,5.1174,5.0966,5.0862,5.1433,5.1673,5.1692,5.2227,5.2434,5.2537,5.2537,5.2845,5.3301,5.4095,5.4402,5.4432,5.4794,5.4882,5.4936,5.5044,5.5152,5.5206,5.5206,5.587,5.6611,5.7001,5.7461,5.7851,5.7808,5.8144,5.848,5.848,5.8887,5.918,5.918,5.918,5.918,5.918,5.918,5.918,5.918,5.918,5.918,5.918,5.918,5.918,5.918,5.918,5.918,5.918,5.918,5.9355,5.9765,6.0158,6.0625,6.1074,6.1484,6.1719,6.1719,6.1367,6.0801,5.9922,5.9922,5.9687,5.918,5.9531,5.957,5.9297,5.9746,5.998,0.0,0.0,0.0,0.0,3.581,3.6569,3.5895,0.0,3.683,3.511,0.0,3.4586,3.378,0.0,0.0,3.3896,3.5489,3.6715,3.6974,3.7705,3.7287,3.4758,3.4923,3.5351,3.5605,3.5458,3.5551,3.6032,3.7614,3.9592,4.2115,4.4563,4.6977,4.9372,4.9845,5.0013,5.0013,5.0952,5.1396,5.1444,5.1932,5.195,5.1518,5.2002,5.1899,5.1415,5.2073,5.2279,5.2279,5.2382,5.2691,5.3083,5.3083,5.3134,5.3301,5.4095,5.4402,5.4432,5.4794,5.4882,5.499,5.5456,5.5993,5.6421,5.6421,5.6714,5.7021,5.6758,5.7246,5.7808,5.7383,5.791,5.848,5.848,5.8887,5.918,5.918,5.918,5.918,5.918,5.918,5.918,5.918,5.918,5.918,5.918,5.918,5.918,5.918,5.918,5.918,5.918,5.918,5.9355,5.9765,6.0158,6.0625,6.1074,6.1484,6.1719,6.1719,6.166,6.125,6.0314,6.0314,5.998,5.918,5.9238,5.9414,5.9746,6.0156,6.0566,0.0,0.0,0.0,3.6053,3.6866,3.7617,3.7187,3.7164,3.7132,3.6664,0.0,0.0,0.0,0.0,0.0,0.0,3.6611,3.7369,3.6054,3.8174,3.881,3.5853,3.5239,3.4826,3.4358,3.4549,3.4857,3.5337,3.6994,3.9065,4.1608,4.3957,4.646,4.9047,4.9551,5.0035,5.0582,5.1177,5.1828,5.2518,5.2434,5.2434,5.2466,5.2434,5.2279,5.2054,5.2621,5.2826,5.2897,5.3205,5.3461,5.3666,5.3666,5.3666,5.3763,5.4616,5.4946,5.501,5.565,5.5886,5.5886,5.6154,5.6368,5.6582,5.6582,5.6719,5.6816,5.664,5.6836,5.707,5.6894,5.75,5.8144,5.8144,5.8672,5.918,5.918,5.918,5.918,5.918,5.918,5.918,5.918,5.918,5.918,5.918,5.918,5.918,5.918,5.918,5.918,5.918,5.918,5.9473,6.0098,6.0332,6.0723,6.1426,6.1601,6.1719,6.1719,6.1719,6.1308,6.0449,6.0372,6.0099,5.9531,5.9805,6.0099,6.0566,6.0431,6.0664,3.6932,3.7598,3.8553,3.7371,3.7674,3.8144,3.7695,3.7285,3.7246,3.8105,3.7133,0.0,0.0,0.0,0.0,0.0,0.0,3.8523,3.6713,3.873,3.9374,3.6682,3.5968,3.5268,3.4225,3.4698,3.5179,3.5383,3.7085,3.932,4.202,4.3858,4.606,4.8791,4.9446,5.0105,5.0871,5.1641,5.2396,5.3185,5.2948,5.2999,5.3185,5.2948,5.28,5.2811,5.3378,5.3616,5.3635,5.4045,5.4141,5.3972,5.3972,5.3972,5.4141,5.5,5.5312,5.543,5.6289,5.6582,5.6582,5.6582,5.6582,5.6582,5.6582,5.6582,5.6582,5.6582,5.6582,5.6582,5.6582,5.728,5.7926,5.7926,5.8555,5.918,5.918,5.918,5.918,5.918,5.918,5.918,5.918,5.918,5.918,5.918,5.918,5.918,5.918,5.918,5.918,5.918,5.918,5.9531,6.0314,6.0372,6.0781,6.166,6.1719,6.1719,6.1719,6.1719,6.1367,6.0625,6.0488,6.0273,5.998,6.0039,6.0449,6.1094,6.0841,6.0957,4.2495,4.2788,4.277,3.9827,3.9123,3.873,3.7125,3.7324,3.8125,3.8984,3.9749,4.047,4.1016,0.0,0.0,0.0,0.0,0.0,0.0,4.0004,3.8505,3.6444,3.7048,3.7133,3.6041,3.6633,3.7049,3.6948,3.7891,4.0174,4.412,4.4371,4.5798,4.8791,4.9799,5.0461,5.0922,5.2411,5.3134,5.3185,5.3717,5.3666,5.3237,5.3717,5.3879,5.3782,5.439,5.4668,5.4668,5.4668,5.4414,5.3972,5.3972,5.3972,5.4141,5.5,5.5312,5.543,5.6289,5.6582,5.6582,5.6582,5.6582,5.6582,5.6582,5.6582,5.6582,5.6582,5.6582,5.6582,5.6582,5.728,5.7926,5.7926,5.8555,5.918,5.918,5.918,5.918,5.918,5.918,5.918,5.918,5.918,5.918,5.918,5.918,5.918,5.918,5.918,5.918,5.918,5.918,5.9531,6.0314,6.0372,6.0781,6.166,6.1719,6.1719,6.1719,6.1719,6.1484,6.1094,6.0607,6.0372,6.0372,5.9629,5.9883,6.1094,6.1484,6.166,4.2232,4.335,4.4062,4.1835,4.0918,3.9902,3.7598,3.8203,3.9219,3.9199,4.0137,4.0996,4.1191,0.0,0.0,0.0,0.0,0.0,0.0,3.8828,3.851,3.9009,3.7504,3.6427,3.6419,3.7539,3.8059,3.7647,3.8717,4.0578,4.3192,4.439,4.6193,4.8822,5.0152,5.115,5.1898,5.2769,5.339,5.3717,5.3921,5.3921,5.3717,5.3921,5.3999,5.393,5.4136,5.4258,5.4258,5.4258,5.416,5.3972,5.3972,5.4199,5.4531,5.5098,5.5312,5.543,5.6289,5.6582,5.6582,5.6582,5.6582,5.6582,5.6582,5.6582,5.6582,5.6582,5.6582,5.6582,5.6582,5.728,5.7926,5.7926,5.8555,5.918,5.918,5.918,5.918,5.918,5.918,5.918,5.918,5.918,5.918,5.918,5.918,5.918,5.918,5.918,5.918,5.918,5.918,5.9414,5.998,6.0273,6.0547,6.084,6.084,6.084,6.084,6.084,6.0664,6.0273,6.0314,6.0372,6.0372,6.0449,6.0801,6.1484,6.166,6.1543,4.3859,4.4941,4.5742,4.4004,4.3066,4.1933,3.9648,4.0215,4.1211,4.1074,4.1484,4.2129,4.2851,0.0,0.0,0.0,0.0,0.0,0.0,3.8359,3.8848,4.0137,3.8635,3.7597,3.7904,3.8941,3.9512,3.9186,4.0328,4.1796,4.3643,4.534,4.712,4.8947,5.0535,5.1834,5.2672,5.3205,5.3666,5.3972,5.3972,5.3972,5.3972,5.3972,5.4121,5.4258,5.4258,5.4258,5.4258,5.4258,5.418,5.3972,5.3972,5.4297,5.4726,5.5156,5.5508,5.584,5.6387,5.6582,5.6582,5.6582,5.6582,5.6582,5.6582,5.6582,5.6582,5.6582,5.6582,5.6582,5.6582,5.728,5.7926,5.7926,5.8555,5.918,5.918,5.918,5.918,5.918,5.918,5.918,5.918,5.918,5.918,5.918,5.918,5.918,5.918,5.918,5.918,5.918,5.918,5.9355,5.9765,6.0158,6.0372,6.0372,6.0372,6.0372,6.0372,6.0372,6.0255,6.0039,6.0255,6.0508,6.0664,6.0801,6.1133,6.1719,6.1543,6.1367]},{"header":{"parameterUnit":"m.s-1","parameterCategory":1,"la1":30.6,"la2":29.2853,"lo1":-89.7004,"lo2":-87.6739,"dy":0.0162,"dx":0.0183,"nx":112,"ny":82,"refTime":"2026-04-06T00:00:00:Z","depth":0,"parameterNumber":3,"parameterNumberName":"V-component_of_WINDS"},"data":[0.0,0.0,0.0,0.0,0.0,0.0,0.0,0.0,0.0,0.0,0.0,0.0,0.0,0.0,0.0,0.0,0.0,0.0,0.0,0.0,0.0,0.0,0.0,0.0,0.0,0.0,0.0,0.0,0.0,0.0,0.0,0.0,0.0,0.0,0.0,0.0,0.0,0.0,0.0,0.0,0.0,0.0,0.0,0.0,0.0,0.0,0.0,0.0,0.0,0.0,0.0,0.0,0.0,0.0,0.0,0.0,0.0,0.0,0.0,0.0,0.0,0.0,0.0,0.0,0.0,0.0,0.0,0.0,0.0,0.0,0.0,0.0,0.0,0.0,0.0,0.0,0.0,0.0,0.0,0.0,0.0,0.0,0.0,0.0,0.0,0.0,0.0,0.0,0.0,0.0,4.2324,4.2696,4.5184,4.681,4.681,4.748,4.694,4.475,0.0,0.0,0.0,0.0,0.0,0.0,0.0,0.0,0.0,0.0,0.0,0.0,0.0,0.0,0.0,0.0,0.0,0.0,0.0,0.0,0.0,0.0,0.0,0.0,0.0,0.0,0.0,0.0,0.0,0.0,0.0,0.0,0.0,0.0,0.0,0.0,0.0,0.0,0.0,0.0,0.0,0.0,0.0,0.0,0.0,0.0,0.0,0.0,0.0,0.0,0.0,0.0,0.0,0.0,0.0,0.0,0.0,0.0,0.0,0.0,0.0,0.0,0.0,0.0,0.0,0.0,0.0,0.0,0.0,0.0,0.0,0.0,0.0,0.0,0.0,0.0,0.0,0.0,0.0,0.0,0.0,0.0,0.0,0.0,0.0,0.0,0.0,0.0,0.0,0.0,0.0,0.0,0.0,0.0,0.0,0.0,0.0,0.0,0.0,0.0,0.0,0.0,0.0,0.0,4.1415,4.3257,4.5462,4.681,4.681,4.748,4.694,4.475,0.0,0.0,0.0,0.0,0.0,0.0,0.0,0.0,0.0,0.0,0.0,0.0,0.0,0.0,0.0,0.0,0.0,0.0,0.0,0.0,0.0,0.0,0.0,0.0,0.0,0.0,0.0,0.0,0.0,0.0,0.0,0.0,0.0,0.0,0.0,0.0,0.0,0.0,0.0,0.0,0.0,0.0,0.0,0.0,0.0,0.0,0.0,0.0,0.0,0.0,0.0,0.0,0.0,0.0,0.0,0.0,0.0,0.0,0.0,0.0,0.0,0.0,0.0,0.0,0.0,0.0,0.0,0.0,0.0,0.0,0.0,0.0,0.0,0.0,0.0,0.0,0.0,0.0,0.0,0.0,0.0,0.0,0.0,0.0,0.0,0.0,0.0,0.0,0.0,0.0,0.0,0.0,0.0,0.0,0.0,0.0,0.0,0.0,0.0,0.0,0.0,0.0,0.0,4.2337,4.2636,4.3988,4.574,4.681,4.681,4.748,4.694,4.475,4.4181,0.0,0.0,0.0,0.0,0.0,0.0,0.0,0.0,0.0,0.0,0.0,0.0,0.0,0.0,0.0,0.0,0.0,0.0,0.0,0.0,0.0,0.0,0.0,0.0,0.0,0.0,0.0,0.0,0.0,0.0,0.0,0.0,0.0,0.0,0.0,0.0,0.0,0.0,0.0,0.0,0.0,0.0,0.0,0.0,0.0,0.0,0.0,0.0,0.0,0.0,0.0,0.0,0.0,0.0,0.0,0.0,0.0,0.0,0.0,0.0,0.0,0.0,0.0,0.0,0.0,0.0,0.0,0.0,0.0,0.0,0.0,0.0,0.0,0.0,0.0,0.0,0.0,0.0,0.0,0.0,0.0,0.0,0.0,0.0,0.0,0.0,0.0,0.0,0.0,0.0,0.0,0.0,0.0,0.0,0.0,0.0,0.0,0.0,0.0,0.0,0.0,0.0,4.4022,4.4293,4.4806,4.6166,4.7052,4.7052,4.7409,4.6786,4.4736,4.3673,0.0,0.0,0.0,0.0,0.0,0.0,0.0,0.0,0.0,0.0,0.0,0.0,0.0,0.0,0.0,0.0,0.0,0.0,0.0,0.0,0.0,0.0,0.0,0.0,0.0,0.0,0.0,0.0,0.0,0.0,0.0,0.0,0.0,0.0,0.0,0.0,0.0,0.0,0.0,0.0,0.0,0.0,0.0,0.0,0.0,0.0,0.0,0.0,0.0,0.0,0.0,0.0,0.0,0.0,0.0,0.0,0.0,0.0,0.0,0.0,0.0,0.0,0.0,0.0,0.0,0.0,0.0,0.0,0.0,0.0,0.0,0.0,0.0,0.0,0.0,0.0,0.0,0.0,0.0,0.0,0.0,0.0,0.0,0.0,0.0,0.0,0.0,0.0,0.0,0.0,0.0,0.0,0.0,0.0,0.0,0.0,0.0,0.0,0.0,0.0,0.0,0.0,4.4006,4.5584,4.5624,4.695,4.7803,4.7803,4.7237,4.6225,4.4702,4.3213,0.0,0.0,0.0,0.0,0.0,0.0,0.0,0.0,0.0,0.0,0.0,0.0,0.0,0.0,0.0,0.0,0.0,0.0,0.0,0.0,0.0,0.0,0.0,0.0,0.0,0.0,0.0,0.0,0.0,0.0,0.0,0.0,0.0,0.0,0.0,0.0,0.0,0.0,0.0,0.0,0.0,0.0,0.0,0.0,0.0,0.0,0.0,0.0,0.0,0.0,0.0,0.0,0.0,0.0,0.0,0.0,0.0,0.0,0.0,0.0,0.0,0.0,0.0,0.0,0.0,0.0,0.0,0.0,0.0,0.0,0.0,0.0,0.0,0.0,0.0,0.0,0.0,0.0,0.0,0.0,0.0,0.0,0.0,0.0,0.0,0.0,0.0,0.0,0.0,0.0,0.0,0.0,0.0,0.0,0.0,0.0,0.0,0.0,0.0,0.0,0.0,0.0,4.5077,4.5923,0.0,4.7669,4.8415,4.7951,4.8057,4.7361,4.5399,0.0,0.0,0.0,0.0,0.0,0.0,0.0,0.0,0.0,0.0,0.0,0.0,0.0,0.0,0.0,0.0,0.0,0.0,0.0,0.0,0.0,0.0,0.0,0.0,0.0,0.0,0.0,0.0,0.0,0.0,0.0,0.0,0.0,0.0,0.0,0.0,0.0,0.0,0.0,0.0,0.0,0.0,0.0,0.0,0.0,0.0,0.0,0.0,0.0,0.0,0.0,0.0,0.0,0.0,0.0,0.0,0.0,0.0,0.0,0.0,0.0,0.0,0.0,0.0,0.0,0.0,0.0,0.0,0.0,0.0,0.0,0.0,0.0,0.0,0.0,0.0,0.0,0.0,0.0,0.0,0.0,0.0,0.0,0.0,0.0,0.0,0.0,0.0,0.0,0.0,0.0,0.0,0.0,0.0,0.0,0.0,0.0,0.0,0.0,0.0,0.0,0.0,4.4635,4.5837,4.6797,0.0,4.9143,4.9842,4.9358,4.909,4.8071,4.5838,0.0,0.0,0.0,0.0,0.0,0.0,0.0,0.0,0.0,0.0,0.0,0.0,0.0,0.0,0.0,0.0,0.0,0.0,0.0,0.0,0.0,0.0,0.0,0.0,0.0,0.0,0.0,0.0,0.0,0.0,0.0,0.0,0.0,0.0,0.0,0.0,0.0,0.0,0.0,0.0,0.0,0.0,0.0,0.0,0.0,0.0,0.0,0.0,0.0,0.0,0.0,0.0,0.0,0.0,0.0,0.0,0.0,0.0,0.0,0.0,0.0,0.0,0.0,0.0,0.0,0.0,0.0,0.0,0.0,0.0,0.0,0.0,0.0,0.0,0.0,0.0,0.0,0.0,0.0,0.0,0.0,0.0,0.0,0.0,0.0,0.0,0.0,0.0,0.0,0.0,0.0,0.0,0.0,0.0,0.0,0.0,0.0,0.0,0.0,0.0,0.0,0.0,4.3549,4.6176,4.8518,4.988,5.139,5.2334,5.23,5.027,4.8071,0.0,0.0,0.0,0.0,0.0,0.0,0.0,0.0,0.0,0.0,0.0,0.0,0.0,0.0,0.0,0.0,0.0,0.0,0.0,0.0,0.0,0.0,0.0,0.0,0.0,0.0,0.0,0.0,0.0,0.0,0.0,0.0,0.0,0.0,0.0,0.0,0.0,0.0,0.0,0.0,0.0,0.0,0.0,0.0,0.0,0.0,0.0,0.0,0.0,0.0,0.0,0.0,0.0,0.0,0.0,0.0,0.0,0.0,0.0,0.0,0.0,0.0,0.0,0.0,0.0,0.0,0.0,0.0,0.0,0.0,0.0,0.0,0.0,0.0,0.0,0.0,0.0,0.0,0.0,0.0,0.0,0.0,0.0,0.0,0.0,0.0,0.0,0.0,0.0,0.0,0.0,0.0,0.0,0.0,0.0,0.0,0.0,0.0,0.0,0.0,0.0,0.0,0.0,4.7759,5.0308,5.1993,5.2349,5.3305,5.3281,5.1641,5.093,4.939,4.665,0.0,0.0,0.0,0.0,0.0,0.0,0.0,0.0,0.0,0.0,0.0,0.0,0.0,0.0,0.0,0.0,0.0,0.0,0.0,0.0,0.0,0.0,0.0,0.0,0.0,0.0,0.0,0.0,0.0,0.0,0.0,0.0,0.0,0.0,0.0,0.0,0.0,0.0,0.0,0.0,0.0,0.0,0.0,0.0,0.0,0.0,0.0,0.0,0.0,0.0,0.0,0.0,0.0,0.0,0.0,0.0,0.0,0.0,0.0,0.0,0.0,0.0,0.0,0.0,0.0,0.0,0.0,0.0,0.0,0.0,0.0,0.0,0.0,0.0,0.0,0.0,0.0,0.0,0.0,0.0,0.0,0.0,0.0,0.0,0.0,0.0,0.0,0.0,0.0,0.0,0.0,0.0,0.0,0.0,0.0,0.0,0.0,0.0,0.0,0.0,0.0,0.0,4.8329,5.172,5.4129,5.4541,5.5393,5.5344,5.3991,5.3078,5.115,4.7868,0.0,0.0,0.0,0.0,0.0,0.0,0.0,0.0,0.0,0.0,0.0,0.0,0.0,0.0,0.0,0.0,0.0,0.0,0.0,0.0,0.0,0.0,0.0,0.0,0.0,0.0,0.0,0.0,0.0,0.0,0.0,0.0,0.0,0.0,0.0,0.0,0.0,0.0,0.0,0.0,0.0,0.0,0.0,0.0,0.0,0.0,0.0,0.0,0.0,0.0,0.0,0.0,0.0,0.0,0.0,0.0,0.0,0.0,0.0,0.0,0.0,0.0,0.0,0.0,0.0,0.0,0.0,0.0,0.0,0.0,0.0,0.0,0.0,0.0,0.0,0.0,0.0,0.0,0.0,0.0,0.0,0.0,0.0,0.0,0.0,0.0,0.0,0.0,0.0,0.0,0.0,0.0,0.0,0.0,0.0,0.0,0.0,0.0,0.0,0.0,0.0,0.0,4.6957,5.1633,5.5364,5.6511,5.7477,5.7967,5.7832,5.5953,5.3179,4.9357,0.0,0.0,0.0,0.0,0.0,0.0,0.0,0.0,0.0,0.0,0.0,0.0,0.0,0.0,0.0,0.0,0.0,0.0,0.0,0.0,0.0,0.0,0.0,0.0,0.0,0.0,0.0,0.0,0.0,0.0,0.0,0.0,0.0,0.0,0.0,0.0,0.0,0.0,0.0,0.0,0.0,0.0,0.0,0.0,0.0,0.0,0.0,0.0,0.0,0.0,0.0,0.0,0.0,0.0,0.0,0.0,0.0,0.0,0.0,0.0,4.9651,4.81,0.0,0.0,0.0,0.0,0.0,0.0,0.0,0.0,0.0,0.0,0.0,0.0,0.0,0.0,0.0,0.0,0.0,0.0,0.0,0.0,0.0,0.0,0.0,0.0,0.0,0.0,0.0,0.0,0.0,0.0,0.0,0.0,0.0,0.0,0.0,0.0,0.0,0.0,0.0,0.0,5.0894,5.467,5.7539,5.8375,5.8658,5.8321,5.7137,5.6596,5.4465,5.015,4.8342,0.0,0.0,0.0,0.0,0.0,0.0,0.0,0.0,0.0,0.0,0.0,0.0,0.0,0.0,0.0,0.0,0.0,0.0,0.0,0.0,0.0,0.0,0.0,0.0,0.0,0.0,0.0,0.0,0.0,0.0,0.0,0.0,0.0,0.0,0.0,0.0,0.0,0.0,0.0,0.0,0.0,0.0,0.0,0.0,0.0,0.0,0.0,0.0,0.0,0.0,0.0,0.0,0.0,0.0,0.0,0.0,0.0,0.0,0.0,5.303,5.1513,0.0,0.0,0.0,0.0,0.0,0.0,0.0,0.0,0.0,0.0,0.0,0.0,0.0,0.0,0.0,0.0,0.0,0.0,0.0,0.0,0.0,0.0,0.0,0.0,0.0,0.0,0.0,0.0,0.0,0.0,0.0,0.0,0.0,0.0,0.0,0.0,0.0,0.0,0.0,0.0,5.153,5.5907,5.895,5.8868,5.926,5.9235,5.8457,5.7746,5.5886,5.2485,5.0168,0.0,0.0,0.0,0.0,0.0,0.0,0.0,0.0,0.0,0.0,0.0,0.0,0.0,0.0,0.0,0.0,0.0,0.0,0.0,0.0,0.0,0.0,0.0,0.0,0.0,0.0,0.0,0.0,0.0,0.0,0.0,0.0,0.0,0.0,0.0,0.0,0.0,0.0,0.0,0.0,0.0,0.0,0.0,0.0,0.0,0.0,0.0,0.0,0.0,0.0,0.0,0.0,0.0,5.884,5.9323,6.0099,6.0099,6.0116,6.0082,5.7685,5.6478,5.6099,5.4736,0.0,0.0,0.0,0.0,0.0,0.0,0.0,0.0,0.0,0.0,0.0,0.0,0.0,0.0,0.0,0.0,0.0,0.0,0.0,0.0,0.0,0.0,5.4008,5.4415,5.4973,5.4363,5.0626,0.0,0.0,0.0,0.0,0.0,0.0,0.0,0.0,0.0,0.0,0.0,5.1518,5.6566,5.9814,5.9026,5.9761,6.025,6.0114,5.9099,5.7494,5.5108,5.2536,4.9763,0.0,0.0,0.0,0.0,0.0,0.0,0.0,0.0,0.0,0.0,0.0,0.0,0.0,0.0,0.0,0.0,0.0,0.0,0.0,0.0,0.0,0.0,0.0,0.0,0.0,0.0,0.0,0.0,0.0,0.0,0.0,0.0,5.2275,5.2889,0.0,0.0,0.0,0.0,0.0,0.0,0.0,0.0,0.0,0.0,0.0,0.0,0.0,5.7633,5.8633,5.9909,6.1013,6.1893,6.253,6.3255,6.3945,6.3945,6.4324,6.4998,6.5274,0.0,5.8478,5.7667,0.0,0.0,0.0,0.0,0.0,0.0,0.0,0.0,0.0,0.0,0.0,0.0,0.0,0.0,0.0,0.0,0.0,0.0,0.0,0.0,0.0,0.0,6.0056,5.8833,5.8483,5.8269,5.766,5.3619,4.9778,4.8646,4.8056,4.7008,0.0,0.0,0.0,0.0,0.0,0.0,5.3939,5.7606,6.0042,5.9928,6.0646,6.0858,6.0148,6.0554,5.9607,5.6697,5.553,5.3602,5.0592,4.8951,0.0,0.0,0.0,0.0,0.0,0.0,0.0,0.0,0.0,0.0,0.0,0.0,0.0,0.0,0.0,0.0,0.0,0.0,0.0,0.0,0.0,0.0,0.0,0.0,0.0,0.0,0.0,0.0,0.0,5.3738,5.4267,5.3579,5.4325,5.4174,0.0,0.0,0.0,0.0,0.0,0.0,0.0,0.0,0.0,5.9288,6.0082,6.1254,6.2928,6.3979,6.5136,6.6344,6.6654,6.7206,6.7911,6.7911,6.8103,6.8448,6.8793,6.7566,6.5186,6.2289,6.0668,5.9771,0.0,0.0,0.0,0.0,5.7426,5.7874,5.9185,5.9599,5.9461,5.8495,0.0,0.0,0.0,0.0,0.0,0.0,0.0,5.7346,5.8839,6.0494,6.1915,6.2529,6.2493,6.2184,6.1777,5.8903,5.5683,5.323,5.2148,5.0811,4.8154,4.8308,0.0,0.0,0.0,5.5378,5.69,5.9607,6.14,6.14,6.2076,6.2245,6.1467,6.1704,6.0994,5.8795,5.7577,5.5987,5.3805,5.1894,5.0046,0.0,0.0,0.0,0.0,0.0,0.0,0.0,0.0,0.0,0.0,0.0,0.0,0.0,0.0,0.0,0.0,0.0,0.0,0.0,0.0,0.0,0.0,0.0,0.0,0.0,0.0,0.0,0.0,5.5894,5.6488,5.5073,5.6632,5.6745,0.0,0.0,0.0,0.0,0.0,0.0,5.9323,6.0427,6.1668,6.3013,6.3825,6.524,6.731,6.7896,6.8931,7.0449,7.0277,7.0553,7.1277,7.1277,7.1277,7.1277,7.1463,7.1429,7.0932,6.6531,6.4324,6.3446,6.1289,6.0496,6.0617,6.1151,6.1461,6.191,6.3825,6.4343,6.3963,6.2634,6.1703,6.0496,5.746,0.0,0.0,0.0,0.0,5.8961,6.183,6.2797,6.3448,6.5138,6.5315,6.4958,6.4415,6.3007,6.0839,5.7491,5.6089,5.46,5.1961,5.1995,0.0,5.2351,5.5074,5.7611,5.9081,6.1095,6.24,6.24,6.3057,6.3274,6.2719,6.2854,6.2313,6.0791,5.9659,5.8324,5.6701,5.4974,5.3312,5.167,0.0,0.0,0.0,0.0,0.0,0.0,0.0,0.0,0.0,0.0,0.0,0.0,0.0,0.0,0.0,0.0,0.0,0.0,0.0,0.0,0.0,0.0,0.0,0.0,0.0,0.0,0.0,0.0,0.0,5.852,5.9386,0.0,0.0,0.0,0.0,5.8651,6.0909,6.2549,6.3255,6.5393,6.6945,6.7738,6.8552,6.969,7.1187,7.1256,7.2071,7.3554,7.2864,7.2933,7.3623,7.3623,7.3623,7.3658,7.4373,7.4292,7.3347,6.9463,6.7428,6.66,6.5014,6.4427,6.4427,6.4462,6.4945,6.5723,6.6551,6.6378,6.5999,6.729,6.5738,6.3255,6.2376,6.1082,0.0,0.0,6.1565,6.3289,6.3496,6.4793,6.6123,6.6225,6.5956,6.567,6.5615,6.4444,6.2699,6.0351,5.8727,5.7239,5.5699,0.0,5.5462,5.5462,5.6833,5.8373,5.9844,6.14,6.24,6.24,6.3057,6.3477,6.3443,6.4106,6.3869,6.24,6.2231,6.1259,5.9191,5.8987,5.7699,5.5003,5.4098,0.0,0.0,0.0,0.0,0.0,0.0,0.0,0.0,0.0,0.0,0.0,0.0,0.0,0.0,0.0,0.0,0.0,0.0,0.0,0.0,0.0,0.0,0.0,0.0,0.0,0.0,0.0,0.0,6.1568,6.3375,0.0,6.1879,6.1914,6.245,6.3377,6.5083,6.6635,6.7931,6.9207,7.0256,7.1036,7.1795,7.245,7.3002,7.3464,7.396,7.4477,7.4236,7.4236,7.4511,7.4511,7.4511,7.4511,7.4787,7.4753,7.4408,7.3029,7.1463,6.9773,6.8793,6.8359,6.8359,6.8359,6.8552,6.8828,6.9104,6.9035,6.8793,6.8862,6.7793,6.6359,6.56,6.5033,6.4669,6.5152,6.5876,6.6704,6.7724,6.8467,6.889,6.8782,6.8514,6.8242,6.8116,6.6816,6.5371,6.458,6.2076,5.9742,5.8727,5.8524,5.8389,5.7897,5.9133,6.0622,6.211,6.2787,6.3294,6.3768,6.4038,6.4079,6.371,6.3934,6.3688,6.2857,6.2789,6.2248,6.1028,6.096,5.9891,5.7569,5.6267,5.3796,0.0,0.0,0.0,0.0,0.0,0.0,0.0,0.0,0.0,0.0,0.0,0.0,0.0,0.0,0.0,0.0,0.0,0.0,0.0,0.0,0.0,0.0,0.0,0.0,0.0,6.308,6.5066,6.4686,6.679,6.7584,6.5764,6.6339,6.7081,6.7724,6.9187,7.0484,7.1484,7.2257,7.2877,7.3429,7.3912,7.4292,7.4568,7.5304,7.5822,7.6097,7.6339,7.6442,7.6442,7.6442,7.6442,7.6442,7.6201,7.5925,7.5649,7.5408,7.4236,7.2602,7.2119,7.1774,7.1588,7.1843,7.1912,7.1912,7.1912,7.1567,7.1105,7.0622,6.9725,6.8773,6.831,6.8172,6.8241,6.8739,6.8897,6.9118,7.0139,7.0353,7.0271,7.0141,6.9835,6.9561,6.9412,6.8417,6.759,6.759,6.4783,6.2245,6.1704,6.1637,6.1366,6.0636,6.1603,6.2685,6.3409,6.3714,6.4174,6.4884,6.4749,6.4593,6.4543,6.4087,6.3674,6.3391,6.2897,6.2423,6.2,6.1726,6.0859,5.9322,5.7242,5.4643,5.1479,0.0,0.0,0.0,0.0,0.0,0.0,0.0,0.0,0.0,0.0,0.0,0.0,0.0,0.0,0.0,0.0,0.0,0.0,0.0,0.0,0.0,0.0,0.0,6.1902,6.5128,6.7708,6.7896,6.9471,7.0303,6.9738,7.0185,7.0863,7.1532,7.3002,7.3899,7.3899,7.4615,7.5029,7.5063,7.5063,7.5408,7.6201,7.6891,7.7649,7.843,7.9155,7.9477,7.9477,7.9477,7.9477,7.9442,7.8741,7.7994,7.7235,7.6511,7.5753,7.5029,7.496,7.4442,7.3912,7.4649,7.4925,7.4925,7.4925,7.3981,7.2761,7.2761,7.176,7.0553,7.0553,7.0518,7.0518,7.0518,7.0518,7.0518,7.0484,7.0354,7.0209,7.0189,6.982,6.9501,6.9501,6.9308,6.9168,6.9168,6.6766,6.4715,6.4681,6.4647,6.4377,6.3646,6.414,0.0,6.3612,6.4174,6.485,6.5581,6.5006,6.4952,6.5868,6.4597,6.3879,6.4074,6.2658,6.1931,6.2204,6.1465,6.0799,6.0254,5.7237,5.4582,5.2341,0.0,0.0,0.0,0.0,0.0,0.0,0.0,0.0,0.0,0.0,0.0,0.0,0.0,0.0,0.0,0.0,0.0,0.0,0.0,0.0,0.0,6.4479,6.6034,6.5,6.8049,7.0459,7.0694,7.2458,7.3602,7.3437,7.3589,7.3753,7.396,7.4912,7.5706,7.6258,7.6994,7.7684,7.8201,7.8235,7.8339,7.8546,7.8775,7.8959,7.9201,7.9373,7.9477,7.9477,7.9477,7.9477,7.95,7.9293,7.9063,7.8856,7.8649,7.8408,7.7994,7.5787,7.4787,7.4615,7.4822,7.4925,7.4925,7.4925,7.4649,7.4305,7.4305,7.3994,7.3649,7.3649,7.3291,7.2864,7.2864,7.2864,7.2761,7.2209,7.2408,7.2599,7.1858,7.1606,7.1444,7.1327,7.0831,7.0391,7.0391,6.9161,6.7667,6.6393,6.5324,6.4546,6.4343,6.4478,6.4546,6.4343,6.462,6.4686,6.4381,6.4282,6.4391,6.4806,6.3969,6.3517,6.3724,6.2848,6.2334,6.2423,6.2217,6.1752,6.1013,5.853,5.6702,0.0,0.0,0.0,0.0,0.0,0.0,0.0,0.0,0.0,0.0,0.0,0.0,0.0,0.0,0.0,0.0,0.0,0.0,0.0,0.0,0.0,0.0,6.8045,7.0291,7.0062,7.1448,7.2747,7.3509,7.4921,7.5994,7.6339,7.6649,7.6822,7.6822,7.727,7.7718,7.8132,7.8603,7.9086,7.95,7.9477,7.9477,7.9477,7.9787,7.9959,7.9959,8.0293,8.0465,8.0465,8.0465,8.0465,8.0431,8.012,7.9959,7.9925,7.9614,7.9477,7.9304,0.0,0.0,0.0,0.0,7.6822,7.6787,7.6477,7.6132,7.5822,7.5511,7.5167,7.4925,7.4925,7.458,7.4257,7.4257,7.4257,7.4154,7.374,7.3947,7.4111,7.3512,7.3322,7.3248,7.3117,7.2426,7.1814,7.1814,7.0874,0.0,6.8689,6.7463,6.6484,6.6179,6.6228,6.6154,6.5848,6.5915,6.5826,6.5383,6.5195,6.5285,6.5789,6.4553,0.0,0.0,0.0,6.2342,6.2013,6.1979,0.0,0.0,0.0,0.0,0.0,5.9047,0.0,0.0,5.7357,5.7426,0.0,0.0,0.0,0.0,0.0,0.0,0.0,0.0,0.0,0.0,0.0,0.0,0.0,0.0,0.0,0.0,7.1957,7.4893,7.5817,7.5081,7.4912,7.6201,7.6994,7.7753,7.8465,7.912,7.9477,7.9477,7.9603,7.9614,7.9614,7.9707,0.0,0.0,0.0,7.9752,7.9752,8.0407,8.0718,8.0718,8.1466,8.181,8.181,8.181,8.181,8.1776,8.1052,8.0718,8.0683,8.0051,7.9752,7.9718,7.9545,7.9477,7.9477,7.9477,7.9477,7.9431,7.8741,0.0,0.0,7.658,7.5891,7.527,7.5201,7.5098,7.5063,7.5063,7.5063,7.5029,7.4925,7.496,7.5029,7.4925,7.4772,7.464,7.464,7.3915,7.3303,7.3303,7.2153,7.1208,7.1208,7.0217,6.9216,6.857,6.8635,6.8521,6.7838,6.7769,6.7755,6.7653,6.7092,0.0,6.7888,6.6053,6.5443,6.6911,6.4324,6.2461,6.1841,6.191,6.1944,6.1944,6.2634,6.3342,6.3979,6.4634,6.5428,6.6137,6.053,5.9771,0.0,0.0,0.0,0.0,0.0,0.0,0.0,0.0,0.0,0.0,0.0,0.0,0.0,0.0,0.0,7.0788,7.3781,7.6471,7.844,7.8545,7.8292,7.7982,7.8603,7.9097,7.927,7.9431,7.9477,7.9477,8.0028,8.0373,8.0373,8.1017,8.1362,8.1362,8.1362,8.1362,8.1362,8.15,8.1569,8.1569,8.1741,0.0,8.181,8.181,8.181,8.181,8.1638,8.1569,8.1569,8.1431,8.1362,8.1224,7.9982,7.9477,7.9477,7.9477,7.9477,7.9477,7.9362,7.9189,7.8925,7.8189,7.7844,7.758,7.6959,7.6339,0.0,7.5856,7.5856,7.5718,7.5063,7.5373,7.5684,7.5063,7.4882,7.486,7.486,7.4678,7.4553,7.4553,7.3735,7.2987,7.2987,7.117,6.9675,6.9538,6.9525,6.9533,6.9375,6.9508,6.9337,6.8699,6.869,6.8831,6.9009,6.799,6.7286,6.7014,6.529,6.4496,6.4998,6.5566,6.5876,6.5876,6.6048,6.6206,6.6344,6.6516,6.7275,6.8586,6.6171,6.5412,0.0,0.0,0.0,0.0,0.0,0.0,0.0,0.0,0.0,0.0,0.0,6.385,6.5195,0.0,7.1399,7.3662,7.6139,7.8304,7.9821,8.0028,7.9752,7.9051,7.958,8.0028,8.0028,8.0431,8.0672,8.0672,8.1017,8.1224,8.1224,8.1569,8.181,8.181,8.2155,8.2362,8.2362,8.2742,8.2914,8.2914,8.2914,8.2914,8.2914,8.2914,8.2914,8.2914,8.2914,8.2914,8.288,8.25,8.2362,8.2259,8.1121,8.0672,8.0672,8.0672,8.0672,8.0603,8.0166,8.0028,7.9925,7.9189,7.8948,7.8879,7.8477,7.8097,7.7787,7.7787,7.7787,7.7684,7.7304,7.7511,7.7684,7.7304,7.6925,7.6649,7.6649,7.6063,7.5511,7.5511,7.4804,7.42,7.42,7.2863,7.1644,7.1118,7.0826,7.0635,7.0635,7.043,7.0113,6.97,6.9747,7.0001,7.038,7.0015,6.9325,6.8241,6.7448,6.6999,6.6999,6.7325,6.7758,6.8138,6.8138,6.8724,6.9863,6.9863,7.0636,7.2084,7.1325,7.0567,0.0,0.0,0.0,0.0,0.0,0.0,0.0,6.2933,6.3122,6.4217,6.5437,6.6906,6.8806,7.196,7.474,7.6292,7.8304,7.9959,8.0718,8.0959,8.0752,8.0051,8.058,8.1028,8.1028,8.1776,8.219,8.2017,8.2155,8.2155,8.2017,8.2155,8.2224,8.2224,8.2811,8.3097,8.3097,8.3683,8.3993,8.3993,8.3993,8.3993,8.3993,8.3993,8.3993,8.3993,8.3993,8.3993,8.3924,8.3362,8.3097,8.3052,8.2293,8.2017,8.2017,8.1845,8.181,8.1707,8.1063,8.0821,8.0718,7.9959,7.9718,7.9683,7.9569,7.9477,7.9477,7.9477,7.9477,7.9477,7.9477,7.9477,7.9477,7.9477,7.9051,7.8603,7.8603,7.7511,7.6546,7.6546,7.5787,7.5132,7.5132,7.4533,7.3675,7.2725,7.2096,7.1705,7.1705,7.1208,7.0863,7.0863,7.0967,7.136,7.2084,7.2015,7.1381,7.0035,6.9828,6.9449,6.8773,6.8739,6.9187,7.0173,7.0173,7.1139,7.314,7.314,7.374,7.4925,7.5201,7.4546,5.9699,5.9335,6.0115,6.1628,6.2607,6.3997,0.0,6.7355,6.7077,6.7934,6.9312,7.0531,7.1069,7.3727,7.6361,7.7913,7.9442,8.0752,8.1569,8.2224,8.2362,8.1638,8.219,8.2614,8.2614,8.3328,8.3476,8.2845,8.3397,8.3466,8.2811,8.3397,8.3752,8.3752,8.3821,8.3855,8.3855,8.3959,8.3993,8.3993,8.3993,8.3993,8.3993,8.3993,8.3993,8.3993,8.3993,8.3993,8.3993,8.389,8.3855,8.3787,8.3087,8.2776,8.2707,8.2052,8.181,8.1776,8.1707,8.1672,8.1535,8.0718,8.0476,8.0339,7.9683,7.9477,7.9477,7.9477,7.9477,7.9477,7.9477,7.9477,7.9477,7.9477,7.9442,7.9396,7.9396,7.8741,7.8154,7.8154,7.6959,7.596,7.596,7.5304,7.4511,7.3753,7.3015,7.2554,7.2554,7.2485,7.245,7.245,7.3037,7.3705,7.4477,7.3912,7.3209,7.2381,7.1657,7.1187,7.1118,7.1118,7.1808,7.3278,7.3313,7.374,7.4649,7.4649,7.4753,7.4903,7.6304,7.6132,6.1983,6.2194,6.3046,6.45,6.5826,6.7376,6.9677,7.0195,7.0472,7.1452,7.2507,7.3607,7.4624,7.658,7.8408,7.9511,8.0948,8.2086,8.2397,8.2707,8.2949,8.3087,8.2983,8.2914,8.2914,8.3569,8.3855,8.3545,8.3845,8.3855,8.3545,8.3821,8.3993,8.3993,8.4466,8.4708,8.4708,8.5121,8.5363,8.5363,8.5363,8.5363,8.5363,8.5363,8.5363,8.5363,8.5363,8.5363,8.5328,8.488,8.4708,8.4639,8.3821,8.3545,8.3397,8.2224,8.181,8.181,8.181,8.181,8.1741,8.1431,8.1293,8.1259,8.0948,8.0845,8.0845,8.0845,8.0845,8.0845,8.0845,8.0845,8.0845,8.0845,8.05,8.0132,8.0132,7.9569,7.9051,7.9051,7.8189,7.7465,7.7465,7.6408,7.5477,7.5188,7.4499,7.3981,7.3981,7.3981,7.3981,7.3981,7.4257,7.4546,7.4891,7.4615,7.4305,7.4016,7.3649,7.3477,7.3477,7.3477,7.3787,7.443,7.4442,7.5029,7.6235,7.6235,7.6718,7.758,7.8235,7.8201,6.3519,6.4327,6.5416,6.7065,6.8663,7.0313,7.2056,7.2748,7.3358,7.4481,7.5326,7.6223,7.7304,7.8787,8.0028,8.0787,8.2052,8.2983,8.319,8.3397,8.3569,8.3683,8.3604,8.3362,8.2949,8.3776,8.4304,8.4304,8.4511,8.457,8.4363,8.4511,8.4614,8.4614,8.519,8.5501,8.5501,8.6018,8.6294,8.6294,8.6294,8.6294,8.6294,8.6294,8.6294,8.6294,8.6294,8.6294,8.626,8.5708,8.5501,8.5432,8.4639,8.4304,8.419,8.288,8.2293,8.2121,8.2121,8.1983,8.181,8.181,8.181,8.181,8.181,8.181,8.1845,8.2052,8.2121,8.2121,8.2121,8.2121,8.2052,8.1845,8.1362,8.0925,8.0925,8.0339,7.9787,7.9787,7.9224,7.8706,7.8706,7.7775,7.7028,7.7028,7.6546,7.5856,7.5029,7.4925,7.4994,7.5201,7.5235,7.5304,7.5511,7.5546,7.5442,7.5235,7.5442,7.5442,7.5235,7.5442,7.5649,7.5856,7.5856,7.6511,7.7821,7.7821,7.8408,7.9477,7.9707,7.9913,6.4118,6.5046,6.6356,6.882,7.0415,7.2131,7.4768,7.538,7.574,7.6842,7.7741,7.8327,7.8361,7.9545,8.0821,8.1638,8.2397,8.3156,8.3855,8.4639,8.457,8.3121,8.4225,8.4535,8.3052,8.4259,8.5156,8.5156,8.5846,8.5915,8.519,8.5846,8.6225,8.6225,8.626,8.626,8.626,8.6294,8.6294,8.6294,8.6294,8.6294,8.6294,8.6294,8.6294,8.6294,8.6294,8.6294,8.6294,8.6294,8.626,8.6191,8.5466,8.5156,8.5052,8.4259,8.3476,8.288,8.288,8.2397,8.181,8.181,8.181,8.181,8.181,8.181,8.1948,8.2673,8.288,8.288,8.288,8.288,8.2707,8.1983,8.1776,8.1776,8.1776,8.1132,8.058,8.058,7.9959,7.9465,7.9465,7.9431,7.9373,7.9373,7.9396,7.827,7.5304,7.4925,7.5201,7.596,7.6063,7.6339,7.7063,7.7132,7.6822,7.6097,7.6718,7.6822,7.6097,7.6753,7.7511,7.8292,7.8292,7.8672,7.9431,7.9431,7.9442,7.9511,8.0235,8.0959,6.5193,6.7039,6.9289,7.0979,7.2997,7.4974,7.6487,7.75,7.8105,7.8039,7.7787,7.758,7.758,7.8465,7.9396,8.0155,8.2155,8.3718,8.3959,8.4708,8.5018,8.4501,8.3983,8.3673,8.3614,8.4121,8.4639,8.5156,8.5432,8.5673,8.5915,8.6191,8.6294,8.6294,8.6294,8.6294,8.6294,8.6294,8.6294,8.6294,8.6294,8.6294,8.6294,8.6294,8.6294,8.6294,8.6294,8.6294,8.6329,8.6846,8.6742,8.6329,8.657,8.6363,8.5915,8.5639,8.5052,8.4363,8.3845,8.3466,8.3235,8.3235,8.3235,8.3235,8.3235,8.3235,8.3328,8.3545,8.3614,8.3614,8.3614,8.3614,8.3569,8.3328,8.3235,8.3121,8.2638,8.2328,8.1959,8.15,8.0752,8.0235,8.0235,7.9821,7.9477,7.9477,7.9477,7.9155,7.8097,7.7959,7.8063,7.8304,7.8361,7.8442,7.8683,7.8718,7.8615,7.8373,7.858,7.8615,7.8373,7.858,7.8856,7.9097,7.9155,7.9477,8.0235,8.0235,8.0752,8.1776,8.2017,8.2535,6.7535,6.9573,7.175,7.3791,7.5872,7.7733,7.884,7.9544,7.9885,7.9676,7.8368,7.7201,7.7201,7.7408,7.8017,7.927,8.1603,8.35,8.4328,8.488,8.5087,8.4811,8.3914,8.3293,8.3225,8.3466,8.4052,8.5121,8.519,8.5535,8.626,8.6294,8.6294,8.6294,8.6294,8.6294,8.6294,8.6294,8.6294,8.6294,8.6294,8.6294,8.6329,8.657,8.6708,8.6708,8.7018,8.7122,8.7156,8.7639,8.757,8.7156,8.7639,8.7536,8.7122,8.7122,8.6811,8.6225,8.488,8.4259,8.3993,8.3993,8.3993,8.3993,8.3993,8.3993,8.4062,8.4363,8.4432,8.4432,8.4432,8.4432,8.4363,8.4087,8.3993,8.3855,8.3397,8.3293,8.3156,8.2673,8.2166,8.1787,8.1787,8.1407,8.1097,8.1097,8.1097,8.0718,7.9638,7.9477,7.9477,7.9477,7.9477,7.9477,7.9477,7.9477,7.9477,7.9477,7.9776,7.989,7.989,8.0407,8.0707,8.0707,8.0983,8.1338,8.1787,8.1787,8.2304,8.3293,8.3293,8.3659,7.083,7.2446,7.3776,7.6921,7.8769,8.0201,8.16,8.1357,8.0953,8.1585,7.9254,7.7063,7.6994,7.6442,7.6753,7.9028,8.0776,8.2638,8.488,8.5225,8.4949,8.4131,8.4062,8.35,8.2052,8.2569,8.3604,8.5087,8.5156,8.5466,8.626,8.6294,8.6329,8.6363,8.6329,8.6329,8.6363,8.6363,8.6398,8.6432,8.6432,8.6432,8.6432,8.7156,8.7467,8.7501,8.826,8.8605,8.8605,8.8639,8.8639,8.8605,8.8639,8.8639,8.8605,8.8605,8.8605,8.8295,8.6122,8.488,8.4235,8.4166,8.4166,8.4166,8.4131,8.4097,8.4294,8.5052,8.5259,8.5259,8.5259,8.5259,8.5052,8.4328,8.4097,8.4097,8.4062,8.4062,8.4028,8.3993,8.3993,8.3993,8.3993,8.3993,8.3993,8.3993,8.3993,8.2959,8.0097,7.9741,7.9741,7.9741,7.9741,7.9741,7.9741,7.9741,7.9741,7.9741,8.0373,8.0752,8.0752,8.2166,8.2983,8.2983,8.3614,8.3993,8.3993,8.3993,8.3993,8.4062,8.4097,8.4363,7.0913,7.3836,7.6325,7.7124,7.8909,8.0584,8.0869,8.081,8.0385,7.9472,7.7241,7.5167,7.405,7.4602,7.5787,7.7511,8.0511,8.3225,8.4949,8.5673,8.5742,8.4984,8.488,8.4501,8.3535,8.3614,8.4156,8.5121,8.4639,8.4915,8.6225,8.6294,8.657,8.7122,8.6605,8.657,8.7122,8.7122,8.7432,8.8019,8.8019,8.8019,8.8019,8.8226,8.8295,8.8295,8.8501,8.8605,8.8639,8.9191,8.9088,8.8639,8.9191,8.9088,8.8605,8.8605,8.8605,8.8501,8.7915,8.7605,8.7329,8.6742,8.651,8.6407,8.588,8.5708,8.5777,8.5949,8.6018,8.6018,8.6018,8.6018,8.5984,8.5777,8.5708,8.557,8.5018,8.488,8.4742,8.4097,8.3993,8.3993,8.3993,8.3993,8.3993,8.3993,8.3993,8.3718,8.2925,8.2856,8.2856,8.2856,8.2856,8.2856,8.2856,8.2856,8.2856,8.2856,8.3028,8.3131,8.3131,8.3511,8.3718,8.3718,8.389,8.3993,8.3993,8.3993,8.423,8.4617,8.5142,8.5702,7.3981,7.6672,7.8963,7.9255,8.0609,8.1602,8.0513,7.9714,7.8767,7.7237,7.4556,7.2291,7.1795,7.2636,7.4132,7.6339,7.9913,8.3087,8.4949,8.557,8.5673,8.5259,8.519,8.488,8.4062,8.4328,8.4708,8.5156,8.4777,8.519,8.6708,8.6777,8.7122,8.7915,8.7536,8.7501,8.7915,8.795,8.8157,8.8605,8.8605,8.8605,8.8605,8.895,8.9088,8.9088,8.9433,8.9571,8.9605,9.0019,8.995,8.9605,9.0019,8.995,8.9571,8.9571,8.9571,8.9571,8.9571,8.9571,8.9398,8.8295,8.795,8.7846,8.7432,8.7329,8.7329,8.7329,8.7329,8.7329,8.7329,8.7329,8.7329,8.7329,8.7053,8.6674,8.626,8.5915,8.557,8.5121,8.5018,8.5018,8.5018,8.5018,8.5018,8.5018,8.5018,8.5018,8.5018,8.4407,8.3993,8.3993,8.3993,8.3993,8.3993,8.3993,8.3993,8.3993,8.3993,8.3993,8.3993,8.4363,8.4535,8.4535,8.4821,8.519,8.5476,8.5476,8.584,8.6472,8.6731,8.6937,7.7985,7.9757,8.1164,8.1688,8.2428,8.2456,8.0142,7.8287,7.6596,7.4968,7.1693,6.938,7.0139,7.0932,7.2567,7.5856,7.9465,8.2638,8.5018,8.5363,8.5363,8.5363,8.5363,8.5121,8.4511,8.5087,8.5535,8.5639,8.5787,8.6271,8.7329,8.7501,8.7881,8.857,8.8674,8.8743,8.8743,8.8743,8.8812,8.8881,8.8881,8.8881,8.8915,8.9536,8.9847,8.9881,9.0536,9.0812,9.0812,9.0812,9.0812,9.0812,9.0812,9.0812,9.0812,9.0812,9.0812,9.0812,9.0812,9.0812,9.0571,8.9191,8.8743,8.8743,8.8639,8.8605,8.8605,8.8605,8.8605,8.8605,8.8605,8.8605,8.8605,8.8605,8.8088,8.757,8.757,8.7053,8.6605,8.6605,8.6605,8.6605,8.6605,8.6605,8.657,8.6467,8.6467,8.6432,8.6329,8.5156,8.4304,8.4304,8.4304,8.4338,8.4442,8.4442,8.4476,8.458,8.4614,8.4614,8.4614,8.5294,8.5639,8.5639,8.6294,8.689,8.7494,8.7494,8.7813,8.8424,8.8233,8.8038,7.8498,8.0085,8.1663,8.1008,8.1003,8.0718,7.9042,7.6942,7.47,7.2562,7.0067,6.8532,6.9345,7.0587,7.2912,7.7292,8.0155,8.2811,8.5708,8.6122,8.6122,8.6122,8.6122,8.6294,8.6777,8.6949,8.7294,8.795,8.8732,8.8645,8.7483,8.8019,8.8467,8.8605,8.9191,8.9502,8.9502,8.9502,8.9812,9.0433,9.0433,9.0433,9.0433,9.0571,9.0605,9.064,9.0743,9.0812,9.0812,9.0812,9.0812,9.0812,9.0812,9.0812,9.0812,9.0812,9.0812,9.0812,9.0812,9.0812,9.0674,8.9778,8.9502,8.9398,8.8777,8.8605,8.8605,8.8605,8.8605,8.8605,8.8605,8.8605,8.8605,8.8605,8.8501,8.8398,8.8398,8.8295,8.8191,8.8191,8.8191,8.8191,8.8191,8.8191,8.7984,8.7329,8.7225,8.6984,8.6398,8.6087,8.5915,8.5915,8.5915,8.6156,8.6777,8.6786,8.7087,8.7743,8.7812,8.7812,8.7812,8.795,8.8019,8.8019,8.8122,8.8132,8.8002,8.8002,8.7836,8.7522,8.8116,8.8538,8.215,8.3024,8.383,8.3882,8.2636,8.054,7.7404,7.4872,7.2293,6.9218,6.7724,6.7068,6.7448,6.938,7.1933,7.4947,7.7672,8.0718,8.457,8.5097,8.5708,8.7294,8.7934,8.8162,8.8035,8.8963,8.9479,8.9339,9.0598,9.055,8.8682,8.9329,8.9743,8.9743,9.0088,9.0547,9.104,9.0512,9.072,9.1562,9.104,9.0812,9.0812,9.0812,9.0812,9.0812,9.0812,9.0812,9.0812,9.0812,9.0812,9.0812,9.0812,9.0812,9.0812,9.0812,9.0812,9.0812,9.0812,9.0812,9.0743,9.0398,9.026,9.0226,8.9847,8.9743,8.9743,8.9743,8.9743,8.9743,8.9743,8.9743,8.9743,8.9743,8.9433,8.9053,8.8674,8.8605,8.8605,8.8605,8.8605,8.8605,8.8605,8.8605,8.8467,8.8088,8.8019,8.7915,8.7536,8.7501,8.7329,8.6915,8.726,8.7639,8.7984,8.8019,8.8191,8.857,8.8605,8.8605,8.8605,8.8605,8.8605,8.8605,8.8605,8.8648,8.8713,8.9091,8.929,8.9294,8.9879,9.0283,8.534,8.5746,8.5897,8.6496,8.427,8.0768,7.6136,7.3274,7.0483,6.6692,6.589,6.5947,6.6294,6.8448,7.089,7.3081,7.5539,7.8895,8.3646,8.4151,8.5177,8.8326,8.9332,8.9617,8.9225,9.0762,9.1465,9.087,9.2075,9.2176,9.0641,9.1157,9.1444,9.1444,9.1444,9.184,9.2608,9.1613,9.1546,9.2302,9.1264,9.0812,9.0812,9.0812,9.0812,9.0812,9.0812,9.0812,9.0812,9.0812,9.0812,9.0812,9.0812,9.0812,9.0812,9.0812,9.0916,9.1054,9.1054,9.1157,9.1295,9.1295,9.1088,9.0812,9.0812,9.0812,9.0812,9.0812,9.0812,9.0812,9.0812,9.0812,9.0812,9.0812,9.0364,8.9778,8.9191,8.9053,8.9053,8.9053,8.9053,8.9053,8.9053,8.9053,8.9019,8.8846,8.8846,8.8777,8.8605,8.8743,8.8639,8.8191,8.8398,8.8639,8.8812,8.8846,8.8915,8.9053,8.9053,8.9053,8.9053,8.9053,8.9157,8.9329,8.9277,8.9439,8.9903,9.0432,9.0824,9.1163,9.1517,9.1778,8.5385,8.6085,8.6451,8.5876,8.3835,8.0772,7.6155,7.3248,7.0434,6.6667,6.5779,6.6157,6.7634,6.8724,7.0816,7.5082,7.664,7.9191,8.4599,8.4635,8.5313,8.8663,8.9022,8.9588,9.1019,9.1965,9.2746,9.3404,9.3615,9.3628,9.3445,9.3493,9.3529,9.3529,9.3529,9.3575,9.3667,9.2656,9.2203,9.2302,9.1264,9.0812,9.0812,9.0812,9.0812,9.0812,9.0812,9.0812,9.0812,9.0812,9.0812,9.0812,9.0812,9.0812,9.0812,9.0812,9.1261,9.1882,9.1882,9.233,9.2882,9.2882,9.195,9.0812,9.0812,9.0812,9.0812,9.0812,9.0812,9.0812,9.0812,9.0812,9.0812,9.0812,9.0743,9.0674,9.0605,9.0605,9.0605,9.0605,9.0605,9.0605,9.0605,9.0605,9.0364,8.9709,8.9605,8.9364,8.8674,8.9191,8.9847,9.0433,8.9364,8.8881,8.9536,8.9605,8.9881,9.0571,9.0605,9.0605,9.0605,9.0605,9.095,9.1675,9.1373,9.1446,9.1931,9.1748,9.1535,9.1289,9.1328,9.1672,8.7155,8.8074,8.8214,8.7964,8.5631,8.2128,7.7002,7.4342,7.1725,6.7356,6.7161,6.7745,6.7486,6.8454,6.984,7.1651,7.2621,7.5215,8.1108,8.1632,8.3464,8.9033,9.0186,9.1146,9.2697,9.4192,9.5218,9.5524,9.5524,9.5524,9.5524,9.443,9.3804,9.3804,9.3804,9.4075,9.4626,9.3085,9.2583,9.3179,9.1562,9.0812,9.0812,9.0812,9.0812,9.0812,9.0812,9.0812,9.0812,9.0812,9.0812,9.0812,9.0812,9.0812,9.0812,9.0812,9.1019,9.1364,9.1813,9.2192,9.2502,9.2951,9.2675,9.2088,9.164,9.1847,9.2088,9.164,9.1847,9.2088,9.164,9.1157,9.0812,9.0812,9.0812,9.0812,9.0812,9.1192,9.1502,9.1502,9.1882,9.2192,9.2192,9.2192,9.2088,9.1778,9.1744,9.164,9.1364,9.1571,9.1847,9.2157,9.1261,9.095,9.1675,9.1744,9.1882,9.2157,9.2192,9.2192,9.2192,9.2192,9.233,9.264,9.2533,9.2372,9.2211,9.2514,9.2441,9.1981,9.2455,9.2827,8.7879,8.9346,8.9618,8.9422,8.6902,8.3029,7.7567,7.5015,7.2547,6.8086,6.8197,6.8918,6.8116,6.8629,6.9423,7.0097,7.109,7.3599,7.8906,7.9835,8.2053,8.7767,8.9288,9.0617,9.2646,9.5174,9.6685,9.6685,9.6685,9.6685,9.6685,9.54,9.4684,9.4684,9.4364,9.4539,9.5196,9.3261,9.2656,9.3343,9.1613,9.0812,9.0812,9.0812,9.0812,9.0812,9.0812,9.0812,9.0812,9.0812,9.0812,9.0812,9.0812,9.0812,9.0812,9.0812,9.095,9.1261,9.2054,9.2468,9.2778,9.3537,9.3778,9.3641,9.2882,9.2882,9.2985,9.2468,9.2709,9.2985,9.2468,9.1916,9.1468,9.1468,9.1468,9.1468,9.1468,9.1916,9.233,9.233,9.2744,9.3089,9.3089,9.3089,9.3089,9.3089,9.3089,9.3089,9.3089,9.3089,9.3192,9.3434,9.2985,9.2778,9.3089,9.3089,9.3089,9.3089,9.3089,9.3089,9.3089,9.3008,9.3057,9.3298,9.3134,9.2934,9.2719,9.318,9.3267,9.3068,9.3673,9.4045,8.6859,8.9329,9.0327,8.9569,8.6978,8.3121,7.7556,7.4947,7.2634,6.8776,6.8534,6.9255,7.0133,6.9624,6.9859,7.2199,7.3921,7.6105,7.9338,8.0388,8.1742,8.4344,8.5246,8.6971,9.03,9.4317,9.6685,9.6685,9.6685,9.6685,9.6685,9.6666,9.6666,9.6666,9.5688,9.5196,9.5196,9.3261,9.2326,9.2302,9.129,9.0812,9.0812,9.0812,9.0812,9.0812,9.0812,9.0812,9.0812,9.0812,9.0812,9.0812,9.0812,9.0812,9.0812,9.0812,9.1295,9.2088,9.2813,9.3606,9.4392,9.5124,9.5365,9.5227,9.4496,9.3709,9.3089,9.3089,9.3089,9.3089,9.3089,9.3089,9.3089,9.3089,9.3089,9.3089,9.3089,9.3089,9.3089,9.3089,9.3089,9.3089,9.3089,9.3089,9.3089,9.3089,9.3089,9.3089,9.3089,9.3089,9.3399,9.422,9.4289,9.3951,9.3158,9.3089,9.3089,9.3089,9.3089,9.3089,9.3089,9.2852,9.3058,9.3779,9.3197,9.3257,9.3971,9.3714,9.3943,9.4687,9.4687,9.5093,8.2262,8.4825,8.6131,8.4798,8.3728,8.177,7.7181,7.5751,7.4374,7.0958,7.085,7.1166,7.0413,7.0041,7.0465,7.2372,7.3064,7.4667,7.8437,8.0105,8.2052,8.5052,8.9056,9.2186,9.3785,9.5621,9.6685,9.6685,9.6685,9.6685,9.6685,9.6685,9.6685,9.6685,9.5708,9.5196,9.5196,9.3261,9.2302,9.2302,9.1264,9.0812,9.0812,9.0812,9.0812,9.0812,9.0812,9.0812,9.0812,9.0812,9.0812,9.0812,9.0812,9.0812,9.0812,9.0812,9.095,9.1295,9.2088,9.2847,9.3606,9.4365,9.4986,9.5365,9.5124,9.4848,9.4675,9.4675,9.4296,9.3916,9.3916,9.3503,9.3089,9.3089,9.3089,9.3089,9.3089,9.3537,9.3916,9.3916,9.433,9.4675,9.4675,9.4675,9.4675,9.4675,9.4675,9.4675,9.4675,9.4675,9.4779,9.502,9.5055,9.4951,9.4675,9.4675,9.4675,9.4675,9.4675,9.4882,9.54,9.5351,9.5556,9.612,9.592,9.5706,9.5505,9.5417,9.5404,9.5466,9.5466,9.5567,7.861,8.1688,8.3483,8.2479,8.1749,8.0404,7.69,7.5616,7.4441,7.1857,7.1711,7.1772,7.0881,7.0387,7.0619,7.1986,7.2931,7.4353,7.6839,7.9396,8.2186,8.5433,8.9748,9.3015,9.4464,9.5878,9.6685,9.6685,9.6685,9.6685,9.6685,9.6685,9.6685,9.6685,9.5708,9.5048,9.4669,9.3109,9.2104,9.1739,9.1118,9.0812,9.0812,9.0812,9.0812,9.0812,9.0812,9.0812,0.0,9.1123,9.1261,9.1295,9.1571,9.1675,9.164,9.1364,9.1261,9.133,9.1813,9.2468,9.3227,9.402,9.4806,9.54,9.54,9.54,9.54,9.54,9.5055,9.4737,9.4737,9.433,9.3951,9.3951,9.3951,9.3951,9.3951,9.4365,9.4737,9.4737,9.5089,9.54,9.54,9.54,9.54,9.54,9.54,9.54,9.54,9.54,9.5503,9.5779,9.5813,9.5917,9.6227,9.571,9.5503,9.5779,9.5813,9.6102,9.6748,9.6635,9.6675,9.6837,9.672,9.6456,9.604,9.6342,9.6357,9.621,9.6514,9.6616,0.0,7.9288,8.165,8.1471,8.0445,7.8825,7.6387,7.4735,0.0,7.1543,7.1315,7.1348,7.1261,7.0609,7.0382,7.1282,7.3337,7.4852,7.488,7.8484,8.2333,8.5764,8.8243,9.0574,9.2978,9.5327,9.6685,9.6612,9.6685,9.6685,9.6612,9.6685,9.6685,9.6685,9.5708,9.4734,9.3804,9.2728,9.1714,9.0812,9.0812,9.0812,9.0812,9.0812,9.0812,9.0812,9.0812,9.0812,9.0881,9.1675,9.1985,9.2054,9.2813,9.3089,9.302,9.2261,9.1985,9.1985,9.1985,9.2468,9.3227,9.4116,9.4813,9.54,9.54,9.54,9.54,9.54,9.54,9.54,9.54,9.54,9.54,9.54,9.54,9.54,9.54,9.5434,9.5468,9.5468,9.5503,9.5537,9.5537,9.5503,9.5503,9.5537,9.5503,9.5503,9.5537,9.5537,9.5813,9.6503,9.6572,9.6883,9.7579,9.6365,9.5848,9.651,9.6544,9.6748,9.7224,9.6935,9.6642,9.6355,9.609,9.5939,9.5939,9.6616,9.6985,9.7018,9.7698,9.8003,7.0804,0.0,7.5442,7.4296,7.5046,7.5579,0.0,7.3523,7.3061,7.0911,7.1392,7.1702,7.0042,6.9911,7.0433,7.1392,7.2935,7.4204,7.4877,7.8983,8.3801,8.8867,9.1106,9.2721,9.3896,9.5658,9.6428,9.5822,9.6355,9.6428,9.5804,9.6392,9.6685,9.6685,9.5708,9.4734,9.3804,9.203,9.104,9.0812,9.0812,9.0812,9.0812,9.0812,9.0812,9.0812,9.0812,9.0812,9.0881,9.1675,9.1985,9.2054,9.2813,9.3089,9.302,9.2261,9.1985,9.1985,9.1985,9.2468,9.333,9.4675,9.5262,9.54,9.54,9.54,9.54,9.54,9.54,9.54,9.54,9.54,9.54,9.54,9.54,9.54,9.54,9.5848,9.6227,9.6227,9.6745,9.7187,9.7187,9.6641,9.6434,9.7083,9.6641,9.6469,9.7083,9.7187,9.7221,9.7428,9.7428,9.7384,9.7299,9.7218,9.7143,9.7025,9.703,9.7196,9.7629,9.7575,9.767,9.7949,9.7648,9.7495,9.7495,9.7664,9.7732,9.7766,9.7935,9.8003,6.7805,7.0332,7.3087,7.2656,7.317,7.367,7.3156,7.2826,7.2321,7.1434,7.1626,7.1374,6.9561,6.971,7.0178,7.045,7.1994,7.4359,7.7835,8.1203,8.527,9.0555,9.2317,9.3418,9.4226,9.5768,9.6392,9.5565,9.6245,9.6502,9.6061,9.6465,9.6685,9.6685,9.5316,9.4319,9.3804,9.2277,9.1238,9.0812,9.0812,9.0812,9.0812,9.0812,9.1019,9.133,9.095,9.1019,9.1399,9.2192,9.2502,9.2606,9.3709,9.4158,9.4054,9.333,9.3054,9.2985,9.264,9.302,9.3847,9.502,9.54,9.54,9.54,9.54,9.54,9.54,9.54,9.54,9.54,9.54,9.54,9.54,9.54,9.5468,9.5813,9.6227,9.6607,9.6986,9.7428,9.7704,9.7704,9.7359,9.7193,9.7635,9.7325,9.7221,9.7635,9.7704,9.7842,9.8187,9.8193,9.8274,9.8446,9.8481,9.8227,9.7531,9.7613,9.781,9.8117,9.8121,9.8175,9.8279,9.8095,9.8003,9.8003,9.8003,9.8003,9.8003,9.8003,9.8003,6.6952,6.9465,7.2636,7.2851,7.2592,7.2422,7.2863,7.2018,7.1242,7.1669,7.1433,7.0712,6.9405,6.9775,7.015,6.9782,7.1702,7.5547,8.2023,8.3985,8.6591,9.1491,9.2794,9.3602,9.441,9.5841,9.6392,9.5565,9.6245,9.6649,9.6539,9.6649,9.6685,9.6685,9.4813,9.3804,9.3804,9.2632,9.1638,9.0812,9.0812,9.0812,9.0812,9.095,9.1295,9.1778,9.1226,9.1295,9.1882,9.2606,9.2985,9.3227,9.4675,9.5296,9.5296,9.4599,9.4323,9.422,9.3503,9.3778,9.4599,9.5193,9.54,9.54,9.54,9.54,9.54,9.54,9.54,9.5434,9.5537,9.5572,9.5606,9.571,9.5744,9.5917,9.6538,9.6779,9.7055,9.7739,9.798,9.8049,9.8049,9.7946,9.7911,9.8015,9.7946,9.7911,9.8049,9.8049,9.8291,9.8883,9.8923,9.9141,9.9704,9.9676,9.9077,9.7904,9.8166,9.8351,9.8428,9.8432,9.8279,9.8003,9.8003,9.8003,9.8003,9.8104,9.8172,9.8172,9.8307,9.8341,7.0418,7.1493,7.1941,6.9437,7.0164,7.116,6.9926,6.9963,6.9969,6.8764,6.9449,7.0055,6.9248,7.0231,7.1339,7.2039,7.4742,7.8963,8.5368,8.5894,8.7435,9.2317,9.3639,9.4446,9.5254,9.6171,9.6392,9.5565,9.6245,9.6392,9.5712,9.6318,9.6685,9.6685,9.4813,9.3804,9.3804,9.1955,9.0935,9.0812,9.0812,9.0812,9.0812,9.1502,9.1502,9.1019,9.1571,9.1502,9.1054,9.1847,9.2537,9.3192,9.4089,9.4848,9.5296,9.4599,9.4323,9.4289,9.4185,9.4634,9.5227,9.5365,9.54,9.54,9.54,9.54,9.54,9.54,9.54,9.5537,9.6158,9.6331,9.6503,9.7187,9.7359,9.7394,9.7497,9.7986,9.8469,9.8607,9.9124,9.9538,9.9538,9.9021,9.8814,9.9469,9.9021,9.8877,9.9469,9.9538,9.9607,9.9711,9.9513,9.9318,9.9125,9.968,9.9409,9.8086,9.8292,9.8326,9.8095,9.8064,9.8034,9.8003,9.8003,9.8003,9.8003,9.8612,9.8916,9.895,9.9593,9.9832,6.9427,6.9958,7.0407,6.9879,7.085,7.1747,7.1013,7.0807,7.0686,7.0398,7.0572,7.0536,6.9889,7.1654,7.3991,7.6198,7.8873,8.2001,8.5823,8.6775,8.8573,9.2611,9.3822,9.4446,9.4813,9.5584,9.5731,9.4923,9.518,9.5437,9.5492,9.5859,9.6245,9.6685,9.5316,9.4319,9.3804,9.2351,9.1341,9.0812,9.0812,9.0812,9.0812,9.1192,9.1399,9.1433,9.1364,9.1399,9.1502,9.2261,9.2778,9.3227,9.4399,9.5089,9.5365,9.502,9.491,9.491,9.491,9.5124,9.54,9.54,9.54,9.54,9.54,9.5675,9.5986,9.5986,9.5986,9.6055,9.64,9.6814,9.7227,9.7635,9.7704,9.7808,9.8222,9.8567,9.8946,9.9297,9.9676,9.9883,9.9883,9.9607,9.9504,9.9849,9.9607,9.9504,9.9849,9.9772,9.9685,9.9685,9.9426,9.9159,9.9009,9.9511,9.9741,9.9467,9.9063,9.8936,9.9187,9.9221,9.9221,9.9221,9.9221,9.9221,9.9221,9.9525,9.9694,9.9694,10.0001,10.0204,6.8605,6.8862,6.9633,7.1417,7.2041,7.2386,7.2936,7.2445,7.2078,7.2899,7.2261,7.1471,7.1153,7.3666,7.679,7.9853,8.2553,8.4812,8.6407,8.7876,8.9858,9.2758,9.3639,9.4079,9.4263,9.485,9.496,9.4336,9.4299,9.4666,9.5455,9.5492,9.5878,9.6685,9.5524,9.4517,9.3804,9.2559,9.1562,9.0812,9.0812,9.0812,9.0812,9.1019,9.133,9.1709,9.1261,9.133,9.1744,9.233,9.2675,9.2985,9.433,9.5055,9.54,9.54,9.54,9.54,9.54,9.54,9.54,9.54,9.54,9.54,9.54,9.5917,9.6503,9.6503,9.6745,9.7021,9.7021,9.7503,9.8015,9.8187,9.8222,9.8366,9.8946,9.9055,9.9193,9.978,9.9883,9.9883,9.9883,9.9883,9.9883,9.9883,9.986,9.9831,9.9831,9.9573,9.9367,9.9367,9.9099,9.8928,9.9008,9.9305,9.9797,10.051,9.9481,9.9254,10.0202,10.0001,10.0001,10.0204,10.0204,10.0204,10.0204,10.0405,10.0405,10.0204,10.0608,10.0508,7.0646,7.055,7.0587,7.2936,7.2459,7.1967,7.4206,7.4111,7.3744,7.4573,7.3487,7.2628,7.3333,7.6136,7.914,8.1599,8.4682,8.7308,8.8923,8.9877,9.1106,9.2905,9.3161,9.3492,9.4226,9.4336,9.4373,9.4299,9.4299,9.4666,9.5455,9.5492,9.5878,9.6685,9.4878,9.3872,9.3804,9.189,9.0891,9.0812,9.0812,9.0812,9.0847,9.1571,9.1537,9.0916,9.1606,9.1502,9.0916,9.095,9.1399,9.2157,9.2951,9.4123,9.54,9.54,9.54,9.54,9.54,9.54,9.54,9.54,9.54,9.54,9.54,9.5917,9.6503,9.6503,9.7538,9.8607,9.8607,9.8676,9.8883,9.9573,9.9745,9.9745,9.9814,9.9814,9.9849,9.9883,9.9883,9.9883,9.9883,9.9883,9.9883,9.9883,9.9685,9.9514,9.9514,9.9248,9.9039,9.9039,9.8735,9.8673,9.9043,9.9114,9.9455,10.0199,9.8882,9.8747,10.0102,9.9559,9.9491,10.017,10.0204,10.0204,10.0204,10.0912,10.0912,10.0204,10.169,10.1589,6.9619,6.9963,7.066,7.3097,7.4001,7.4647,7.6078,7.657,7.6974,7.7781,7.7451,7.7268,7.8075,7.9653,8.1452,8.3398,8.6811,8.929,8.9363,9.0097,9.1216,9.2905,9.3088,9.3418,9.4226,9.3859,9.3565,9.3565,9.3565,9.3896,9.4703,9.5254,9.5878,9.6685,9.5887,9.5118,9.4495,9.3619,9.2843,9.2226,9.1261,9.0812,9.0812,9.1123,9.1088,9.0812,9.1123,9.1364,9.1537,9.1537,9.2295,9.3503,9.4227,9.4882,9.54,9.54,9.54,9.54,9.54,9.54,9.54,9.54,9.54,9.54,9.54,9.6262,9.7256,9.7256,9.8331,9.9366,9.8946,9.9124,9.9538,9.9814,9.9883,9.9883,9.9883,9.9883,9.9883,9.9883,9.9883,9.9883,9.9883,9.9883,9.9825,9.9656,9.9573,9.9426,9.9218,9.9299,9.922,9.8743,9.8401,9.8462,9.9049,9.8679,9.9153,10.0811,10.0405,10.0371,10.0912,10.1115,10.1286,10.159,10.159,10.159,10.159,10.1927,10.1927,10.159,10.2199,10.1895,6.8972,6.9119,6.9963,7.2642,7.4331,7.5946,7.8316,7.9507,8.0351,8.1175,8.0734,8.0351,8.0901,8.1856,8.2957,8.4058,8.7802,9.0317,8.951,9.0317,9.14,9.2537,9.2684,9.2905,9.3455,9.3272,9.3088,9.3088,9.3345,9.3822,9.463,9.5198,9.5878,9.6685,9.6219,9.5593,9.49,9.4408,9.379,9.3089,9.2019,9.1399,9.1192,9.0916,9.0812,9.0812,9.0812,9.1123,9.1606,9.1606,9.2537,9.3985,9.4772,9.5193,9.54,9.54,9.54,9.54,9.54,9.54,9.54,9.54,9.54,9.54,9.54,9.6497,9.7704,9.7704,9.8745,9.978,9.9262,9.9504,9.9883,9.9883,9.9883,9.9883,9.9883,9.9883,9.9883,9.9883,9.9883,9.9883,9.9883,9.9883,9.986,9.9626,9.9543,9.9435,9.9347,9.9492,9.9349,9.8778,9.8465,9.8544,9.9051,9.8848,9.9356,10.0912,10.1487,10.169,10.169,10.1995,10.2299,10.2502,10.2502,10.2502,10.2502,10.2502,10.2401,10.2198,10.2401,10.1995,6.9119,6.8311,6.8508,7.1725,7.312,7.5264,8.0938,8.2847,8.3638,8.4499,8.2737,8.1048,8.1048,8.2317,8.3418,8.3418,8.7455,9.0317,8.951,9.0812,9.1803,9.1803,9.1803,9.1803,9.1803,9.2574,9.3088,9.3088,9.3859,9.4666,9.5455,9.5492,9.5859,9.6666,9.5527,9.4889,9.4889,9.3744,9.3123,9.3123,9.3123,9.2709,9.1985,9.1192,9.0812,9.0812,9.0812,9.0812,9.0812,9.0812,9.1709,9.3192,9.4013,9.4744,9.54,9.54,9.54,9.54,9.54,9.54,9.54,9.54,9.54,9.54,9.54,9.6497,9.7704,9.7704,9.8745,9.9883,9.9883,9.9883,9.9883,9.9883,9.9883,9.9883,9.9883,9.9883,9.9883,9.9883,9.9883,9.9883,9.9918,9.9918,9.9918,9.9918,9.969,9.9675,10.0099,9.9833,9.9461,9.915,9.9119,9.9119,9.9119,9.9796,10.0204,10.0204,10.159,10.2502,10.2502,10.1792,10.1824,10.2502,10.2502,10.2502,10.2502,10.2502,10.2096,10.1386,10.2198,10.1724,6.9119,6.9545,7.0734,7.2826,7.5704,7.9045,8.2994,8.4058,8.4939,8.7455,8.562,8.3728,8.4278,8.4315,8.4425,8.5013,8.8206,9.0519,9.028,9.1143,9.1803,9.1803,9.1803,9.1803,9.1803,9.2574,9.3088,9.3088,9.4373,9.5235,9.5492,9.6061,9.6121,9.5668,9.5656,9.538,9.4715,9.4711,9.471,9.471,9.4192,9.3537,9.2778,9.2537,9.2123,9.164,9.164,9.164,9.1675,9.2192,9.2675,9.3192,9.4013,9.4744,9.54,9.54,9.54,9.54,9.54,9.54,9.54,9.54,9.54,9.54,9.54,9.6497,9.7704,9.7704,9.8745,9.9883,9.9883,9.9883,9.9883,9.9883,9.9883,9.9883,9.9883,9.9883,9.9883,9.9883,9.9883,10.009,10.0608,10.0676,10.0825,10.1105,10.0909,10.0793,10.0986,10.039,10.0195,10.0707,10.0202,9.9897,9.9897,10.01,10.0407,10.098,10.1519,10.169,10.169,10.1995,10.2299,10.2502,10.2502,10.2502,10.2502,10.2502,10.2401,10.2198,10.2401,10.1995,6.9912,7.0793,7.2298,7.4588,7.7488,8.0881,8.5086,8.6297,8.7124,8.94,8.7839,8.6187,8.6664,8.6628,8.6481,8.6297,8.8977,9.0959,9.0629,9.1289,9.1803,9.1803,9.2097,9.2317,9.2317,9.3382,9.4189,9.452,9.5731,9.6612,9.6886,9.7383,9.7027,9.5709,9.6203,9.5876,9.4594,9.5141,9.54,9.5365,9.4979,9.4468,9.3985,9.3365,9.2709,9.1985,9.164,9.1502,9.1571,9.2364,9.2847,9.3192,9.4013,9.4744,9.54,9.54,9.54,9.54,9.54,9.54,9.54,9.54,9.54,9.54,9.54,9.6497,9.7704,9.7704,9.8745,9.9883,9.9883,9.9883,9.9883,9.9883,9.9883,9.9883,9.9883,9.9883,9.9883,9.9883,9.9883,9.9992,10.0392,10.0707,10.0899,10.0982,10.1298,10.1505,10.1473,10.128,10.1216,10.1418,10.098,10.0709,10.0709,10.0709,10.1014,10.1792,10.1792,10.1792,10.1792,10.2299,10.2502,10.2502,10.2502,10.2502,10.2502,10.2502,10.2502,10.2502,10.2502,10.2299,7.1197,7.2078,7.3634,7.6922,7.9213,8.2019,8.7142,8.8996,8.984,9.0537,8.9491,8.8426,8.8426,8.8959,8.8959,8.7528,8.9784,9.1473,9.0812,9.1326,9.1803,9.1803,9.2574,9.3088,9.3088,9.4611,9.5895,9.6649,9.7493,9.8337,9.9071,9.9108,9.825,9.6349,9.6861,9.6313,9.4502,9.5088,9.54,9.54,9.54,9.54,9.5331,9.3951,9.2882,9.2054,9.1192,9.0812,9.0881,9.1675,9.2433,9.3192,9.4013,9.4744,9.54,9.54,9.54,9.54,9.54,9.54,9.54,9.54,9.54,9.54,9.5468,9.6531,9.7704,9.7773,9.8814,9.9883,9.9883,9.9883,9.9883,9.9883,9.9883,9.9883,9.9883,9.9883,9.9883,9.9854,9.9854,9.9807,9.9617,10.021,10.0605,10.041,10.1198,10.1898,10.1898,10.2189,10.2231,10.1621,10.1519,10.1519,10.1519,10.1519,10.1824,10.2401,10.2502,10.2502,10.2401,10.2502,10.2502,10.2502,10.2502,10.2502,10.2502,10.2502,10.2502,10.2502,10.2502,10.2502,7.2004,7.3744,7.6276,8.0167,8.4278,8.7638,8.8849,9.0262,9.1326,9.151,9.0776,9.0078,9.0078,8.9693,8.9473,8.9767,9.0408,9.1033,9.1473,9.1693,9.1803,9.1803,9.2574,9.3088,9.3088,9.5144,9.6502,9.6685,9.8043,9.8924,9.9088,9.9108,9.7928,9.5382,9.6551,9.5971,9.3429,9.4743,9.54,9.54,9.54,9.54,9.5365,9.5055,9.4158,9.2778,9.1399,9.0812,9.0881,9.1675,9.2433,9.3192,9.4013,9.4744,9.54,9.54,9.54,9.54,9.54,9.54,9.54,9.54,9.54,9.5503,9.6089,9.6945,9.7842,9.8429,9.9193,9.9883,9.9883,9.9883,9.9883,9.9883,9.9883,9.9883,9.9883,9.9883,9.986,9.9632,9.9602,9.9656,9.9912,10.06,10.1401,10.2188,10.2604,10.2582,10.2394,10.2399,10.2368,10.2299,10.2299,10.2299,10.2299,10.2299,10.2096,10.1722,10.2198,10.2198,10.1722,10.2198,10.2502,10.2502,10.2502,10.2502,10.2502,10.2502,10.2502,10.2502,10.2502,10.2502,7.3597,7.5726,7.8552,8.3765,8.7545,9.017,9.0978,9.184,9.2427,9.2427,9.1767,9.1069,9.0665,9.0904,9.1051,9.0665,9.1289,9.1803,9.1803,9.1803,9.1803,9.1803,9.2905,9.3822,9.4189,9.6061,9.7603,9.8374,9.9218,9.9842,10.0209,9.9769,9.8491,9.6158,9.6729,9.5943,9.3702,9.4813,9.54,9.54,9.54,9.54,9.5365,9.502,9.4227,9.3054,9.1882,9.1157,9.0881,9.1675,9.2433,9.3192,9.4013,9.4744,9.54,9.54,9.54,9.54,9.54,9.54,9.54,9.54,9.5641,9.5986,9.6365,9.7296,9.8325,9.8676,9.9331,9.9883,9.9883,9.9883,9.9883,9.9883,9.9883,9.9854,9.9743,9.9714,9.9597,9.9337,9.9248,9.9398,9.9784,10.0691,10.1623,10.2622,10.2793,10.2695,10.2502,10.2502,10.2502,10.2502,10.2502,10.2502,10.2502,10.2198,10.1995,10.1893,10.2027,10.1995,10.1893,10.2299,10.2502,10.2502,10.2502,10.2502,10.2502,10.2502,10.2502,10.2502,10.2502,10.2502,7.4661,7.7708,8.1232,8.6958,8.9638,9.1179,9.2574,9.2868,9.2941,9.3088,9.2537,9.1767,9.0959,9.206,9.2648,9.1253,9.2317,9.3051,9.2317,9.2244,9.2244,9.2244,9.3565,9.4813,9.564,9.7182,9.8704,10.0209,10.0393,10.0796,10.1514,10.0497,9.9177,9.7349,9.7037,9.6039,9.4323,9.491,9.5262,9.54,9.54,9.54,9.5365,9.4744,9.3985,9.3054,9.2295,9.1537,9.0881,9.1813,9.264,9.3399,9.4158,9.4917,9.5572,9.5434,9.54,9.54,9.54,9.54,9.54,9.54,9.5882,9.6538,9.6676,9.7676,9.8843,9.8952,9.9435,9.9883,9.9825,9.9831,9.9831,9.9831,9.9802,9.9714,9.9543,9.9455,9.9307,9.898,9.8962,9.9216,9.9791,10.0729,10.1722,10.2401,10.2502,10.2502,10.2502,10.2502,10.2502,10.2502,10.2502,10.2502,10.2502,10.1893,10.1792,10.2299,10.1925,10.1792,10.2299,10.2299,10.2299,10.2299,10.2299,10.2231,10.213,10.2199,10.2299,10.2299,10.2368,10.2502,7.3318,7.9339,8.5527,8.8482,9.0445,9.1693,9.1913,9.195,9.217,9.2941,9.3015,9.2648,9.1803,9.2427,9.3015,9.2794,9.3529,9.4079,9.3969,9.3969,9.3969,9.3969,9.4777,9.5658,9.6465,9.8007,9.9328,10.0209,10.0907,10.1404,10.1514,10.0497,9.9177,9.7349,9.7037,9.6039,9.4323,9.4392,9.4744,9.54,9.54,9.54,9.54,9.5296,9.4468,9.3054,9.2295,9.1537,9.0916,9.2364,9.3399,9.4192,9.4951,9.571,9.6262,9.5641,9.54,9.54,9.54,9.54,9.54,9.54,9.5882,9.6641,9.7325,9.8153,9.8917,9.9573,9.9814,9.986,9.9597,9.9543,9.9543,9.9543,9.9337,9.9189,9.9426,9.9278,9.898,9.8614,9.885,9.9549,10.0906,10.1282,10.1722,10.2401,10.2502,10.2502,10.2502,10.2502,10.2502,10.2502,10.2502,10.2502,10.2502,10.2401,10.2096,10.1621,10.2096,10.2096,10.1621,10.1487,10.1487,10.1487,10.1487,10.1183,10.0474,10.1183,10.1487,10.1621,10.2198,10.2502,7.4441,8.0314,8.582,8.8666,9.0629,9.1913,9.2427,9.3235,9.3859,9.3786,9.4116,9.4189,9.3345,9.3492,9.3749,9.3749,9.4446,9.4813,9.4373,9.4299,9.4299,9.4299,9.5034,9.5988,9.7236,9.8411,9.9622,10.0927,10.1294,10.1291,10.0719,9.9695,9.8312,9.6518,9.5794,9.4845,9.3641,9.4054,9.4461,9.4806,9.4806,9.4806,9.4806,9.5193,9.4779,9.3744,9.3434,9.2606,9.1606,9.3123,9.3709,9.3744,9.4917,9.5606,9.5848,9.5503,9.54,9.54,9.54,9.54,9.5468,9.5882,9.6538,9.7325,9.8084,9.8814,9.9469,9.9814,9.9883,9.9854,9.9743,9.9714,9.9714,9.9714,9.9823,9.9924,10.0073,9.9864,9.9636,9.971,10.0205,10.0795,10.1282,10.169,10.2096,10.2502,10.2502,10.2502,10.2502,10.2502,10.2502,10.2502,10.2502,10.2502,10.2502,10.2096,10.1893,10.1995,10.1893,10.1893,10.1995,10.1995,10.1589,10.0709,10.0709,10.0608,10.0204,10.098,10.1418,10.1386,10.2198,10.2502,7.45,7.9197,8.3324,8.6941,8.9564,9.14,9.2281,9.3896,9.507,9.4703,9.4923,9.5144,9.496,9.474,9.4593,9.4593,9.529,9.5621,9.4997,9.4923,9.4923,9.4923,9.5437,9.6428,9.8043,9.8741,9.9769,10.1404,10.1514,10.098,9.9774,9.8734,9.7463,9.5864,9.4813,9.3985,9.3399,9.3606,9.3709,9.3709,9.3882,9.3985,9.402,9.4806,9.4841,9.4323,9.4323,9.3503,9.2364,9.3503,9.3847,9.3778,9.4744,9.5331,9.5641,9.5468,9.54,9.5434,9.5606,9.5675,9.5779,9.6538,9.7359,9.8084,9.8607,9.9297,9.9883,9.9883,9.9883,9.9883,9.9831,9.9802,9.9836,10.0008,10.029,10.0502,10.0614,10.0406,10.0402,10.081,10.1424,10.1805,10.172,10.2096,10.2502,10.2502,10.2502,10.2502,10.2502,10.2502,10.2502,10.2502,10.2502,10.2502,10.2502,10.1995,10.1893,10.2502,10.1995,10.1893,10.2502,10.2299,10.1589,10.0204,10.0001,9.9829,9.9629,10.0608,10.1081,10.1081,10.2096,10.2502,7.1615,7.4625,7.7708,8.25,8.6647,8.973,9.0555,9.2611,9.4556,9.529,9.485,9.4813,9.6282,9.5951,9.5418,9.5418,9.6098,9.6612,9.6575,9.6575,9.6575,9.6575,9.6612,9.7273,9.8868,9.9071,9.9769,10.1404,10.1514,10.0687,9.8962,9.7895,9.6884,9.5828,9.4813,9.4289,9.4254,9.2813,9.2123,9.2123,9.2813,9.3158,9.3192,9.3985,9.4358,9.4323,9.4323,9.3813,9.3054,9.3123,9.3985,9.5193,9.4599,9.5193,9.6365,9.5641,9.54,9.5503,9.6193,9.6434,9.6572,9.7394,9.8153,9.8774,9.8808,9.9297,9.9883,9.9883,9.9883,9.9825,9.9602,9.9514,9.9686,10.0407,10.0275,10.0213,10.0592,10.07,10.0779,10.1278,10.1384,10.1621,10.2299,10.2502,10.2502,10.2502,10.2502,10.2502,10.2502,10.2502,10.2502,10.2502,10.2502,10.2502,10.2502,10.2502,10.2502,10.2502,10.2502,10.2502,10.2502,10.1792,10.1081,10.0204,9.9525,9.8815,9.8138,9.9561,10.0303,10.0272,10.1825,10.2502,7.105,7.3472,7.6371,8.0791,8.4115,8.6794,8.8647,9.1363,9.3749,9.4556,9.5327,9.6025,9.6575,9.6061,9.5675,9.6208,9.6942,9.7273,9.6759,9.7126,9.7273,9.6759,9.6685,9.7346,9.8961,9.9108,9.9548,10.0613,10.0686,9.9672,9.721,9.718,9.6235,9.4102,9.4203,9.4054,9.3537,9.1985,9.1744,9.2709,9.2985,9.3365,9.3882,9.4641,9.4986,9.4986,9.4986,9.4572,9.3813,9.3296,9.3709,9.4668,9.4427,9.491,9.5744,9.5503,9.54,9.5503,9.6227,9.6503,9.671,9.7986,9.8601,9.8883,9.9366,9.9676,9.9883,9.9883,9.9883,9.9854,9.9772,10.0088,10.0781,10.1811,10.19,10.1896,10.2089,10.2013,10.1908,10.231,10.2382,10.242,10.25,10.2502,10.2198,10.1216,10.1893,10.2098,10.1216,10.1893,10.2502,10.2502,10.2502,10.2502,10.2502,10.2502,10.2502,10.2502,10.2502,10.2502,10.2502,10.2231,10.1724,10.098,10.0202,9.9221,9.8003,9.9491,10.0204,10.0204,10.1792,10.2502,6.8995,7.105,7.3839,7.7965,8.0975,8.3911,8.7399,9.0519,9.3051,9.441,9.5768,9.6685,9.6685,9.6282,9.6171,9.6979,9.753,9.7713,9.7163,9.7566,9.7603,9.6795,9.6685,9.7236,9.8557,9.8704,9.9035,9.9842,9.9916,9.8688,9.5895,9.6208,9.5598,9.3659,9.3546,9.3553,9.358,9.148,9.1192,9.2744,9.2744,9.3123,9.3916,9.4675,9.502,9.502,9.4744,9.4641,9.4634,9.3813,9.3951,9.4641,9.4392,9.4744,9.54,9.54,9.54,9.5537,9.6538,9.6883,9.7124,9.8676,9.9159,9.9262,9.9745,9.9883,9.9883,9.9883,9.986,9.9807,10.0082,10.0786,10.1703,10.2487,10.2803,10.2991,10.2974,10.2796,10.2589,10.2817,10.2789,10.2793,10.25,10.2502,10.2198,10.1083,10.1793,10.2098,10.1083,10.1893,10.2502,10.2502,10.2502,10.2502,10.2502,10.2502,10.2502,10.2502,10.2502,10.2502,10.2502,10.2502,10.2198,10.1386,10.0878,9.9999,9.8747,9.9697,10.0204,10.0204,10.1792,10.2502,0.0,0.0,0.0,7.3766,7.7194,8.1064,8.6628,8.9748,9.2207,9.4813,9.5988,9.6575,9.6685,9.6685,9.6942,9.775,9.7897,9.7953,9.7916,9.7897,9.764,9.6795,9.6722,9.7052,9.786,9.7953,9.8264,9.9015,9.9071,9.785,9.5096,9.4935,9.4799,9.4584,9.2912,9.2851,9.4533,9.1359,9.0536,9.2019,9.2019,9.2399,9.3192,9.3951,9.4323,9.4289,9.3503,9.402,9.5331,9.4599,9.471,9.5331,9.4599,9.4744,9.54,9.54,9.54,9.5641,9.7187,9.7704,9.798,9.9435,9.9883,9.9883,9.9883,9.9883,9.9883,9.9918,9.9719,9.9691,10.048,10.1478,10.2327,10.2296,10.2907,10.3394,10.3112,10.2983,10.2887,10.26,10.2502,10.2502,10.2502,10.2502,10.2502,10.2402,10.2368,10.2368,10.2368,10.2368,10.2402,10.2502,10.2502,10.2502,10.2502,10.2502,10.247,10.247,10.2603,10.2603,10.247,10.247,10.2198,10.1386,10.1386,10.1014,10.0204,10.0204,10.0204,10.0303,10.1792,10.2502,6.5999,0.0,0.0,0.0,0.0,0.0,8.0241,8.2663,8.549,9.0849,9.2611,9.3951,9.6282,9.6685,9.6942,9.775,9.8374,9.8557,9.799,9.8411,9.8264,9.6869,9.7199,9.786,9.8704,9.8778,9.8851,9.9071,9.8557,9.7012,9.4274,9.3292,9.3321,9.436,9.3346,9.3043,9.3501,9.2075,9.1847,9.2778,9.2261,9.2951,9.4744,9.4461,9.4599,9.5055,9.4848,9.4986,9.5296,9.3985,9.4192,9.5331,9.4599,9.4744,9.54,9.54,9.5744,9.6331,9.7359,9.8049,9.8642,9.9573,9.9883,9.9883,9.9883,9.9772,9.9735,10.0285,10.0185,10.0189,10.1523,10.2081,10.2401,10.2696,10.3005,10.3012,10.2695,10.2597,10.2599,10.2502,10.2502,10.2502,10.2502,10.2502,10.2098,10.0982,10.0779,10.0779,10.0779,10.0779,10.1318,10.2401,10.2502,10.2502,10.2502,10.3009,10.328,10.328,10.3787,10.3922,10.3314,10.328,10.2908,10.2198,10.1722,10.1284,10.1113,10.0506,10.0506,10.1081,10.1487,10.169,0.0,0.0,0.0,6.9623,0.0,0.0,7.8353,8.0571,8.3214,8.9344,9.1289,9.2703,9.5217,9.5694,9.6061,9.7199,9.808,9.8447,9.797,9.83,9.8117,9.6869,9.7419,9.808,9.8557,9.8924,9.9108,9.9108,9.8337,9.6705,9.3953,9.2335,9.2397,9.4337,9.3253,9.2985,9.3738,9.2881,9.2675,9.3089,9.2985,9.3813,9.5365,9.4951,9.4986,9.54,9.54,9.54,9.5331,9.4434,9.4572,9.5331,9.4744,9.482,9.5233,9.5577,9.5956,9.6535,9.7716,9.8463,9.8917,9.9642,9.9883,9.9883,9.9883,9.9714,9.9622,10.0377,10.0698,10.1018,10.1715,10.2194,10.2502,10.2688,10.2791,10.2693,10.25,10.2502,10.2502,10.2502,10.2502,10.2502,10.2502,10.2502,10.2198,10.1318,10.1216,10.1216,10.1216,10.1216,10.1489,10.2401,10.2502,10.2502,10.2502,10.3179,10.3585,10.3585,10.4295,10.4531,10.4125,10.382,10.3382,10.2976,10.2198,10.169,10.1418,10.0912,10.1115,10.1925,10.1487,10.1621,6.4812,0.0,0.0,0.0,6.9733,0.0,7.8028,8.0329,8.2631,8.8138,9.0007,9.1253,9.3161,9.3565,9.4042,9.5401,9.6685,9.7566,9.786,9.7916,9.764,9.6906,9.753,9.808,9.8154,9.8814,9.9255,9.9255,9.8217,9.6536,9.4037,9.202,9.2045,9.4487,9.3033,9.3007,9.4547,9.3666,9.3227,9.3227,9.3847,9.4572,9.54,9.5296,9.5296,9.54,9.54,9.54,9.54,9.54,9.54,9.5372,9.5025,9.4885,9.4988,9.5805,9.6149,9.6452,9.8211,9.8849,9.9021,9.9647,9.9889,9.9825,9.9796,9.9597,9.9504,10.0194,10.1108,10.1803,10.1515,10.1893,10.2502,10.2502,10.2502,10.2502,10.2502,10.2502,10.2502,10.2502,10.2502,10.2502,10.2502,10.2502,10.2502,10.2502,10.2401,10.2299,10.2502,10.2401,10.2299,10.2502,10.2502,10.2502,10.2502,10.328,10.3686,10.3686,10.4531,10.4903,10.4802,10.4193,10.3787,10.3686,10.3009,10.2299,10.1487,10.1487,10.1792,10.2401,10.169,10.1792,6.6696,6.7362,6.8145,6.7876,6.8718,0.0,6.9967,7.2169,7.5405,7.986,8.203,8.4189,8.7771,8.894,8.9271,8.894,9.2317,9.5658,9.7622,9.7916,9.7843,9.7676,9.8374,9.9108,9.9769,9.9952,10.0099,10.0099,9.7267,9.532,9.4732,9.2834,9.254,9.4303,9.4018,9.4018,9.4372,9.4156,9.4082,9.4054,9.3572,9.4054,9.5365,9.4806,9.4841,9.54,9.54,9.54,9.54,9.54,9.54,9.5372,9.5025,9.4885,9.4988,9.5805,9.6492,9.7173,9.8383,9.9193,9.9682,9.9592,9.9602,9.9543,9.9278,9.8945,9.8781,9.9254,10.0797,10.2194,10.1587,10.1893,10.2502,10.2502,10.2502,10.2502,10.2502,10.2502,10.2502,10.2502,10.2502,10.2502,10.2502,10.2502,10.2502,10.2502,10.1388,10.1083,10.2301,10.1388,10.1083,10.2401,10.2502,10.2502,10.2502,10.3686,10.4497,10.4497,10.5682,10.6189,10.5614,10.5411,10.5107,10.4531,10.382,10.3009,10.2299,10.2299,10.2096,10.1589,10.1519,10.1792,6.6771,6.6831,6.7243,6.7593,0.0,0.0,0.0,7.0399,7.23,7.6732,7.8098,7.9499,8.2758,8.4019,8.4874,8.5733,8.9183,9.2362,9.4023,9.6355,9.7916,9.7916,9.8264,9.8668,9.9071,9.9842,10.0099,9.9732,9.7123,9.5219,9.4388,9.2474,9.195,9.315,9.3503,9.3675,9.3675,9.4434,9.4586,9.4069,9.4172,9.4558,9.5136,9.493,9.5055,9.54,9.5226,9.5143,9.5143,9.5009,9.4953,9.4953,9.475,9.4608,9.4568,9.5759,9.6442,9.695,9.8401,9.9141,9.9421,9.9307,9.9248,9.9218,9.9039,9.9008,9.9077,9.9077,10.0202,10.1318,10.0912,10.1386,10.2027,10.2027,10.2198,10.2502,10.2502,10.2502,10.2502,10.2502,10.2502,10.2502,10.2502,10.2502,10.2502,10.2502,10.1793,10.159,10.2401,10.1793,10.159,10.2401,10.2502,10.2571,10.3009,10.4125,10.4903,10.5208,10.6291,10.6697,10.6392,10.602,10.531,10.4226,10.3787,10.3212,10.2502,10.2908,10.2705,10.2027,10.2299,10.2705,0.0,6.6884,6.7273,6.7731,0.0,6.6602,0.0,0.0,0.0,7.4253,7.4922,7.5495,7.7794,7.8943,8.0165,8.2142,8.5317,8.784,8.8708,9.2635,9.5896,9.707,9.7456,9.7733,9.7879,9.8924,9.9475,9.9145,9.7044,9.5246,9.4089,9.2265,9.1575,9.2192,9.2951,9.333,9.333,9.462,9.4861,9.3992,9.484,9.5115,9.4913,9.5115,9.5226,9.5282,9.4975,9.48,9.4834,9.4585,9.4471,9.4414,9.4414,9.4241,9.4209,9.5734,9.6279,9.6576,9.8344,9.9009,9.898,9.892,9.8859,9.8829,9.8829,9.9128,9.9427,9.8978,9.9525,10.0202,10.0001,10.0709,10.1418,10.1418,10.1995,10.2502,10.2502,10.2502,10.2502,10.2502,10.2502,10.2502,10.2502,10.2502,10.2502,10.2502,10.2502,10.2502,10.2502,10.2502,10.2502,10.2502,10.2502,10.2806,10.3517,10.4328,10.5005,10.5783,10.6494,10.69,10.69,10.6291,10.531,10.3787,10.3787,10.3382,10.2502,10.3111,10.3179,10.2705,10.3483,10.3889,0.0,0.0,0.0,0.0,6.8334,6.8506,6.4425,0.0,6.7656,6.8169,0.0,7.1009,7.2648,0.0,0.0,7.4486,7.8439,8.1742,8.244,8.4936,8.8649,9.4057,9.5951,9.7126,9.7823,9.7419,9.7676,9.8998,9.6104,9.4417,9.4732,9.3692,9.3074,9.2978,9.3744,9.4185,9.4185,9.4702,9.4906,9.4747,9.4659,9.4693,9.4885,9.4665,9.4721,9.4941,9.4671,9.4557,9.4557,9.45,9.4328,9.4063,9.4063,9.4034,9.4209,9.5734,9.6279,9.6576,9.8344,9.9009,9.895,9.8644,9.834,9.8095,9.8095,9.8603,9.9012,9.8307,9.9153,10.0001,9.939,10.0303,10.1418,10.1418,10.1995,10.2502,10.2502,10.2502,10.2502,10.2502,10.2502,10.2502,10.2502,10.2502,10.2502,10.2502,10.2502,10.2502,10.2502,10.2502,10.2502,10.2502,10.2502,10.2806,10.3517,10.4328,10.5005,10.5783,10.6494,10.69,10.69,10.6798,10.6088,10.4598,10.4598,10.3889,10.2502,10.2603,10.2908,10.3483,10.4193,10.4904,0.0,0.0,0.0,6.7985,6.7547,6.6998,6.4817,6.4695,6.5298,6.6143,0.0,0.0,0.0,0.0,0.0,0.0,7.5063,7.7691,7.8095,8.0941,8.5039,9.0584,9.0616,9.1319,9.4078,9.4923,9.5768,9.6923,9.513,9.3876,9.359,9.3071,9.2678,9.2487,9.3192,9.3731,9.4014,9.4625,9.4715,9.438,9.4471,9.4471,9.4408,9.4471,9.4557,9.4636,9.4322,9.4207,9.4213,9.4039,9.3894,9.3777,9.3777,9.3777,9.3946,9.5438,9.6014,9.6248,9.7862,9.8401,9.8401,9.8249,9.8126,9.8003,9.8003,9.824,9.8409,9.8104,9.8442,9.8848,9.8544,9.9593,10.0709,10.0709,10.1622,10.2502,10.2502,10.2502,10.2502,10.2502,10.2502,10.2502,10.2502,10.2502,10.2502,10.2502,10.2502,10.2502,10.2502,10.2502,10.2502,10.2502,10.2502,10.3009,10.4092,10.4498,10.5174,10.6392,10.6697,10.69,10.69,10.69,10.6189,10.4701,10.47,10.4226,10.3111,10.3585,10.4226,10.4904,10.4802,10.5073,7.0568,7.0526,7.0365,6.8384,6.71,6.6068,6.529,6.458,6.4512,6.6,6.6731,0.0,0.0,0.0,0.0,0.0,0.0,7.41,7.4447,7.6321,7.9843,8.5638,8.5644,8.661,9.0335,9.1284,9.2397,9.4324,9.2953,9.2073,9.2204,9.208,9.2005,9.2004,9.2629,9.325,9.3814,9.4373,9.4403,9.4005,9.4184,9.4155,9.4005,9.4184,9.4401,9.4664,9.4345,9.4165,9.4199,9.3964,9.3774,9.3601,9.3601,9.3601,9.3774,9.5263,9.5804,9.6007,9.7495,9.8003,9.8003,9.8003,9.8003,9.8003,9.8003,9.8003,9.8003,9.8003,9.8003,9.8003,9.8003,9.9088,10.0204,10.0204,10.1419,10.2502,10.2502,10.2502,10.2502,10.2502,10.2502,10.2502,10.2502,10.2502,10.2502,10.2502,10.2502,10.2502,10.2502,10.2502,10.2502,10.2502,10.2502,10.3111,10.4598,10.47,10.5276,10.6798,10.69,10.69,10.69,10.69,10.6291,10.5005,10.4769,10.4396,10.3889,10.399,10.4701,10.5817,10.5512,10.558,7.3976,7.4393,7.4268,6.9156,6.7849,6.7083,6.4221,6.4647,6.6034,6.7523,6.9021,7.0273,7.1041,0.0,0.0,0.0,0.0,0.0,0.0,6.964,7.1102,7.8603,8.2364,8.5273,8.7687,8.6041,8.6756,9.1451,8.886,8.8281,9.1088,9.1227,9.1481,9.2004,9.2439,9.3058,9.3786,9.3947,9.4034,9.4005,9.3747,9.3777,9.3976,9.3747,9.415,9.5059,9.4802,9.4687,9.4687,9.4687,9.4248,9.3601,9.3601,9.3601,9.3774,9.5263,9.5804,9.6007,9.7495,9.8003,9.8003,9.8003,9.8003,9.8003,9.8003,9.8003,9.8003,9.8003,9.8003,9.8003,9.8003,9.9088,10.0204,10.0204,10.1419,10.2502,10.2502,10.2502,10.2502,10.2502,10.2502,10.2502,10.2502,10.2502,10.2502,10.2502,10.2502,10.2502,10.2502,10.2502,10.2502,10.2502,10.2502,10.3111,10.4598,10.47,10.5276,10.6798,10.69,10.69,10.69,10.69,10.6494,10.5817,10.5106,10.47,10.47,10.328,10.372,10.5817,10.6494,10.6798,7.748,7.7308,7.6318,7.2552,7.0872,6.9113,6.5121,6.617,6.7929,6.7895,6.9519,7.1007,7.1255,0.0,0.0,0.0,0.0,0.0,0.0,6.7252,6.8153,7.2695,7.7322,8.063,8.1918,8.3213,8.4736,8.6583,8.6453,8.702,8.8803,8.952,9.0537,9.1943,9.2248,9.2994,9.4232,9.4105,9.3889,9.3747,9.363,9.363,9.3747,9.363,9.3765,9.412,9.4002,9.3977,9.3977,9.3977,9.3808,9.3601,9.3601,9.3876,9.4451,9.5432,9.5804,9.6007,9.7495,9.8003,9.8003,9.8003,9.8003,9.8003,9.8003,9.8003,9.8003,9.8003,9.8003,9.8003,9.8003,9.9088,10.0204,10.0204,10.1419,10.2502,10.2502,10.2502,10.2502,10.2502,10.2502,10.2502,10.2502,10.2502,10.2502,10.2502,10.2502,10.2502,10.2502,10.2502,10.2502,10.2502,10.2502,10.2908,10.3889,10.4396,10.487,10.5377,10.5377,10.5377,10.5377,10.5377,10.5073,10.4396,10.4598,10.47,10.47,10.4701,10.531,10.6494,10.6798,10.6595,8.0152,8.0043,7.9228,7.6217,7.4593,7.2631,6.8673,6.9654,7.1379,7.1142,7.1853,7.2879,7.4221,0.0,0.0,0.0,0.0,0.0,0.0,6.644,6.7286,6.9519,7.3336,7.645,7.8256,7.962,8.1123,8.2969,8.3029,8.383,8.5655,8.733,8.9087,9.0857,9.1638,9.2793,9.4294,9.4039,9.3777,9.3601,9.3601,9.3601,9.3601,9.3601,9.374,9.3977,9.3977,9.3977,9.3977,9.3977,9.3842,9.3601,9.3601,9.4045,9.4789,9.5533,9.6142,9.6717,9.7664,9.8003,9.8003,9.8003,9.8003,9.8003,9.8003,9.8003,9.8003,9.8003,9.8003,9.8003,9.8003,9.9088,10.0204,10.0204,10.1419,10.2502,10.2502,10.2502,10.2502,10.2502,10.2502,10.2502,10.2502,10.2502,10.2502,10.2502,10.2502,10.2502,10.2502,10.2502,10.2502,10.2502,10.2502,10.2806,10.3517,10.4328,10.47,10.47,10.47,10.47,10.47,10.47,10.4497,10.399,10.4497,10.4802,10.5073,10.531,10.5885,10.69,10.6595,10.6291]}]]